<?xml version="1.0" encoding="UTF-8" standalone="no" ?>
<gpx xmlns="http://www.topografix.com/GPX/1/1" xmlns:xsi="http://www.w3.org/2001/XMLSchema-instance" xsi:schemaLocation="http://www.topografix.com/GPX/1/1 http://www.topografix.com/GPX/1/1/gpx.xsd" version="1.1" creator="VisuGPX - https://www.visugpx.com">
  <metadata>
    <name>Port du canal aux cent marche </name>
    <desc><![CDATA[Départ port du canal passage au plateau de chenôve pour rejoindre les lacets de marsannay]]></desc>
  </metadata>
  <trk>
    <name><![CDATA[22-01-2012 08-19-33]]></name>
    <trkseg>
      <trkpt lat="47.31218" lon="5.02715">
        <ele>240</ele>
        <time>2012-01-22T08:19:35Z</time>
      </trkpt>
      <trkpt lat="47.31228" lon="5.02702">
        <ele>250</ele>
        <time>2012-01-22T08:20:45Z</time>
      </trkpt>
      <trkpt lat="47.31233" lon="5.02698">
        <ele>249</ele>
        <time>2012-01-22T08:20:47Z</time>
      </trkpt>
      <trkpt lat="47.31248" lon="5.02692">
        <ele>249</ele>
        <time>2012-01-22T08:20:51Z</time>
      </trkpt>
      <trkpt lat="47.31263" lon="5.02685">
        <ele>248</ele>
        <time>2012-01-22T08:20:56Z</time>
      </trkpt>
      <trkpt lat="47.31278" lon="5.02677">
        <ele>249</ele>
        <time>2012-01-22T08:21:00Z</time>
      </trkpt>
      <trkpt lat="47.31355" lon="5.02635">
        <ele>246</ele>
        <time>2012-01-22T08:21:18Z</time>
      </trkpt>
      <trkpt lat="47.31425" lon="5.02598">
        <ele>252</ele>
        <time>2012-01-22T08:21:37Z</time>
      </trkpt>
      <trkpt lat="47.31432" lon="5.02577">
        <ele>251</ele>
        <time>2012-01-22T08:21:41Z</time>
      </trkpt>
      <trkpt lat="47.31427" lon="5.02553">
        <ele>251</ele>
        <time>2012-01-22T08:21:45Z</time>
      </trkpt>
      <trkpt lat="47.31427" lon="5.02525">
        <ele>257</ele>
        <time>2012-01-22T08:21:52Z</time>
      </trkpt>
      <trkpt lat="47.31427" lon="5.02483">
        <ele>257</ele>
        <time>2012-01-22T08:21:58Z</time>
      </trkpt>
      <trkpt lat="47.31423" lon="5.02448">
        <ele>258</ele>
        <time>2012-01-22T08:22:04Z</time>
      </trkpt>
      <trkpt lat="47.31413" lon="5.02427">
        <ele>256</ele>
        <time>2012-01-22T08:22:08Z</time>
      </trkpt>
      <trkpt lat="47.31403" lon="5.02408">
        <ele>258</ele>
        <time>2012-01-22T08:22:12Z</time>
      </trkpt>
      <trkpt lat="47.31395" lon="5.02385">
        <ele>258</ele>
        <time>2012-01-22T08:22:16Z</time>
      </trkpt>
      <trkpt lat="47.31388" lon="5.02363">
        <ele>259</ele>
        <time>2012-01-22T08:22:21Z</time>
      </trkpt>
      <trkpt lat="47.3138" lon="5.0234">
        <ele>257</ele>
        <time>2012-01-22T08:22:25Z</time>
      </trkpt>
      <trkpt lat="47.31365" lon="5.02297">
        <ele>252</ele>
        <time>2012-01-22T08:22:31Z</time>
      </trkpt>
      <trkpt lat="47.31352" lon="5.02268">
        <ele>251</ele>
        <time>2012-01-22T08:22:35Z</time>
      </trkpt>
      <trkpt lat="47.31332" lon="5.02233">
        <ele>249</ele>
        <time>2012-01-22T08:22:41Z</time>
      </trkpt>
      <trkpt lat="47.3129" lon="5.02157">
        <ele>247</ele>
        <time>2012-01-22T08:22:54Z</time>
      </trkpt>
      <trkpt lat="47.31187" lon="5.01977">
        <ele>245</ele>
        <time>2012-01-22T08:23:27Z</time>
      </trkpt>
      <trkpt lat="47.3117" lon="5.0199">
        <ele>244</ele>
        <time>2012-01-22T08:23:31Z</time>
      </trkpt>
      <trkpt lat="47.31147" lon="5.01968">
        <ele>245</ele>
        <time>2012-01-22T08:23:35Z</time>
      </trkpt>
      <trkpt lat="47.31132" lon="5.01945">
        <ele>245</ele>
        <time>2012-01-22T08:23:40Z</time>
      </trkpt>
      <trkpt lat="47.31117" lon="5.01922">
        <ele>246</ele>
        <time>2012-01-22T08:23:44Z</time>
      </trkpt>
      <trkpt lat="47.31088" lon="5.01877">
        <ele>248</ele>
        <time>2012-01-22T08:23:52Z</time>
      </trkpt>
      <trkpt lat="47.31077" lon="5.01855">
        <ele>248</ele>
        <time>2012-01-22T08:23:56Z</time>
      </trkpt>
      <trkpt lat="47.31048" lon="5.01805">
        <ele>249</ele>
        <time>2012-01-22T08:24:04Z</time>
      </trkpt>
      <trkpt lat="47.31012" lon="5.01742">
        <ele>251</ele>
        <time>2012-01-22T08:24:17Z</time>
      </trkpt>
      <trkpt lat="47.30958" lon="5.01647">
        <ele>255</ele>
        <time>2012-01-22T08:24:34Z</time>
      </trkpt>
      <trkpt lat="47.30947" lon="5.01623">
        <ele>255</ele>
        <time>2012-01-22T08:24:38Z</time>
      </trkpt>
      <trkpt lat="47.30923" lon="5.01578">
        <ele>254</ele>
        <time>2012-01-22T08:24:46Z</time>
      </trkpt>
      <trkpt lat="47.3091" lon="5.01552">
        <ele>255</ele>
        <time>2012-01-22T08:24:50Z</time>
      </trkpt>
      <trkpt lat="47.30867" lon="5.01465">
        <ele>255</ele>
        <time>2012-01-22T08:25:07Z</time>
      </trkpt>
      <trkpt lat="47.30872" lon="5.01442">
        <ele>255</ele>
        <time>2012-01-22T08:25:11Z</time>
      </trkpt>
      <trkpt lat="47.30888" lon="5.01418">
        <ele>255</ele>
        <time>2012-01-22T08:25:15Z</time>
      </trkpt>
      <trkpt lat="47.30902" lon="5.01402">
        <ele>255</ele>
        <time>2012-01-22T08:25:20Z</time>
      </trkpt>
      <trkpt lat="47.30942" lon="5.0135">
        <ele>258</ele>
        <time>2012-01-22T08:25:32Z</time>
      </trkpt>
      <trkpt lat="47.30943" lon="5.01325">
        <ele>259</ele>
        <time>2012-01-22T08:25:38Z</time>
      </trkpt>
      <trkpt lat="47.30933" lon="5.01305">
        <ele>259</ele>
        <time>2012-01-22T08:25:43Z</time>
      </trkpt>
      <trkpt lat="47.3092" lon="5.01283">
        <ele>259</ele>
        <time>2012-01-22T08:25:47Z</time>
      </trkpt>
      <trkpt lat="47.3089" lon="5.01235">
        <ele>259</ele>
        <time>2012-01-22T08:25:57Z</time>
      </trkpt>
      <trkpt lat="47.30863" lon="5.01178">
        <ele>259</ele>
        <time>2012-01-22T08:26:08Z</time>
      </trkpt>
      <trkpt lat="47.30852" lon="5.01158">
        <ele>261</ele>
        <time>2012-01-22T08:26:12Z</time>
      </trkpt>
      <trkpt lat="47.30833" lon="5.01142">
        <ele>261</ele>
        <time>2012-01-22T08:26:16Z</time>
      </trkpt>
      <trkpt lat="47.30817" lon="5.01122">
        <ele>261</ele>
        <time>2012-01-22T08:26:20Z</time>
      </trkpt>
      <trkpt lat="47.3077" lon="5.0106">
        <ele>259</ele>
        <time>2012-01-22T08:26:30Z</time>
      </trkpt>
      <trkpt lat="47.30755" lon="5.01037">
        <ele>259</ele>
        <time>2012-01-22T08:26:35Z</time>
      </trkpt>
      <trkpt lat="47.30742" lon="5.01012">
        <ele>259</ele>
        <time>2012-01-22T08:26:39Z</time>
      </trkpt>
      <trkpt lat="47.30727" lon="5.00987">
        <ele>260</ele>
        <time>2012-01-22T08:26:43Z</time>
      </trkpt>
      <trkpt lat="47.30707" lon="5.00955">
        <ele>261</ele>
        <time>2012-01-22T08:26:49Z</time>
      </trkpt>
      <trkpt lat="47.30682" lon="5.00923">
        <ele>260</ele>
        <time>2012-01-22T08:26:56Z</time>
      </trkpt>
      <trkpt lat="47.30663" lon="5.00925">
        <ele>260</ele>
        <time>2012-01-22T08:27:00Z</time>
      </trkpt>
      <trkpt lat="47.3064" lon="5.00925">
        <ele>259</ele>
        <time>2012-01-22T08:27:06Z</time>
      </trkpt>
      <trkpt lat="47.30623" lon="5.00908">
        <ele>259</ele>
        <time>2012-01-22T08:27:14Z</time>
      </trkpt>
      <trkpt lat="47.30618" lon="5.00878">
        <ele>259</ele>
        <time>2012-01-22T08:27:27Z</time>
      </trkpt>
      <trkpt lat="47.30618" lon="5.00853">
        <ele>259</ele>
        <time>2012-01-22T08:27:31Z</time>
      </trkpt>
      <trkpt lat="47.3062" lon="5.0081">
        <ele>259</ele>
        <time>2012-01-22T08:27:37Z</time>
      </trkpt>
      <trkpt lat="47.30622" lon="5.00787">
        <ele>259</ele>
        <time>2012-01-22T08:27:42Z</time>
      </trkpt>
      <trkpt lat="47.30622" lon="5.00765">
        <ele>259</ele>
        <time>2012-01-22T08:27:46Z</time>
      </trkpt>
      <trkpt lat="47.30623" lon="5.00745">
        <ele>260</ele>
        <time>2012-01-22T08:27:50Z</time>
      </trkpt>
      <trkpt lat="47.30623" lon="5.00723">
        <ele>261</ele>
        <time>2012-01-22T08:27:54Z</time>
      </trkpt>
      <trkpt lat="47.30625" lon="5.0069">
        <ele>262</ele>
        <time>2012-01-22T08:28:00Z</time>
      </trkpt>
      <trkpt lat="47.30612" lon="5.0068">
        <ele>262</ele>
        <time>2012-01-22T08:28:09Z</time>
      </trkpt>
      <trkpt lat="47.30595" lon="5.00682">
        <ele>263</ele>
        <time>2012-01-22T08:28:15Z</time>
      </trkpt>
      <trkpt lat="47.30573" lon="5.00685">
        <ele>267</ele>
        <time>2012-01-22T08:28:23Z</time>
      </trkpt>
      <trkpt lat="47.30557" lon="5.00687">
        <ele>269</ele>
        <time>2012-01-22T08:28:32Z</time>
      </trkpt>
      <trkpt lat="47.30543" lon="5.0067">
        <ele>269</ele>
        <time>2012-01-22T08:28:40Z</time>
      </trkpt>
      <trkpt lat="47.30537" lon="5.00643">
        <ele>267</ele>
        <time>2012-01-22T08:28:46Z</time>
      </trkpt>
      <trkpt lat="47.30535" lon="5.00617">
        <ele>267</ele>
        <time>2012-01-22T08:28:53Z</time>
      </trkpt>
      <trkpt lat="47.30535" lon="5.00593">
        <ele>267</ele>
        <time>2012-01-22T08:28:59Z</time>
      </trkpt>
      <trkpt lat="47.30535" lon="5.00567">
        <ele>267</ele>
        <time>2012-01-22T08:29:05Z</time>
      </trkpt>
      <trkpt lat="47.30532" lon="5.00547">
        <ele>268</ele>
        <time>2012-01-22T08:29:09Z</time>
      </trkpt>
      <trkpt lat="47.30515" lon="5.00548">
        <ele>271</ele>
        <time>2012-01-22T08:29:16Z</time>
      </trkpt>
      <trkpt lat="47.30498" lon="5.00553">
        <ele>271</ele>
        <time>2012-01-22T08:29:22Z</time>
      </trkpt>
      <trkpt lat="47.3048" lon="5.00557">
        <ele>271</ele>
        <time>2012-01-22T08:29:28Z</time>
      </trkpt>
      <trkpt lat="47.30477" lon="5.00532">
        <ele>272</ele>
        <time>2012-01-22T08:29:37Z</time>
      </trkpt>
      <trkpt lat="47.30477" lon="5.0051">
        <ele>273</ele>
        <time>2012-01-22T08:29:43Z</time>
      </trkpt>
      <trkpt lat="47.30472" lon="5.00487">
        <ele>276</ele>
        <time>2012-01-22T08:29:49Z</time>
      </trkpt>
      <trkpt lat="47.30457" lon="5.00485">
        <ele>277</ele>
        <time>2012-01-22T08:29:56Z</time>
      </trkpt>
      <trkpt lat="47.30428" lon="5.00483">
        <ele>277</ele>
        <time>2012-01-22T08:30:06Z</time>
      </trkpt>
      <trkpt lat="47.30405" lon="5.00482">
        <ele>275</ele>
        <time>2012-01-22T08:30:12Z</time>
      </trkpt>
      <trkpt lat="47.3039" lon="5.00487">
        <ele>275</ele>
        <time>2012-01-22T08:30:17Z</time>
      </trkpt>
      <trkpt lat="47.30368" lon="5.00487">
        <ele>275</ele>
        <time>2012-01-22T08:30:23Z</time>
      </trkpt>
      <trkpt lat="47.30355" lon="5.00482">
        <ele>275</ele>
        <time>2012-01-22T08:30:27Z</time>
      </trkpt>
      <trkpt lat="47.3034" lon="5.00478">
        <ele>276</ele>
        <time>2012-01-22T08:30:31Z</time>
      </trkpt>
      <trkpt lat="47.30327" lon="5.00475">
        <ele>276</ele>
        <time>2012-01-22T08:30:36Z</time>
      </trkpt>
      <trkpt lat="47.3031" lon="5.00463">
        <ele>278</ele>
        <time>2012-01-22T08:30:42Z</time>
      </trkpt>
      <trkpt lat="47.30297" lon="5.0045">
        <ele>280</ele>
        <time>2012-01-22T08:30:48Z</time>
      </trkpt>
      <trkpt lat="47.30295" lon="5.00428">
        <ele>282</ele>
        <time>2012-01-22T08:30:54Z</time>
      </trkpt>
      <trkpt lat="47.30293" lon="5.00405">
        <ele>286</ele>
        <time>2012-01-22T08:31:03Z</time>
      </trkpt>
      <trkpt lat="47.30285" lon="5.00387">
        <ele>289</ele>
        <time>2012-01-22T08:31:11Z</time>
      </trkpt>
      <trkpt lat="47.30272" lon="5.0038">
        <ele>289</ele>
        <time>2012-01-22T08:31:15Z</time>
      </trkpt>
      <trkpt lat="47.30235" lon="5.00358">
        <ele>293</ele>
        <time>2012-01-22T08:31:32Z</time>
      </trkpt>
      <trkpt lat="47.30215" lon="5.00348">
        <ele>291</ele>
        <time>2012-01-22T08:31:40Z</time>
      </trkpt>
      <trkpt lat="47.30198" lon="5.00337">
        <ele>290</ele>
        <time>2012-01-22T08:31:47Z</time>
      </trkpt>
      <trkpt lat="47.3018" lon="5.00328">
        <ele>290</ele>
        <time>2012-01-22T08:31:53Z</time>
      </trkpt>
      <trkpt lat="47.30162" lon="5.00312">
        <ele>291</ele>
        <time>2012-01-22T08:31:59Z</time>
      </trkpt>
      <trkpt lat="47.30142" lon="5.0029">
        <ele>293</ele>
        <time>2012-01-22T08:32:08Z</time>
      </trkpt>
      <trkpt lat="47.30122" lon="5.0028">
        <ele>293</ele>
        <time>2012-01-22T08:32:14Z</time>
      </trkpt>
      <trkpt lat="47.30088" lon="5.0026">
        <ele>292</ele>
        <time>2012-01-22T08:32:23Z</time>
      </trkpt>
      <trkpt lat="47.30075" lon="5.0025">
        <ele>291</ele>
        <time>2012-01-22T08:32:27Z</time>
      </trkpt>
      <trkpt lat="47.30062" lon="5.00237">
        <ele>290</ele>
        <time>2012-01-22T08:32:31Z</time>
      </trkpt>
      <trkpt lat="47.30033" lon="5.0021">
        <ele>291</ele>
        <time>2012-01-22T08:32:39Z</time>
      </trkpt>
      <trkpt lat="47.30022" lon="5.00195">
        <ele>290</ele>
        <time>2012-01-22T08:32:44Z</time>
      </trkpt>
      <trkpt lat="47.30012" lon="5.00178">
        <ele>290</ele>
        <time>2012-01-22T08:32:48Z</time>
      </trkpt>
      <trkpt lat="47.30013" lon="5.00158">
        <ele>291</ele>
        <time>2012-01-22T08:32:52Z</time>
      </trkpt>
      <trkpt lat="47.30017" lon="5.00133">
        <ele>292</ele>
        <time>2012-01-22T08:32:56Z</time>
      </trkpt>
      <trkpt lat="47.30005" lon="5.0012">
        <ele>293</ele>
        <time>2012-01-22T08:33:03Z</time>
      </trkpt>
      <trkpt lat="47.29985" lon="5.0012">
        <ele>293</ele>
        <time>2012-01-22T08:33:09Z</time>
      </trkpt>
      <trkpt lat="47.29948" lon="5.0012">
        <ele>293</ele>
        <time>2012-01-22T08:33:17Z</time>
      </trkpt>
      <trkpt lat="47.29933" lon="5.00122">
        <ele>293</ele>
        <time>2012-01-22T08:33:22Z</time>
      </trkpt>
      <trkpt lat="47.2992" lon="5.0011">
        <ele>295</ele>
        <time>2012-01-22T08:33:28Z</time>
      </trkpt>
      <trkpt lat="47.29912" lon="5.00088">
        <ele>297</ele>
        <time>2012-01-22T08:33:34Z</time>
      </trkpt>
      <trkpt lat="47.2991" lon="5.00068">
        <ele>299</ele>
        <time>2012-01-22T08:33:41Z</time>
      </trkpt>
      <trkpt lat="47.29915" lon="5.00043">
        <ele>302</ele>
        <time>2012-01-22T08:33:49Z</time>
      </trkpt>
      <trkpt lat="47.29918" lon="5.0002">
        <ele>304</ele>
        <time>2012-01-22T08:33:57Z</time>
      </trkpt>
      <trkpt lat="47.29927" lon="5.00003">
        <ele>306</ele>
        <time>2012-01-22T08:34:04Z</time>
      </trkpt>
      <trkpt lat="47.29928" lon="4.99983">
        <ele>308</ele>
        <time>2012-01-22T08:34:16Z</time>
      </trkpt>
      <trkpt lat="47.2993" lon="4.99963">
        <ele>311</ele>
        <time>2012-01-22T08:34:25Z</time>
      </trkpt>
      <trkpt lat="47.29928" lon="4.99942">
        <ele>315</ele>
        <time>2012-01-22T08:34:35Z</time>
      </trkpt>
      <trkpt lat="47.2993" lon="4.99922">
        <ele>317</ele>
        <time>2012-01-22T08:34:44Z</time>
      </trkpt>
      <trkpt lat="47.29928" lon="4.999">
        <ele>321</ele>
        <time>2012-01-22T08:34:56Z</time>
      </trkpt>
      <trkpt lat="47.29922" lon="4.99882">
        <ele>327</ele>
        <time>2012-01-22T08:35:05Z</time>
      </trkpt>
      <trkpt lat="47.29905" lon="4.99873">
        <ele>332</ele>
        <time>2012-01-22T08:35:15Z</time>
      </trkpt>
      <trkpt lat="47.29895" lon="4.99858">
        <ele>333</ele>
        <time>2012-01-22T08:35:24Z</time>
      </trkpt>
      <trkpt lat="47.29888" lon="4.99837">
        <ele>334</ele>
        <time>2012-01-22T08:35:34Z</time>
      </trkpt>
      <trkpt lat="47.29897" lon="4.99818">
        <ele>335</ele>
        <time>2012-01-22T08:35:45Z</time>
      </trkpt>
      <trkpt lat="47.299" lon="4.99798">
        <ele>340</ele>
        <time>2012-01-22T08:35:57Z</time>
      </trkpt>
      <trkpt lat="47.29898" lon="4.99775">
        <ele>341</ele>
        <time>2012-01-22T08:38:18Z</time>
      </trkpt>
      <trkpt lat="47.29898" lon="4.99753">
        <ele>345</ele>
        <time>2012-01-22T08:38:27Z</time>
      </trkpt>
      <trkpt lat="47.299" lon="4.99733">
        <ele>347</ele>
        <time>2012-01-22T08:38:35Z</time>
      </trkpt>
      <trkpt lat="47.29895" lon="4.99712">
        <ele>355</ele>
        <time>2012-01-22T08:38:47Z</time>
      </trkpt>
      <trkpt lat="47.29878" lon="4.99697">
        <ele>360</ele>
        <time>2012-01-22T08:39:04Z</time>
      </trkpt>
      <trkpt lat="47.29865" lon="4.99682">
        <ele>360</ele>
        <time>2012-01-22T08:39:12Z</time>
      </trkpt>
      <trkpt lat="47.29852" lon="4.99665">
        <ele>360</ele>
        <time>2012-01-22T08:39:21Z</time>
      </trkpt>
      <trkpt lat="47.2984" lon="4.99653">
        <ele>359</ele>
        <time>2012-01-22T08:39:27Z</time>
      </trkpt>
      <trkpt lat="47.29827" lon="4.9964">
        <ele>359</ele>
        <time>2012-01-22T08:39:35Z</time>
      </trkpt>
      <trkpt lat="47.29813" lon="4.9963">
        <ele>360</ele>
        <time>2012-01-22T08:39:41Z</time>
      </trkpt>
      <trkpt lat="47.29798" lon="4.99622">
        <ele>358</ele>
        <time>2012-01-22T08:39:48Z</time>
      </trkpt>
      <trkpt lat="47.29785" lon="4.99613">
        <ele>359</ele>
        <time>2012-01-22T08:39:54Z</time>
      </trkpt>
      <trkpt lat="47.29772" lon="4.99605">
        <ele>363</ele>
        <time>2012-01-22T08:40:00Z</time>
      </trkpt>
      <trkpt lat="47.29757" lon="4.99593">
        <ele>365</ele>
        <time>2012-01-22T08:40:07Z</time>
      </trkpt>
      <trkpt lat="47.29742" lon="4.99588">
        <ele>366</ele>
        <time>2012-01-22T08:40:13Z</time>
      </trkpt>
      <trkpt lat="47.29738" lon="4.99567">
        <ele>365</ele>
        <time>2012-01-22T08:40:23Z</time>
      </trkpt>
      <trkpt lat="47.29743" lon="4.99545">
        <ele>366</ele>
        <time>2012-01-22T08:40:29Z</time>
      </trkpt>
      <trkpt lat="47.2973" lon="4.99528">
        <ele>366</ele>
        <time>2012-01-22T08:40:38Z</time>
      </trkpt>
      <trkpt lat="47.29717" lon="4.99525">
        <ele>365</ele>
        <time>2012-01-22T08:40:42Z</time>
      </trkpt>
      <trkpt lat="47.29703" lon="4.9952">
        <ele>365</ele>
        <time>2012-01-22T08:40:46Z</time>
      </trkpt>
      <trkpt lat="47.29675" lon="4.99515">
        <ele>361</ele>
        <time>2012-01-22T08:40:52Z</time>
      </trkpt>
      <trkpt lat="47.29655" lon="4.99512">
        <ele>359</ele>
        <time>2012-01-22T08:40:56Z</time>
      </trkpt>
      <trkpt lat="47.29632" lon="4.99512">
        <ele>358</ele>
        <time>2012-01-22T08:41:01Z</time>
      </trkpt>
      <trkpt lat="47.29593" lon="4.9951">
        <ele>358</ele>
        <time>2012-01-22T08:41:07Z</time>
      </trkpt>
      <trkpt lat="47.29567" lon="4.99508">
        <ele>358</ele>
        <time>2012-01-22T08:41:11Z</time>
      </trkpt>
      <trkpt lat="47.2953" lon="4.995">
        <ele>357</ele>
        <time>2012-01-22T08:41:15Z</time>
      </trkpt>
      <trkpt lat="47.295" lon="4.99497">
        <ele>356</ele>
        <time>2012-01-22T08:41:20Z</time>
      </trkpt>
      <trkpt lat="47.29478" lon="4.99495">
        <ele>356</ele>
        <time>2012-01-22T08:41:24Z</time>
      </trkpt>
      <trkpt lat="47.29463" lon="4.99483">
        <ele>354</ele>
        <time>2012-01-22T08:41:30Z</time>
      </trkpt>
      <trkpt lat="47.29458" lon="4.9946">
        <ele>354</ele>
        <time>2012-01-22T08:41:38Z</time>
      </trkpt>
      <trkpt lat="47.2945" lon="4.99438">
        <ele>356</ele>
        <time>2012-01-22T08:41:45Z</time>
      </trkpt>
      <trkpt lat="47.29438" lon="4.99418">
        <ele>355</ele>
        <time>2012-01-22T08:41:53Z</time>
      </trkpt>
      <trkpt lat="47.29438" lon="4.99397">
        <ele>353</ele>
        <time>2012-01-22T08:41:59Z</time>
      </trkpt>
      <trkpt lat="47.29437" lon="4.99372">
        <ele>353</ele>
        <time>2012-01-22T08:42:08Z</time>
      </trkpt>
      <trkpt lat="47.2943" lon="4.99352">
        <ele>353</ele>
        <time>2012-01-22T08:42:14Z</time>
      </trkpt>
      <trkpt lat="47.2942" lon="4.99338">
        <ele>353</ele>
        <time>2012-01-22T08:42:20Z</time>
      </trkpt>
      <trkpt lat="47.29408" lon="4.99325">
        <ele>354</ele>
        <time>2012-01-22T08:42:27Z</time>
      </trkpt>
      <trkpt lat="47.29398" lon="4.9931">
        <ele>353</ele>
        <time>2012-01-22T08:42:35Z</time>
      </trkpt>
      <trkpt lat="47.29387" lon="4.9929">
        <ele>353</ele>
        <time>2012-01-22T08:42:43Z</time>
      </trkpt>
      <trkpt lat="47.29378" lon="4.9927">
        <ele>354</ele>
        <time>2012-01-22T08:42:49Z</time>
      </trkpt>
      <trkpt lat="47.2937" lon="4.99245">
        <ele>354</ele>
        <time>2012-01-22T08:42:58Z</time>
      </trkpt>
      <trkpt lat="47.2936" lon="4.99225">
        <ele>357</ele>
        <time>2012-01-22T08:43:06Z</time>
      </trkpt>
      <trkpt lat="47.29352" lon="4.99208">
        <ele>357</ele>
        <time>2012-01-22T08:43:12Z</time>
      </trkpt>
      <trkpt lat="47.29348" lon="4.99183">
        <ele>356</ele>
        <time>2012-01-22T08:43:19Z</time>
      </trkpt>
      <trkpt lat="47.29342" lon="4.99165">
        <ele>356</ele>
        <time>2012-01-22T08:43:27Z</time>
      </trkpt>
      <trkpt lat="47.29333" lon="4.99142">
        <ele>355</ele>
        <time>2012-01-22T08:43:35Z</time>
      </trkpt>
      <trkpt lat="47.29322" lon="4.9912">
        <ele>356</ele>
        <time>2012-01-22T08:43:41Z</time>
      </trkpt>
      <trkpt lat="47.29312" lon="4.99107">
        <ele>356</ele>
        <time>2012-01-22T08:43:46Z</time>
      </trkpt>
      <trkpt lat="47.29302" lon="4.99087">
        <ele>356</ele>
        <time>2012-01-22T08:43:54Z</time>
      </trkpt>
      <trkpt lat="47.293" lon="4.99058">
        <ele>362</ele>
        <time>2012-01-22T08:44:02Z</time>
      </trkpt>
      <trkpt lat="47.29295" lon="4.99033">
        <ele>367</ele>
        <time>2012-01-22T08:44:19Z</time>
      </trkpt>
      <trkpt lat="47.2929" lon="4.99008">
        <ele>367</ele>
        <time>2012-01-22T08:44:27Z</time>
      </trkpt>
      <trkpt lat="47.29292" lon="4.98985">
        <ele>367</ele>
        <time>2012-01-22T08:44:38Z</time>
      </trkpt>
      <trkpt lat="47.29293" lon="4.98965">
        <ele>367</ele>
        <time>2012-01-22T08:44:46Z</time>
      </trkpt>
      <trkpt lat="47.29295" lon="4.98945">
        <ele>367</ele>
        <time>2012-01-22T08:44:54Z</time>
      </trkpt>
      <trkpt lat="47.29295" lon="4.98917">
        <ele>368</ele>
        <time>2012-01-22T08:45:07Z</time>
      </trkpt>
      <trkpt lat="47.29293" lon="4.98897">
        <ele>369</ele>
        <time>2012-01-22T08:45:15Z</time>
      </trkpt>
      <trkpt lat="47.29283" lon="4.98877">
        <ele>368</ele>
        <time>2012-01-22T08:45:49Z</time>
      </trkpt>
      <trkpt lat="47.29268" lon="4.98843">
        <ele>372</ele>
        <time>2012-01-22T08:46:01Z</time>
      </trkpt>
      <trkpt lat="47.29247" lon="4.98802">
        <ele>377</ele>
        <time>2012-01-22T08:46:18Z</time>
      </trkpt>
      <trkpt lat="47.29235" lon="4.98783">
        <ele>377</ele>
        <time>2012-01-22T08:46:24Z</time>
      </trkpt>
      <trkpt lat="47.29225" lon="4.98768">
        <ele>377</ele>
        <time>2012-01-22T08:46:31Z</time>
      </trkpt>
      <trkpt lat="47.29212" lon="4.98752">
        <ele>377</ele>
        <time>2012-01-22T08:46:39Z</time>
      </trkpt>
      <trkpt lat="47.29213" lon="4.98732">
        <ele>377</ele>
        <time>2012-01-22T08:46:45Z</time>
      </trkpt>
      <trkpt lat="47.29222" lon="4.9871">
        <ele>376</ele>
        <time>2012-01-22T08:46:54Z</time>
      </trkpt>
      <trkpt lat="47.29232" lon="4.98692">
        <ele>377</ele>
        <time>2012-01-22T08:47:02Z</time>
      </trkpt>
      <trkpt lat="47.29238" lon="4.98673">
        <ele>378</ele>
        <time>2012-01-22T08:47:10Z</time>
      </trkpt>
      <trkpt lat="47.29223" lon="4.98665">
        <ele>380</ele>
        <time>2012-01-22T08:47:18Z</time>
      </trkpt>
      <trkpt lat="47.29207" lon="4.98662">
        <ele>379</ele>
        <time>2012-01-22T08:47:25Z</time>
      </trkpt>
      <trkpt lat="47.29192" lon="4.98657">
        <ele>378</ele>
        <time>2012-01-22T08:47:31Z</time>
      </trkpt>
      <trkpt lat="47.2917" lon="4.98648">
        <ele>377</ele>
        <time>2012-01-22T08:47:37Z</time>
      </trkpt>
      <trkpt lat="47.29142" lon="4.98638">
        <ele>377</ele>
        <time>2012-01-22T08:47:48Z</time>
      </trkpt>
      <trkpt lat="47.29107" lon="4.98625">
        <ele>377</ele>
        <time>2012-01-22T08:47:58Z</time>
      </trkpt>
      <trkpt lat="47.29088" lon="4.98618">
        <ele>377</ele>
        <time>2012-01-22T08:48:05Z</time>
      </trkpt>
      <trkpt lat="47.29073" lon="4.98615">
        <ele>377</ele>
        <time>2012-01-22T08:48:09Z</time>
      </trkpt>
      <trkpt lat="47.29053" lon="4.98612">
        <ele>376</ele>
        <time>2012-01-22T08:48:15Z</time>
      </trkpt>
      <trkpt lat="47.29038" lon="4.98613">
        <ele>376</ele>
        <time>2012-01-22T08:48:19Z</time>
      </trkpt>
      <trkpt lat="47.2902" lon="4.98618">
        <ele>376</ele>
        <time>2012-01-22T08:48:23Z</time>
      </trkpt>
      <trkpt lat="47.29003" lon="4.98627">
        <ele>375</ele>
        <time>2012-01-22T08:48:28Z</time>
      </trkpt>
      <trkpt lat="47.28985" lon="4.98628">
        <ele>374</ele>
        <time>2012-01-22T08:48:32Z</time>
      </trkpt>
      <trkpt lat="47.28965" lon="4.98622">
        <ele>374</ele>
        <time>2012-01-22T08:48:36Z</time>
      </trkpt>
      <trkpt lat="47.2895" lon="4.98607">
        <ele>374</ele>
        <time>2012-01-22T08:48:40Z</time>
      </trkpt>
      <trkpt lat="47.28938" lon="4.98588">
        <ele>374</ele>
        <time>2012-01-22T08:48:44Z</time>
      </trkpt>
      <trkpt lat="47.2893" lon="4.98562">
        <ele>375</ele>
        <time>2012-01-22T08:48:49Z</time>
      </trkpt>
      <trkpt lat="47.28923" lon="4.98535">
        <ele>376</ele>
        <time>2012-01-22T08:48:55Z</time>
      </trkpt>
      <trkpt lat="47.28922" lon="4.98515">
        <ele>377</ele>
        <time>2012-01-22T08:48:59Z</time>
      </trkpt>
      <trkpt lat="47.2892" lon="4.98482">
        <ele>378</ele>
        <time>2012-01-22T08:49:05Z</time>
      </trkpt>
      <trkpt lat="47.28922" lon="4.98458">
        <ele>378</ele>
        <time>2012-01-22T08:49:09Z</time>
      </trkpt>
      <trkpt lat="47.2892" lon="4.98432">
        <ele>379</ele>
        <time>2012-01-22T08:49:16Z</time>
      </trkpt>
      <trkpt lat="47.28915" lon="4.98405">
        <ele>379</ele>
        <time>2012-01-22T08:49:22Z</time>
      </trkpt>
      <trkpt lat="47.28912" lon="4.98382">
        <ele>380</ele>
        <time>2012-01-22T08:49:28Z</time>
      </trkpt>
      <trkpt lat="47.28922" lon="4.98363">
        <ele>382</ele>
        <time>2012-01-22T08:49:35Z</time>
      </trkpt>
      <trkpt lat="47.28928" lon="4.98343">
        <ele>383</ele>
        <time>2012-01-22T08:49:41Z</time>
      </trkpt>
      <trkpt lat="47.28935" lon="4.98323">
        <ele>385</ele>
        <time>2012-01-22T08:49:49Z</time>
      </trkpt>
      <trkpt lat="47.28943" lon="4.983">
        <ele>388</ele>
        <time>2012-01-22T08:49:58Z</time>
      </trkpt>
      <trkpt lat="47.28955" lon="4.98277">
        <ele>389</ele>
        <time>2012-01-22T08:50:06Z</time>
      </trkpt>
      <trkpt lat="47.28963" lon="4.9826">
        <ele>390</ele>
        <time>2012-01-22T08:50:10Z</time>
      </trkpt>
      <trkpt lat="47.28973" lon="4.98237">
        <ele>391</ele>
        <time>2012-01-22T08:50:16Z</time>
      </trkpt>
      <trkpt lat="47.28983" lon="4.98218">
        <ele>391</ele>
        <time>2012-01-22T08:50:23Z</time>
      </trkpt>
      <trkpt lat="47.29" lon="4.9819">
        <ele>392</ele>
        <time>2012-01-22T08:50:31Z</time>
      </trkpt>
      <trkpt lat="47.29013" lon="4.98173">
        <ele>394</ele>
        <time>2012-01-22T08:50:38Z</time>
      </trkpt>
      <trkpt lat="47.29027" lon="4.9818">
        <ele>394</ele>
        <time>2012-01-22T08:50:44Z</time>
      </trkpt>
      <trkpt lat="47.29043" lon="4.98188">
        <ele>396</ele>
        <time>2012-01-22T08:50:50Z</time>
      </trkpt>
      <trkpt lat="47.29055" lon="4.98203">
        <ele>399</ele>
        <time>2012-01-22T08:50:56Z</time>
      </trkpt>
      <trkpt lat="47.29065" lon="4.9822">
        <ele>399</ele>
        <time>2012-01-22T08:51:03Z</time>
      </trkpt>
      <trkpt lat="47.29077" lon="4.9823">
        <ele>399</ele>
        <time>2012-01-22T08:51:07Z</time>
      </trkpt>
      <trkpt lat="47.2909" lon="4.98237">
        <ele>398</ele>
        <time>2012-01-22T08:51:11Z</time>
      </trkpt>
      <trkpt lat="47.29107" lon="4.98248">
        <ele>398</ele>
        <time>2012-01-22T08:51:15Z</time>
      </trkpt>
      <trkpt lat="47.29122" lon="4.98253">
        <ele>400</ele>
        <time>2012-01-22T08:51:22Z</time>
      </trkpt>
      <trkpt lat="47.29138" lon="4.98253">
        <ele>398</ele>
        <time>2012-01-22T08:51:28Z</time>
      </trkpt>
      <trkpt lat="47.2916" lon="4.98255">
        <ele>396</ele>
        <time>2012-01-22T08:51:34Z</time>
      </trkpt>
      <trkpt lat="47.29175" lon="4.98262">
        <ele>396</ele>
        <time>2012-01-22T08:51:41Z</time>
      </trkpt>
      <trkpt lat="47.29195" lon="4.9826">
        <ele>394</ele>
        <time>2012-01-22T08:51:47Z</time>
      </trkpt>
      <trkpt lat="47.29215" lon="4.9825">
        <ele>392</ele>
        <time>2012-01-22T08:51:53Z</time>
      </trkpt>
      <trkpt lat="47.29235" lon="4.98248">
        <ele>389</ele>
        <time>2012-01-22T08:51:59Z</time>
      </trkpt>
      <trkpt lat="47.29252" lon="4.98248">
        <ele>384</ele>
        <time>2012-01-22T08:52:27Z</time>
      </trkpt>
      <trkpt lat="47.2927" lon="4.98253">
        <ele>384</ele>
        <time>2012-01-22T08:52:35Z</time>
      </trkpt>
      <trkpt lat="47.29292" lon="4.9826">
        <ele>384</ele>
        <time>2012-01-22T08:52:43Z</time>
      </trkpt>
      <trkpt lat="47.29312" lon="4.98265">
        <ele>387</ele>
        <time>2012-01-22T08:52:54Z</time>
      </trkpt>
      <trkpt lat="47.29328" lon="4.98275">
        <ele>389</ele>
        <time>2012-01-22T08:53:04Z</time>
      </trkpt>
      <trkpt lat="47.29348" lon="4.98287">
        <ele>389</ele>
        <time>2012-01-22T08:53:17Z</time>
      </trkpt>
      <trkpt lat="47.29362" lon="4.98295">
        <ele>388</ele>
        <time>2012-01-22T08:53:25Z</time>
      </trkpt>
      <trkpt lat="47.29372" lon="4.98308">
        <ele>389</ele>
        <time>2012-01-22T08:53:32Z</time>
      </trkpt>
      <trkpt lat="47.29385" lon="4.98317">
        <ele>389</ele>
        <time>2012-01-22T08:53:38Z</time>
      </trkpt>
      <trkpt lat="47.29397" lon="4.98328">
        <ele>387</ele>
        <time>2012-01-22T08:53:44Z</time>
      </trkpt>
      <trkpt lat="47.29412" lon="4.98337">
        <ele>387</ele>
        <time>2012-01-22T08:53:50Z</time>
      </trkpt>
      <trkpt lat="47.29423" lon="4.98347">
        <ele>388</ele>
        <time>2012-01-22T08:53:57Z</time>
      </trkpt>
      <trkpt lat="47.29435" lon="4.98357">
        <ele>388</ele>
        <time>2012-01-22T08:54:05Z</time>
      </trkpt>
      <trkpt lat="47.29457" lon="4.98372">
        <ele>388</ele>
        <time>2012-01-22T08:54:18Z</time>
      </trkpt>
      <trkpt lat="47.29468" lon="4.98385">
        <ele>389</ele>
        <time>2012-01-22T08:54:26Z</time>
      </trkpt>
      <trkpt lat="47.29482" lon="4.98392">
        <ele>390</ele>
        <time>2012-01-22T08:54:35Z</time>
      </trkpt>
      <trkpt lat="47.29495" lon="4.984">
        <ele>391</ele>
        <time>2012-01-22T08:54:43Z</time>
      </trkpt>
      <trkpt lat="47.29517" lon="4.98412">
        <ele>390</ele>
        <time>2012-01-22T08:55:00Z</time>
      </trkpt>
      <trkpt lat="47.29532" lon="4.98422">
        <ele>390</ele>
        <time>2012-01-22T08:55:06Z</time>
      </trkpt>
      <trkpt lat="47.29545" lon="4.98438">
        <ele>390</ele>
        <time>2012-01-22T08:55:12Z</time>
      </trkpt>
      <trkpt lat="47.2956" lon="4.98453">
        <ele>390</ele>
        <time>2012-01-22T08:55:21Z</time>
      </trkpt>
      <trkpt lat="47.29572" lon="4.98468">
        <ele>390</ele>
        <time>2012-01-22T08:55:29Z</time>
      </trkpt>
      <trkpt lat="47.29583" lon="4.98478">
        <ele>391</ele>
        <time>2012-01-22T08:55:35Z</time>
      </trkpt>
      <trkpt lat="47.29595" lon="4.98462">
        <ele>391</ele>
        <time>2012-01-22T08:55:46Z</time>
      </trkpt>
      <trkpt lat="47.29593" lon="4.98442">
        <ele>392</ele>
        <time>2012-01-22T08:55:58Z</time>
      </trkpt>
      <trkpt lat="47.29578" lon="4.98425">
        <ele>391</ele>
        <time>2012-01-22T08:56:05Z</time>
      </trkpt>
      <trkpt lat="47.29562" lon="4.98413">
        <ele>391</ele>
        <time>2012-01-22T08:56:11Z</time>
      </trkpt>
      <trkpt lat="47.29548" lon="4.98407">
        <ele>390</ele>
        <time>2012-01-22T08:56:15Z</time>
      </trkpt>
      <trkpt lat="47.29542" lon="4.98378">
        <ele>388</ele>
        <time>2012-01-22T08:56:21Z</time>
      </trkpt>
      <trkpt lat="47.29533" lon="4.98362">
        <ele>387</ele>
        <time>2012-01-22T08:56:25Z</time>
      </trkpt>
      <trkpt lat="47.29517" lon="4.98352">
        <ele>386</ele>
        <time>2012-01-22T08:56:29Z</time>
      </trkpt>
      <trkpt lat="47.29488" lon="4.98333">
        <ele>390</ele>
        <time>2012-01-22T08:56:38Z</time>
      </trkpt>
      <trkpt lat="47.2947" lon="4.98322">
        <ele>387</ele>
        <time>2012-01-22T08:56:42Z</time>
      </trkpt>
      <trkpt lat="47.29455" lon="4.98302">
        <ele>387</ele>
        <time>2012-01-22T08:56:46Z</time>
      </trkpt>
      <trkpt lat="47.29438" lon="4.98285">
        <ele>387</ele>
        <time>2012-01-22T08:56:50Z</time>
      </trkpt>
      <trkpt lat="47.29422" lon="4.9828">
        <ele>386</ele>
        <time>2012-01-22T08:56:55Z</time>
      </trkpt>
      <trkpt lat="47.29415" lon="4.9826">
        <ele>389</ele>
        <time>2012-01-22T08:57:01Z</time>
      </trkpt>
      <trkpt lat="47.29405" lon="4.9824">
        <ele>392</ele>
        <time>2012-01-22T08:57:13Z</time>
      </trkpt>
      <trkpt lat="47.29392" lon="4.98223">
        <ele>390</ele>
        <time>2012-01-22T08:57:17Z</time>
      </trkpt>
      <trkpt lat="47.29375" lon="4.98202">
        <ele>388</ele>
        <time>2012-01-22T08:57:24Z</time>
      </trkpt>
      <trkpt lat="47.29368" lon="4.98182">
        <ele>389</ele>
        <time>2012-01-22T08:57:28Z</time>
      </trkpt>
      <trkpt lat="47.29358" lon="4.9816">
        <ele>390</ele>
        <time>2012-01-22T08:57:34Z</time>
      </trkpt>
      <trkpt lat="47.29343" lon="4.98145">
        <ele>388</ele>
        <time>2012-01-22T08:57:40Z</time>
      </trkpt>
      <trkpt lat="47.2933" lon="4.98127">
        <ele>387</ele>
        <time>2012-01-22T08:57:44Z</time>
      </trkpt>
      <trkpt lat="47.2932" lon="4.9811">
        <ele>387</ele>
        <time>2012-01-22T08:57:49Z</time>
      </trkpt>
      <trkpt lat="47.29303" lon="4.98082">
        <ele>386</ele>
        <time>2012-01-22T08:57:55Z</time>
      </trkpt>
      <trkpt lat="47.29295" lon="4.98062">
        <ele>387</ele>
        <time>2012-01-22T08:57:59Z</time>
      </trkpt>
      <trkpt lat="47.29287" lon="4.98038">
        <ele>388</ele>
        <time>2012-01-22T08:58:05Z</time>
      </trkpt>
      <trkpt lat="47.29273" lon="4.98012">
        <ele>389</ele>
        <time>2012-01-22T08:58:11Z</time>
      </trkpt>
      <trkpt lat="47.2926" lon="4.97982">
        <ele>391</ele>
        <time>2012-01-22T08:58:20Z</time>
      </trkpt>
      <trkpt lat="47.29252" lon="4.9796">
        <ele>394</ele>
        <time>2012-01-22T08:58:26Z</time>
      </trkpt>
      <trkpt lat="47.29245" lon="4.9794">
        <ele>397</ele>
        <time>2012-01-22T08:58:32Z</time>
      </trkpt>
      <trkpt lat="47.29245" lon="4.9792">
        <ele>399</ele>
        <time>2012-01-22T08:58:38Z</time>
      </trkpt>
      <trkpt lat="47.29252" lon="4.97902">
        <ele>399</ele>
        <time>2012-01-22T08:58:47Z</time>
      </trkpt>
      <trkpt lat="47.29263" lon="4.97887">
        <ele>396</ele>
        <time>2012-01-22T08:58:53Z</time>
      </trkpt>
      <trkpt lat="47.29278" lon="4.97877">
        <ele>395</ele>
        <time>2012-01-22T08:58:57Z</time>
      </trkpt>
      <trkpt lat="47.29292" lon="4.97867">
        <ele>394</ele>
        <time>2012-01-22T08:59:01Z</time>
      </trkpt>
      <trkpt lat="47.2931" lon="4.97865">
        <ele>393</ele>
        <time>2012-01-22T08:59:05Z</time>
      </trkpt>
      <trkpt lat="47.29328" lon="4.97865">
        <ele>392</ele>
        <time>2012-01-22T08:59:10Z</time>
      </trkpt>
      <trkpt lat="47.29343" lon="4.97865">
        <ele>392</ele>
        <time>2012-01-22T08:59:14Z</time>
      </trkpt>
      <trkpt lat="47.29362" lon="4.97857">
        <ele>392</ele>
        <time>2012-01-22T08:59:20Z</time>
      </trkpt>
      <trkpt lat="47.29365" lon="4.97833">
        <ele>389</ele>
        <time>2012-01-22T08:59:24Z</time>
      </trkpt>
      <trkpt lat="47.29368" lon="4.97813">
        <ele>389</ele>
        <time>2012-01-22T08:59:28Z</time>
      </trkpt>
      <trkpt lat="47.29363" lon="4.9779">
        <ele>389</ele>
        <time>2012-01-22T08:59:39Z</time>
      </trkpt>
      <trkpt lat="47.2935" lon="4.97797">
        <ele>383</ele>
        <time>2012-01-22T08:59:51Z</time>
      </trkpt>
      <trkpt lat="47.29338" lon="4.9781">
        <ele>378</ele>
        <time>2012-01-22T09:00:02Z</time>
      </trkpt>
      <trkpt lat="47.29322" lon="4.97803">
        <ele>375</ele>
        <time>2012-01-22T09:00:08Z</time>
      </trkpt>
      <trkpt lat="47.29305" lon="4.97798">
        <ele>372</ele>
        <time>2012-01-22T09:00:14Z</time>
      </trkpt>
      <trkpt lat="47.29287" lon="4.97792">
        <ele>369</ele>
        <time>2012-01-22T09:00:20Z</time>
      </trkpt>
      <trkpt lat="47.29275" lon="4.97782">
        <ele>368</ele>
        <time>2012-01-22T09:00:25Z</time>
      </trkpt>
      <trkpt lat="47.29255" lon="4.97772">
        <ele>366</ele>
        <time>2012-01-22T09:00:31Z</time>
      </trkpt>
      <trkpt lat="47.2924" lon="4.9776">
        <ele>366</ele>
        <time>2012-01-22T09:00:37Z</time>
      </trkpt>
      <trkpt lat="47.29225" lon="4.9775">
        <ele>365</ele>
        <time>2012-01-22T09:00:41Z</time>
      </trkpt>
      <trkpt lat="47.292" lon="4.97727">
        <ele>363</ele>
        <time>2012-01-22T09:00:48Z</time>
      </trkpt>
      <trkpt lat="47.29182" lon="4.97713">
        <ele>359</ele>
        <time>2012-01-22T09:00:52Z</time>
      </trkpt>
      <trkpt lat="47.2917" lon="4.97702">
        <ele>357</ele>
        <time>2012-01-22T09:00:56Z</time>
      </trkpt>
      <trkpt lat="47.29163" lon="4.97683">
        <ele>352</ele>
        <time>2012-01-22T09:01:02Z</time>
      </trkpt>
      <trkpt lat="47.29157" lon="4.9766">
        <ele>350</ele>
        <time>2012-01-22T09:01:06Z</time>
      </trkpt>
      <trkpt lat="47.29147" lon="4.97633">
        <ele>346</ele>
        <time>2012-01-22T09:01:10Z</time>
      </trkpt>
      <trkpt lat="47.29132" lon="4.97613">
        <ele>344</ele>
        <time>2012-01-22T09:01:15Z</time>
      </trkpt>
      <trkpt lat="47.2912" lon="4.976">
        <ele>340</ele>
        <time>2012-01-22T09:01:19Z</time>
      </trkpt>
      <trkpt lat="47.29107" lon="4.97597">
        <ele>339</ele>
        <time>2012-01-22T09:01:23Z</time>
      </trkpt>
      <trkpt lat="47.29093" lon="4.97583">
        <ele>337</ele>
        <time>2012-01-22T09:01:29Z</time>
      </trkpt>
      <trkpt lat="47.29077" lon="4.97575">
        <ele>336</ele>
        <time>2012-01-22T09:01:33Z</time>
      </trkpt>
      <trkpt lat="47.2904" lon="4.9756">
        <ele>332</ele>
        <time>2012-01-22T09:01:42Z</time>
      </trkpt>
      <trkpt lat="47.29043" lon="4.97523">
        <ele>334</ele>
        <time>2012-01-22T09:02:00Z</time>
      </trkpt>
      <trkpt lat="47.29052" lon="4.97502">
        <ele>340</ele>
        <time>2012-01-22T09:02:06Z</time>
      </trkpt>
      <trkpt lat="47.2906" lon="4.97485">
        <ele>346</ele>
        <time>2012-01-22T09:02:13Z</time>
      </trkpt>
      <trkpt lat="47.2907" lon="4.97465">
        <ele>349</ele>
        <time>2012-01-22T09:02:19Z</time>
      </trkpt>
      <trkpt lat="47.29087" lon="4.97433">
        <ele>350</ele>
        <time>2012-01-22T09:02:27Z</time>
      </trkpt>
      <trkpt lat="47.29098" lon="4.97412">
        <ele>351</ele>
        <time>2012-01-22T09:02:34Z</time>
      </trkpt>
      <trkpt lat="47.2911" lon="4.9739">
        <ele>353</ele>
        <time>2012-01-22T09:02:40Z</time>
      </trkpt>
      <trkpt lat="47.2912" lon="4.97367">
        <ele>352</ele>
        <time>2012-01-22T09:02:46Z</time>
      </trkpt>
      <trkpt lat="47.2913" lon="4.97352">
        <ele>351</ele>
        <time>2012-01-22T09:02:50Z</time>
      </trkpt>
      <trkpt lat="47.29138" lon="4.97335">
        <ele>350</ele>
        <time>2012-01-22T09:02:57Z</time>
      </trkpt>
      <trkpt lat="47.29152" lon="4.97322">
        <ele>351</ele>
        <time>2012-01-22T09:03:03Z</time>
      </trkpt>
      <trkpt lat="47.29172" lon="4.97295">
        <ele>348</ele>
        <time>2012-01-22T09:03:13Z</time>
      </trkpt>
      <trkpt lat="47.2919" lon="4.97275">
        <ele>350</ele>
        <time>2012-01-22T09:03:24Z</time>
      </trkpt>
      <trkpt lat="47.2921" lon="4.97252">
        <ele>351</ele>
        <time>2012-01-22T09:03:32Z</time>
      </trkpt>
      <trkpt lat="47.29223" lon="4.97237">
        <ele>351</ele>
        <time>2012-01-22T09:03:39Z</time>
      </trkpt>
      <trkpt lat="47.29248" lon="4.97215">
        <ele>351</ele>
        <time>2012-01-22T09:03:49Z</time>
      </trkpt>
      <trkpt lat="47.29263" lon="4.97205">
        <ele>348</ele>
        <time>2012-01-22T09:03:55Z</time>
      </trkpt>
      <trkpt lat="47.2927" lon="4.97185">
        <ele>350</ele>
        <time>2012-01-22T09:04:02Z</time>
      </trkpt>
      <trkpt lat="47.29252" lon="4.97182">
        <ele>358</ele>
        <time>2012-01-22T09:04:20Z</time>
      </trkpt>
      <trkpt lat="47.29238" lon="4.97178">
        <ele>360</ele>
        <time>2012-01-22T09:04:31Z</time>
      </trkpt>
      <trkpt lat="47.29223" lon="4.97182">
        <ele>360</ele>
        <time>2012-01-22T09:04:39Z</time>
      </trkpt>
      <trkpt lat="47.29208" lon="4.97188">
        <ele>360</ele>
        <time>2012-01-22T09:04:47Z</time>
      </trkpt>
      <trkpt lat="47.29193" lon="4.972">
        <ele>364</ele>
        <time>2012-01-22T09:04:56Z</time>
      </trkpt>
      <trkpt lat="47.29178" lon="4.97208">
        <ele>365</ele>
        <time>2012-01-22T09:05:02Z</time>
      </trkpt>
      <trkpt lat="47.29163" lon="4.9722">
        <ele>368</ele>
        <time>2012-01-22T09:05:10Z</time>
      </trkpt>
      <trkpt lat="47.29148" lon="4.97233">
        <ele>368</ele>
        <time>2012-01-22T09:05:16Z</time>
      </trkpt>
      <trkpt lat="47.29133" lon="4.97247">
        <ele>370</ele>
        <time>2012-01-22T09:05:25Z</time>
      </trkpt>
      <trkpt lat="47.29122" lon="4.97258">
        <ele>372</ele>
        <time>2012-01-22T09:05:44Z</time>
      </trkpt>
      <trkpt lat="47.29105" lon="4.97278">
        <ele>370</ele>
        <time>2012-01-22T09:05:52Z</time>
      </trkpt>
      <trkpt lat="47.29092" lon="4.97293">
        <ele>367</ele>
        <time>2012-01-22T09:05:56Z</time>
      </trkpt>
      <trkpt lat="47.29077" lon="4.97308">
        <ele>366</ele>
        <time>2012-01-22T09:06:00Z</time>
      </trkpt>
      <trkpt lat="47.29065" lon="4.97318">
        <ele>368</ele>
        <time>2012-01-22T09:06:02Z</time>
      </trkpt>
      <trkpt lat="47.29052" lon="4.97332">
        <ele>369</ele>
        <time>2012-01-22T09:06:06Z</time>
      </trkpt>
      <trkpt lat="47.29035" lon="4.97348">
        <ele>370</ele>
        <time>2012-01-22T09:06:11Z</time>
      </trkpt>
      <trkpt lat="47.29022" lon="4.97365">
        <ele>371</ele>
        <time>2012-01-22T09:06:15Z</time>
      </trkpt>
      <trkpt lat="47.29008" lon="4.97388">
        <ele>370</ele>
        <time>2012-01-22T09:06:19Z</time>
      </trkpt>
      <trkpt lat="47.28997" lon="4.97412">
        <ele>370</ele>
        <time>2012-01-22T09:06:23Z</time>
      </trkpt>
      <trkpt lat="47.28978" lon="4.97442">
        <ele>367</ele>
        <time>2012-01-22T09:06:27Z</time>
      </trkpt>
      <trkpt lat="47.28962" lon="4.97485">
        <ele>364</ele>
        <time>2012-01-22T09:06:34Z</time>
      </trkpt>
      <trkpt lat="47.28943" lon="4.97505">
        <ele>359</ele>
        <time>2012-01-22T09:06:38Z</time>
      </trkpt>
      <trkpt lat="47.28927" lon="4.97523">
        <ele>358</ele>
        <time>2012-01-22T09:06:42Z</time>
      </trkpt>
      <trkpt lat="47.28908" lon="4.97542">
        <ele>357</ele>
        <time>2012-01-22T09:06:46Z</time>
      </trkpt>
      <trkpt lat="47.28892" lon="4.97557">
        <ele>357</ele>
        <time>2012-01-22T09:06:50Z</time>
      </trkpt>
      <trkpt lat="47.28865" lon="4.9759">
        <ele>360</ele>
        <time>2012-01-22T09:06:59Z</time>
      </trkpt>
      <trkpt lat="47.28853" lon="4.97603">
        <ele>359</ele>
        <time>2012-01-22T09:07:03Z</time>
      </trkpt>
      <trkpt lat="47.28842" lon="4.97617">
        <ele>359</ele>
        <time>2012-01-22T09:07:07Z</time>
      </trkpt>
      <trkpt lat="47.28828" lon="4.97638">
        <ele>361</ele>
        <time>2012-01-22T09:07:13Z</time>
      </trkpt>
      <trkpt lat="47.28805" lon="4.97673">
        <ele>363</ele>
        <time>2012-01-22T09:07:22Z</time>
      </trkpt>
      <trkpt lat="47.28792" lon="4.97688">
        <ele>364</ele>
        <time>2012-01-22T09:07:26Z</time>
      </trkpt>
      <trkpt lat="47.28778" lon="4.97705">
        <ele>361</ele>
        <time>2012-01-22T09:07:30Z</time>
      </trkpt>
      <trkpt lat="47.28763" lon="4.97722">
        <ele>358</ele>
        <time>2012-01-22T09:07:34Z</time>
      </trkpt>
      <trkpt lat="47.28732" lon="4.97763">
        <ele>354</ele>
        <time>2012-01-22T09:07:42Z</time>
      </trkpt>
      <trkpt lat="47.28713" lon="4.97782">
        <ele>353</ele>
        <time>2012-01-22T09:07:47Z</time>
      </trkpt>
      <trkpt lat="47.28697" lon="4.97803">
        <ele>350</ele>
        <time>2012-01-22T09:07:51Z</time>
      </trkpt>
      <trkpt lat="47.28683" lon="4.97818">
        <ele>351</ele>
        <time>2012-01-22T09:07:55Z</time>
      </trkpt>
      <trkpt lat="47.2867" lon="4.97833">
        <ele>356</ele>
        <time>2012-01-22T09:07:59Z</time>
      </trkpt>
      <trkpt lat="47.28658" lon="4.97848">
        <ele>359</ele>
        <time>2012-01-22T09:08:03Z</time>
      </trkpt>
      <trkpt lat="47.2864" lon="4.97865">
        <ele>357</ele>
        <time>2012-01-22T09:08:07Z</time>
      </trkpt>
      <trkpt lat="47.28625" lon="4.97877">
        <ele>359</ele>
        <time>2012-01-22T09:08:14Z</time>
      </trkpt>
      <trkpt lat="47.28613" lon="4.97892">
        <ele>358</ele>
        <time>2012-01-22T09:08:26Z</time>
      </trkpt>
      <trkpt lat="47.286" lon="4.97888">
        <ele>343</ele>
        <time>2012-01-22T09:09:08Z</time>
      </trkpt>
      <trkpt lat="47.2859" lon="4.97903">
        <ele>351</ele>
        <time>2012-01-22T09:10:42Z</time>
      </trkpt>
      <trkpt lat="47.28582" lon="4.97922">
        <ele>358</ele>
        <time>2012-01-22T09:10:46Z</time>
      </trkpt>
      <trkpt lat="47.28568" lon="4.97935">
        <ele>355</ele>
        <time>2012-01-22T09:10:51Z</time>
      </trkpt>
      <trkpt lat="47.28552" lon="4.97953">
        <ele>353</ele>
        <time>2012-01-22T09:10:55Z</time>
      </trkpt>
      <trkpt lat="47.28535" lon="4.97965">
        <ele>347</ele>
        <time>2012-01-22T09:10:59Z</time>
      </trkpt>
      <trkpt lat="47.2852" lon="4.97977">
        <ele>346</ele>
        <time>2012-01-22T09:11:03Z</time>
      </trkpt>
      <trkpt lat="47.2851" lon="4.97992">
        <ele>345</ele>
        <time>2012-01-22T09:11:12Z</time>
      </trkpt>
      <trkpt lat="47.28497" lon="4.98">
        <ele>346</ele>
        <time>2012-01-22T09:11:20Z</time>
      </trkpt>
      <trkpt lat="47.28478" lon="4.98012">
        <ele>344</ele>
        <time>2012-01-22T09:11:28Z</time>
      </trkpt>
      <trkpt lat="47.28465" lon="4.9802">
        <ele>343</ele>
        <time>2012-01-22T09:11:37Z</time>
      </trkpt>
      <trkpt lat="47.2845" lon="4.98025">
        <ele>344</ele>
        <time>2012-01-22T09:11:45Z</time>
      </trkpt>
      <trkpt lat="47.28437" lon="4.98033">
        <ele>344</ele>
        <time>2012-01-22T09:11:49Z</time>
      </trkpt>
      <trkpt lat="47.28422" lon="4.9804">
        <ele>344</ele>
        <time>2012-01-22T09:11:55Z</time>
      </trkpt>
      <trkpt lat="47.28407" lon="4.98038">
        <ele>338</ele>
        <time>2012-01-22T09:12:04Z</time>
      </trkpt>
      <trkpt lat="47.28393" lon="4.98035">
        <ele>336</ele>
        <time>2012-01-22T09:12:37Z</time>
      </trkpt>
      <trkpt lat="47.28388" lon="4.98015">
        <ele>334</ele>
        <time>2012-01-22T09:12:48Z</time>
      </trkpt>
      <trkpt lat="47.2839" lon="4.97995">
        <ele>332</ele>
        <time>2012-01-22T09:12:56Z</time>
      </trkpt>
      <trkpt lat="47.28377" lon="4.98007">
        <ele>330</ele>
        <time>2012-01-22T09:13:05Z</time>
      </trkpt>
      <trkpt lat="47.28357" lon="4.98">
        <ele>328</ele>
        <time>2012-01-22T09:13:11Z</time>
      </trkpt>
      <trkpt lat="47.2834" lon="4.97987">
        <ele>325</ele>
        <time>2012-01-22T09:13:15Z</time>
      </trkpt>
      <trkpt lat="47.28305" lon="4.97953">
        <ele>320</ele>
        <time>2012-01-22T09:13:21Z</time>
      </trkpt>
      <trkpt lat="47.28223" lon="4.97877">
        <ele>313</ele>
        <time>2012-01-22T09:13:38Z</time>
      </trkpt>
      <trkpt lat="47.28203" lon="4.97868">
        <ele>312</ele>
        <time>2012-01-22T09:13:40Z</time>
      </trkpt>
      <trkpt lat="47.28188" lon="4.97867">
        <ele>310</ele>
        <time>2012-01-22T09:13:42Z</time>
      </trkpt>
      <trkpt lat="47.28173" lon="4.97867">
        <ele>308</ele>
        <time>2012-01-22T09:13:44Z</time>
      </trkpt>
      <trkpt lat="47.28153" lon="4.97865">
        <ele>306</ele>
        <time>2012-01-22T09:13:49Z</time>
      </trkpt>
      <trkpt lat="47.28143" lon="4.97848">
        <ele>305</ele>
        <time>2012-01-22T09:13:53Z</time>
      </trkpt>
      <trkpt lat="47.28133" lon="4.97825">
        <ele>308</ele>
        <time>2012-01-22T09:14:01Z</time>
      </trkpt>
      <trkpt lat="47.28122" lon="4.97807">
        <ele>312</ele>
        <time>2012-01-22T09:15:00Z</time>
      </trkpt>
      <trkpt lat="47.2811" lon="4.97792">
        <ele>315</ele>
        <time>2012-01-22T09:15:06Z</time>
      </trkpt>
      <trkpt lat="47.28088" lon="4.97765">
        <ele>316</ele>
        <time>2012-01-22T09:15:16Z</time>
      </trkpt>
      <trkpt lat="47.28078" lon="4.97752">
        <ele>316</ele>
        <time>2012-01-22T09:15:23Z</time>
      </trkpt>
      <trkpt lat="47.28065" lon="4.97735">
        <ele>317</ele>
        <time>2012-01-22T09:15:31Z</time>
      </trkpt>
      <trkpt lat="47.28052" lon="4.97722">
        <ele>316</ele>
        <time>2012-01-22T09:15:38Z</time>
      </trkpt>
      <trkpt lat="47.2804" lon="4.97712">
        <ele>315</ele>
        <time>2012-01-22T09:15:44Z</time>
      </trkpt>
      <trkpt lat="47.2803" lon="4.97698">
        <ele>317</ele>
        <time>2012-01-22T09:15:50Z</time>
      </trkpt>
      <trkpt lat="47.2802" lon="4.9768">
        <ele>321</ele>
        <time>2012-01-22T09:15:58Z</time>
      </trkpt>
      <trkpt lat="47.2802" lon="4.97658">
        <ele>330</ele>
        <time>2012-01-22T09:16:09Z</time>
      </trkpt>
      <trkpt lat="47.28023" lon="4.97638">
        <ele>338</ele>
        <time>2012-01-22T09:16:17Z</time>
      </trkpt>
      <trkpt lat="47.28027" lon="4.97615">
        <ele>341</ele>
        <time>2012-01-22T09:16:24Z</time>
      </trkpt>
      <trkpt lat="47.2803" lon="4.97592">
        <ele>344</ele>
        <time>2012-01-22T09:16:32Z</time>
      </trkpt>
      <trkpt lat="47.28035" lon="4.97567">
        <ele>343</ele>
        <time>2012-01-22T09:16:40Z</time>
      </trkpt>
      <trkpt lat="47.28038" lon="4.97543">
        <ele>341</ele>
        <time>2012-01-22T09:16:49Z</time>
      </trkpt>
      <trkpt lat="47.28043" lon="4.97505">
        <ele>344</ele>
        <time>2012-01-22T09:17:01Z</time>
      </trkpt>
      <trkpt lat="47.28045" lon="4.97478">
        <ele>345</ele>
        <time>2012-01-22T09:17:10Z</time>
      </trkpt>
      <trkpt lat="47.2805" lon="4.97452">
        <ele>348</ele>
        <time>2012-01-22T09:17:20Z</time>
      </trkpt>
      <trkpt lat="47.28055" lon="4.9743">
        <ele>352</ele>
        <time>2012-01-22T09:17:28Z</time>
      </trkpt>
      <trkpt lat="47.28057" lon="4.97407">
        <ele>352</ele>
        <time>2012-01-22T09:17:37Z</time>
      </trkpt>
      <trkpt lat="47.2806" lon="4.97383">
        <ele>350</ele>
        <time>2012-01-22T09:17:45Z</time>
      </trkpt>
      <trkpt lat="47.28065" lon="4.97363">
        <ele>350</ele>
        <time>2012-01-22T09:17:52Z</time>
      </trkpt>
      <trkpt lat="47.28068" lon="4.97338">
        <ele>349</ele>
        <time>2012-01-22T09:18:00Z</time>
      </trkpt>
      <trkpt lat="47.2807" lon="4.97315">
        <ele>350</ele>
        <time>2012-01-22T09:18:09Z</time>
      </trkpt>
      <trkpt lat="47.28073" lon="4.97293">
        <ele>354</ele>
        <time>2012-01-22T09:18:17Z</time>
      </trkpt>
      <trkpt lat="47.28077" lon="4.9727">
        <ele>356</ele>
        <time>2012-01-22T09:18:25Z</time>
      </trkpt>
      <trkpt lat="47.28078" lon="4.97248">
        <ele>353</ele>
        <time>2012-01-22T09:18:32Z</time>
      </trkpt>
      <trkpt lat="47.28082" lon="4.97225">
        <ele>353</ele>
        <time>2012-01-22T09:18:40Z</time>
      </trkpt>
      <trkpt lat="47.28083" lon="4.97205">
        <ele>356</ele>
        <time>2012-01-22T09:18:46Z</time>
      </trkpt>
      <trkpt lat="47.28088" lon="4.9718">
        <ele>358</ele>
        <time>2012-01-22T09:18:55Z</time>
      </trkpt>
      <trkpt lat="47.28092" lon="4.97152">
        <ele>360</ele>
        <time>2012-01-22T09:19:03Z</time>
      </trkpt>
      <trkpt lat="47.28095" lon="4.9713">
        <ele>363</ele>
        <time>2012-01-22T09:19:09Z</time>
      </trkpt>
      <trkpt lat="47.28098" lon="4.97108">
        <ele>366</ele>
        <time>2012-01-22T09:19:18Z</time>
      </trkpt>
      <trkpt lat="47.281" lon="4.97085">
        <ele>366</ele>
        <time>2012-01-22T09:19:26Z</time>
      </trkpt>
      <trkpt lat="47.28103" lon="4.97065">
        <ele>365</ele>
        <time>2012-01-22T09:19:32Z</time>
      </trkpt>
      <trkpt lat="47.28105" lon="4.97043">
        <ele>372</ele>
        <time>2012-01-22T09:19:41Z</time>
      </trkpt>
      <trkpt lat="47.28105" lon="4.9702">
        <ele>371</ele>
        <time>2012-01-22T09:20:48Z</time>
      </trkpt>
      <trkpt lat="47.28113" lon="4.97002">
        <ele>373</ele>
        <time>2012-01-22T09:20:54Z</time>
      </trkpt>
      <trkpt lat="47.2812" lon="4.96983">
        <ele>373</ele>
        <time>2012-01-22T09:20:59Z</time>
      </trkpt>
      <trkpt lat="47.28125" lon="4.96963">
        <ele>375</ele>
        <time>2012-01-22T09:21:03Z</time>
      </trkpt>
      <trkpt lat="47.28132" lon="4.96935">
        <ele>376</ele>
        <time>2012-01-22T09:21:09Z</time>
      </trkpt>
      <trkpt lat="47.28137" lon="4.9691">
        <ele>381</ele>
        <time>2012-01-22T09:21:15Z</time>
      </trkpt>
      <trkpt lat="47.28145" lon="4.96863">
        <ele>384</ele>
        <time>2012-01-22T09:21:32Z</time>
      </trkpt>
      <trkpt lat="47.28153" lon="4.96832">
        <ele>386</ele>
        <time>2012-01-22T09:21:43Z</time>
      </trkpt>
      <trkpt lat="47.28157" lon="4.9681">
        <ele>386</ele>
        <time>2012-01-22T09:21:51Z</time>
      </trkpt>
      <trkpt lat="47.28158" lon="4.9679">
        <ele>385</ele>
        <time>2012-01-22T09:21:58Z</time>
      </trkpt>
      <trkpt lat="47.28162" lon="4.9677">
        <ele>386</ele>
        <time>2012-01-22T09:22:06Z</time>
      </trkpt>
      <trkpt lat="47.28168" lon="4.96742">
        <ele>382</ele>
        <time>2012-01-22T09:22:16Z</time>
      </trkpt>
      <trkpt lat="47.28175" lon="4.96717">
        <ele>382</ele>
        <time>2012-01-22T09:22:27Z</time>
      </trkpt>
      <trkpt lat="47.28177" lon="4.96693">
        <ele>384</ele>
        <time>2012-01-22T09:22:35Z</time>
      </trkpt>
      <trkpt lat="47.28163" lon="4.9669">
        <ele>386</ele>
        <time>2012-01-22T09:22:48Z</time>
      </trkpt>
      <trkpt lat="47.28153" lon="4.96705">
        <ele>390</ele>
        <time>2012-01-22T09:22:56Z</time>
      </trkpt>
      <trkpt lat="47.28147" lon="4.96727">
        <ele>400</ele>
        <time>2012-01-22T09:23:07Z</time>
      </trkpt>
      <trkpt lat="47.28138" lon="4.96747">
        <ele>403</ele>
        <time>2012-01-22T09:23:15Z</time>
      </trkpt>
      <trkpt lat="47.28125" lon="4.96787">
        <ele>401</ele>
        <time>2012-01-22T09:23:32Z</time>
      </trkpt>
      <trkpt lat="47.28115" lon="4.96808">
        <ele>399</ele>
        <time>2012-01-22T09:23:41Z</time>
      </trkpt>
      <trkpt lat="47.28107" lon="4.96828">
        <ele>402</ele>
        <time>2012-01-22T09:23:51Z</time>
      </trkpt>
      <trkpt lat="47.28098" lon="4.96848">
        <ele>405</ele>
        <time>2012-01-22T09:24:00Z</time>
      </trkpt>
      <trkpt lat="47.28088" lon="4.96868">
        <ele>404</ele>
        <time>2012-01-22T09:24:08Z</time>
      </trkpt>
      <trkpt lat="47.2808" lon="4.96888">
        <ele>403</ele>
        <time>2012-01-22T09:24:16Z</time>
      </trkpt>
      <trkpt lat="47.28073" lon="4.96908">
        <ele>404</ele>
        <time>2012-01-22T09:24:25Z</time>
      </trkpt>
      <trkpt lat="47.28062" lon="4.96918">
        <ele>401</ele>
        <time>2012-01-22T09:24:31Z</time>
      </trkpt>
      <trkpt lat="47.2805" lon="4.96928">
        <ele>401</ele>
        <time>2012-01-22T09:24:37Z</time>
      </trkpt>
      <trkpt lat="47.28035" lon="4.96937">
        <ele>406</ele>
        <time>2012-01-22T09:24:46Z</time>
      </trkpt>
      <trkpt lat="47.28023" lon="4.96947">
        <ele>413</ele>
        <time>2012-01-22T09:24:56Z</time>
      </trkpt>
      <trkpt lat="47.28007" lon="4.96958">
        <ele>409</ele>
        <time>2012-01-22T09:25:06Z</time>
      </trkpt>
      <trkpt lat="47.27997" lon="4.96972">
        <ele>408</ele>
        <time>2012-01-22T09:25:13Z</time>
      </trkpt>
      <trkpt lat="47.27985" lon="4.96983">
        <ele>411</ele>
        <time>2012-01-22T09:25:19Z</time>
      </trkpt>
      <trkpt lat="47.27983" lon="4.97005">
        <ele>415</ele>
        <time>2012-01-22T09:25:27Z</time>
      </trkpt>
      <trkpt lat="47.27978" lon="4.97025">
        <ele>417</ele>
        <time>2012-01-22T09:25:34Z</time>
      </trkpt>
      <trkpt lat="47.27975" lon="4.97048">
        <ele>419</ele>
        <time>2012-01-22T09:25:42Z</time>
      </trkpt>
      <trkpt lat="47.2797" lon="4.97073">
        <ele>415</ele>
        <time>2012-01-22T09:25:50Z</time>
      </trkpt>
      <trkpt lat="47.27963" lon="4.97095">
        <ele>413</ele>
        <time>2012-01-22T09:25:59Z</time>
      </trkpt>
      <trkpt lat="47.27955" lon="4.9712">
        <ele>410</ele>
        <time>2012-01-22T09:26:09Z</time>
      </trkpt>
      <trkpt lat="47.27945" lon="4.97145">
        <ele>410</ele>
        <time>2012-01-22T09:26:17Z</time>
      </trkpt>
      <trkpt lat="47.27935" lon="4.97163">
        <ele>410</ele>
        <time>2012-01-22T09:26:26Z</time>
      </trkpt>
      <trkpt lat="47.27925" lon="4.97187">
        <ele>410</ele>
        <time>2012-01-22T09:26:36Z</time>
      </trkpt>
      <trkpt lat="47.27915" lon="4.972">
        <ele>410</ele>
        <time>2012-01-22T09:26:43Z</time>
      </trkpt>
      <trkpt lat="47.27903" lon="4.97217">
        <ele>410</ele>
        <time>2012-01-22T09:26:51Z</time>
      </trkpt>
      <trkpt lat="47.27888" lon="4.9723">
        <ele>410</ele>
        <time>2012-01-22T09:26:59Z</time>
      </trkpt>
      <trkpt lat="47.27872" lon="4.97243">
        <ele>410</ele>
        <time>2012-01-22T09:27:08Z</time>
      </trkpt>
      <trkpt lat="47.2786" lon="4.97253">
        <ele>410</ele>
        <time>2012-01-22T09:27:14Z</time>
      </trkpt>
      <trkpt lat="47.27843" lon="4.97265">
        <ele>410</ele>
        <time>2012-01-22T09:27:22Z</time>
      </trkpt>
      <trkpt lat="47.2783" lon="4.97272">
        <ele>410</ele>
        <time>2012-01-22T09:27:29Z</time>
      </trkpt>
      <trkpt lat="47.27815" lon="4.97273">
        <ele>413</ele>
        <time>2012-01-22T09:27:41Z</time>
      </trkpt>
      <trkpt lat="47.27798" lon="4.97275">
        <ele>409</ele>
        <time>2012-01-22T09:29:07Z</time>
      </trkpt>
      <trkpt lat="47.27785" lon="4.97272">
        <ele>411</ele>
        <time>2012-01-22T09:29:13Z</time>
      </trkpt>
      <trkpt lat="47.2777" lon="4.97263">
        <ele>415</ele>
        <time>2012-01-22T09:29:21Z</time>
      </trkpt>
      <trkpt lat="47.27758" lon="4.97248">
        <ele>417</ele>
        <time>2012-01-22T09:29:27Z</time>
      </trkpt>
      <trkpt lat="47.27742" lon="4.97227">
        <ele>422</ele>
        <time>2012-01-22T09:29:40Z</time>
      </trkpt>
      <trkpt lat="47.27732" lon="4.97208">
        <ele>423</ele>
        <time>2012-01-22T09:29:48Z</time>
      </trkpt>
      <trkpt lat="47.27728" lon="4.97188">
        <ele>422</ele>
        <time>2012-01-22T09:29:55Z</time>
      </trkpt>
      <trkpt lat="47.27735" lon="4.97167">
        <ele>423</ele>
        <time>2012-01-22T09:30:03Z</time>
      </trkpt>
      <trkpt lat="47.27748" lon="4.97148">
        <ele>424</ele>
        <time>2012-01-22T09:30:11Z</time>
      </trkpt>
      <trkpt lat="47.2776" lon="4.97133">
        <ele>425</ele>
        <time>2012-01-22T09:30:20Z</time>
      </trkpt>
      <trkpt lat="47.27787" lon="4.97097">
        <ele>431</ele>
        <time>2012-01-22T09:30:37Z</time>
      </trkpt>
      <trkpt lat="47.27797" lon="4.97077">
        <ele>434</ele>
        <time>2012-01-22T09:30:45Z</time>
      </trkpt>
      <trkpt lat="47.27805" lon="4.9705">
        <ele>434</ele>
        <time>2012-01-22T09:30:53Z</time>
      </trkpt>
      <trkpt lat="47.27808" lon="4.9703">
        <ele>432</ele>
        <time>2012-01-22T09:31:00Z</time>
      </trkpt>
      <trkpt lat="47.27813" lon="4.97005">
        <ele>432</ele>
        <time>2012-01-22T09:31:08Z</time>
      </trkpt>
      <trkpt lat="47.2783" lon="4.96922">
        <ele>434</ele>
        <time>2012-01-22T09:31:33Z</time>
      </trkpt>
      <trkpt lat="47.27838" lon="4.96887">
        <ele>437</ele>
        <time>2012-01-22T09:31:46Z</time>
      </trkpt>
      <trkpt lat="47.27843" lon="4.96862">
        <ele>438</ele>
        <time>2012-01-22T09:31:52Z</time>
      </trkpt>
      <trkpt lat="47.27845" lon="4.9684">
        <ele>439</ele>
        <time>2012-01-22T09:31:59Z</time>
      </trkpt>
      <trkpt lat="47.27838" lon="4.96817">
        <ele>443</ele>
        <time>2012-01-22T09:32:07Z</time>
      </trkpt>
      <trkpt lat="47.27825" lon="4.96803">
        <ele>447</ele>
        <time>2012-01-22T09:32:14Z</time>
      </trkpt>
      <trkpt lat="47.2781" lon="4.96792">
        <ele>454</ele>
        <time>2012-01-22T09:32:22Z</time>
      </trkpt>
      <trkpt lat="47.27788" lon="4.96778">
        <ele>458</ele>
        <time>2012-01-22T09:32:32Z</time>
      </trkpt>
      <trkpt lat="47.27748" lon="4.96755">
        <ele>460</ele>
        <time>2012-01-22T09:32:54Z</time>
      </trkpt>
      <trkpt lat="47.27727" lon="4.96743">
        <ele>460</ele>
        <time>2012-01-22T09:33:04Z</time>
      </trkpt>
      <trkpt lat="47.2771" lon="4.96733">
        <ele>460</ele>
        <time>2012-01-22T09:33:13Z</time>
      </trkpt>
      <trkpt lat="47.2769" lon="4.9672">
        <ele>464</ele>
        <time>2012-01-22T09:33:23Z</time>
      </trkpt>
      <trkpt lat="47.27675" lon="4.96705">
        <ele>465</ele>
        <time>2012-01-22T09:33:29Z</time>
      </trkpt>
      <trkpt lat="47.27662" lon="4.9669">
        <ele>465</ele>
        <time>2012-01-22T09:33:36Z</time>
      </trkpt>
      <trkpt lat="47.27652" lon="4.9667">
        <ele>464</ele>
        <time>2012-01-22T09:33:42Z</time>
      </trkpt>
      <trkpt lat="47.27643" lon="4.96648">
        <ele>463</ele>
        <time>2012-01-22T09:33:48Z</time>
      </trkpt>
      <trkpt lat="47.27638" lon="4.96627">
        <ele>465</ele>
        <time>2012-01-22T09:33:55Z</time>
      </trkpt>
      <trkpt lat="47.2763" lon="4.96598">
        <ele>466</ele>
        <time>2012-01-22T09:34:03Z</time>
      </trkpt>
      <trkpt lat="47.27623" lon="4.96573">
        <ele>465</ele>
        <time>2012-01-22T09:34:09Z</time>
      </trkpt>
      <trkpt lat="47.27602" lon="4.96483">
        <ele>459</ele>
        <time>2012-01-22T09:34:35Z</time>
      </trkpt>
      <trkpt lat="47.27578" lon="4.96387">
        <ele>477</ele>
        <time>2012-01-22T09:35:04Z</time>
      </trkpt>
      <trkpt lat="47.27573" lon="4.96353">
        <ele>477</ele>
        <time>2012-01-22T09:35:13Z</time>
      </trkpt>
      <trkpt lat="47.27572" lon="4.9633">
        <ele>478</ele>
        <time>2012-01-22T09:35:19Z</time>
      </trkpt>
      <trkpt lat="47.27572" lon="4.96307">
        <ele>477</ele>
        <time>2012-01-22T09:35:25Z</time>
      </trkpt>
      <trkpt lat="47.27573" lon="4.96282">
        <ele>477</ele>
        <time>2012-01-22T09:35:32Z</time>
      </trkpt>
      <trkpt lat="47.2757" lon="4.96262">
        <ele>478</ele>
        <time>2012-01-22T09:35:40Z</time>
      </trkpt>
      <trkpt lat="47.2756" lon="4.96248">
        <ele>480</ele>
        <time>2012-01-22T09:36:01Z</time>
      </trkpt>
      <trkpt lat="47.2756" lon="4.96228">
        <ele>469</ele>
        <time>2012-01-22T09:40:42Z</time>
      </trkpt>
      <trkpt lat="47.27555" lon="4.96248">
        <ele>470</ele>
        <time>2012-01-22T09:42:01Z</time>
      </trkpt>
      <trkpt lat="47.27548" lon="4.9623">
        <ele>475</ele>
        <time>2012-01-22T09:42:24Z</time>
      </trkpt>
      <trkpt lat="47.27532" lon="4.96228">
        <ele>490</ele>
        <time>2012-01-22T09:45:08Z</time>
      </trkpt>
      <trkpt lat="47.27512" lon="4.96223">
        <ele>489</ele>
        <time>2012-01-22T09:45:16Z</time>
      </trkpt>
      <trkpt lat="47.27497" lon="4.96213">
        <ele>484</ele>
        <time>2012-01-22T09:45:22Z</time>
      </trkpt>
      <trkpt lat="47.2747" lon="4.962">
        <ele>478</ele>
        <time>2012-01-22T09:45:29Z</time>
      </trkpt>
      <trkpt lat="47.27452" lon="4.96192">
        <ele>475</ele>
        <time>2012-01-22T09:45:33Z</time>
      </trkpt>
      <trkpt lat="47.27418" lon="4.96172">
        <ele>468</ele>
        <time>2012-01-22T09:45:41Z</time>
      </trkpt>
      <trkpt lat="47.27392" lon="4.96157">
        <ele>463</ele>
        <time>2012-01-22T09:45:47Z</time>
      </trkpt>
      <trkpt lat="47.27338" lon="4.96122">
        <ele>460</ele>
        <time>2012-01-22T09:46:00Z</time>
      </trkpt>
      <trkpt lat="47.27298" lon="4.96098">
        <ele>459</ele>
        <time>2012-01-22T09:46:10Z</time>
      </trkpt>
      <trkpt lat="47.27262" lon="4.96078">
        <ele>457</ele>
        <time>2012-01-22T09:46:21Z</time>
      </trkpt>
      <trkpt lat="47.2724" lon="4.96072">
        <ele>455</ele>
        <time>2012-01-22T09:46:29Z</time>
      </trkpt>
      <trkpt lat="47.27237" lon="4.96092">
        <ele>456</ele>
        <time>2012-01-22T09:46:35Z</time>
      </trkpt>
      <trkpt lat="47.27228" lon="4.96108">
        <ele>460</ele>
        <time>2012-01-22T09:46:46Z</time>
      </trkpt>
      <trkpt lat="47.27218" lon="4.96122">
        <ele>464</ele>
        <time>2012-01-22T09:46:54Z</time>
      </trkpt>
      <trkpt lat="47.27208" lon="4.96138">
        <ele>461</ele>
        <time>2012-01-22T09:47:17Z</time>
      </trkpt>
      <trkpt lat="47.27198" lon="4.96158">
        <ele>460</ele>
        <time>2012-01-22T09:47:26Z</time>
      </trkpt>
      <trkpt lat="47.27193" lon="4.9618">
        <ele>461</ele>
        <time>2012-01-22T09:47:32Z</time>
      </trkpt>
      <trkpt lat="47.27183" lon="4.96195">
        <ele>461</ele>
        <time>2012-01-22T09:47:40Z</time>
      </trkpt>
      <trkpt lat="47.27172" lon="4.96213">
        <ele>459</ele>
        <time>2012-01-22T09:47:46Z</time>
      </trkpt>
      <trkpt lat="47.27158" lon="4.9623">
        <ele>459</ele>
        <time>2012-01-22T09:47:53Z</time>
      </trkpt>
      <trkpt lat="47.2715" lon="4.96247">
        <ele>460</ele>
        <time>2012-01-22T09:47:57Z</time>
      </trkpt>
      <trkpt lat="47.27135" lon="4.96272">
        <ele>459</ele>
        <time>2012-01-22T09:48:03Z</time>
      </trkpt>
      <trkpt lat="47.27125" lon="4.96293">
        <ele>459</ele>
        <time>2012-01-22T09:48:08Z</time>
      </trkpt>
      <trkpt lat="47.27113" lon="4.96317">
        <ele>460</ele>
        <time>2012-01-22T09:48:14Z</time>
      </trkpt>
      <trkpt lat="47.27102" lon="4.96333">
        <ele>461</ele>
        <time>2012-01-22T09:48:20Z</time>
      </trkpt>
      <trkpt lat="47.27092" lon="4.96348">
        <ele>462</ele>
        <time>2012-01-22T09:48:26Z</time>
      </trkpt>
      <trkpt lat="47.27075" lon="4.9635">
        <ele>462</ele>
        <time>2012-01-22T09:48:37Z</time>
      </trkpt>
      <trkpt lat="47.27048" lon="4.96355">
        <ele>462</ele>
        <time>2012-01-22T09:48:47Z</time>
      </trkpt>
      <trkpt lat="47.27035" lon="4.96365">
        <ele>460</ele>
        <time>2012-01-22T09:48:54Z</time>
      </trkpt>
      <trkpt lat="47.27018" lon="4.9637">
        <ele>458</ele>
        <time>2012-01-22T09:49:00Z</time>
      </trkpt>
      <trkpt lat="47.26997" lon="4.96373">
        <ele>456</ele>
        <time>2012-01-22T09:49:08Z</time>
      </trkpt>
      <trkpt lat="47.26978" lon="4.96378">
        <ele>456</ele>
        <time>2012-01-22T09:49:15Z</time>
      </trkpt>
      <trkpt lat="47.26962" lon="4.96388">
        <ele>457</ele>
        <time>2012-01-22T09:49:23Z</time>
      </trkpt>
      <trkpt lat="47.26938" lon="4.96407">
        <ele>455</ele>
        <time>2012-01-22T09:49:33Z</time>
      </trkpt>
      <trkpt lat="47.26917" lon="4.96408">
        <ele>453</ele>
        <time>2012-01-22T09:49:40Z</time>
      </trkpt>
      <trkpt lat="47.26902" lon="4.96412">
        <ele>452</ele>
        <time>2012-01-22T09:49:44Z</time>
      </trkpt>
      <trkpt lat="47.26878" lon="4.96415">
        <ele>449</ele>
        <time>2012-01-22T09:49:52Z</time>
      </trkpt>
      <trkpt lat="47.26858" lon="4.96418">
        <ele>449</ele>
        <time>2012-01-22T09:49:59Z</time>
      </trkpt>
      <trkpt lat="47.26842" lon="4.96413">
        <ele>449</ele>
        <time>2012-01-22T09:50:05Z</time>
      </trkpt>
      <trkpt lat="47.26822" lon="4.9641">
        <ele>448</ele>
        <time>2012-01-22T09:50:11Z</time>
      </trkpt>
      <trkpt lat="47.26807" lon="4.96408">
        <ele>448</ele>
        <time>2012-01-22T09:50:15Z</time>
      </trkpt>
      <trkpt lat="47.26792" lon="4.9641">
        <ele>448</ele>
        <time>2012-01-22T09:50:19Z</time>
      </trkpt>
      <trkpt lat="47.26777" lon="4.96418">
        <ele>450</ele>
        <time>2012-01-22T09:50:26Z</time>
      </trkpt>
      <trkpt lat="47.26762" lon="4.96423">
        <ele>453</ele>
        <time>2012-01-22T09:50:34Z</time>
      </trkpt>
      <trkpt lat="47.26745" lon="4.96432">
        <ele>458</ele>
        <time>2012-01-22T09:50:42Z</time>
      </trkpt>
      <trkpt lat="47.26727" lon="4.96433">
        <ele>459</ele>
        <time>2012-01-22T09:50:53Z</time>
      </trkpt>
      <trkpt lat="47.2671" lon="4.96433">
        <ele>459</ele>
        <time>2012-01-22T09:50:59Z</time>
      </trkpt>
      <trkpt lat="47.26695" lon="4.96438">
        <ele>459</ele>
        <time>2012-01-22T09:51:05Z</time>
      </trkpt>
      <trkpt lat="47.26678" lon="4.96438">
        <ele>454</ele>
        <time>2012-01-22T09:51:14Z</time>
      </trkpt>
      <trkpt lat="47.26658" lon="4.96428">
        <ele>453</ele>
        <time>2012-01-22T09:51:24Z</time>
      </trkpt>
      <trkpt lat="47.26642" lon="4.9642">
        <ele>451</ele>
        <time>2012-01-22T09:51:31Z</time>
      </trkpt>
      <trkpt lat="47.26628" lon="4.96428">
        <ele>450</ele>
        <time>2012-01-22T09:51:37Z</time>
      </trkpt>
      <trkpt lat="47.26612" lon="4.96425">
        <ele>450</ele>
        <time>2012-01-22T09:51:43Z</time>
      </trkpt>
      <trkpt lat="47.26597" lon="4.96413">
        <ele>450</ele>
        <time>2012-01-22T09:51:49Z</time>
      </trkpt>
      <trkpt lat="47.26585" lon="4.96398">
        <ele>450</ele>
        <time>2012-01-22T09:51:54Z</time>
      </trkpt>
      <trkpt lat="47.26572" lon="4.96378">
        <ele>451</ele>
        <time>2012-01-22T09:52:00Z</time>
      </trkpt>
      <trkpt lat="47.26557" lon="4.96365">
        <ele>450</ele>
        <time>2012-01-22T09:52:08Z</time>
      </trkpt>
      <trkpt lat="47.2654" lon="4.96355">
        <ele>450</ele>
        <time>2012-01-22T09:52:19Z</time>
      </trkpt>
      <trkpt lat="47.26525" lon="4.96343">
        <ele>450</ele>
        <time>2012-01-22T09:52:27Z</time>
      </trkpt>
      <trkpt lat="47.26508" lon="4.96333">
        <ele>449</ele>
        <time>2012-01-22T09:52:34Z</time>
      </trkpt>
      <trkpt lat="47.26495" lon="4.96327">
        <ele>449</ele>
        <time>2012-01-22T09:52:40Z</time>
      </trkpt>
      <trkpt lat="47.26485" lon="4.96313">
        <ele>450</ele>
        <time>2012-01-22T09:52:46Z</time>
      </trkpt>
      <trkpt lat="47.26473" lon="4.96303">
        <ele>450</ele>
        <time>2012-01-22T09:52:53Z</time>
      </trkpt>
      <trkpt lat="47.26463" lon="4.9629">
        <ele>451</ele>
        <time>2012-01-22T09:53:01Z</time>
      </trkpt>
      <trkpt lat="47.26467" lon="4.96267">
        <ele>448</ele>
        <time>2012-01-22T09:54:04Z</time>
      </trkpt>
      <trkpt lat="47.26468" lon="4.96242">
        <ele>448</ele>
        <time>2012-01-22T09:54:11Z</time>
      </trkpt>
      <trkpt lat="47.2647" lon="4.96217">
        <ele>449</ele>
        <time>2012-01-22T09:54:17Z</time>
      </trkpt>
      <trkpt lat="47.2647" lon="4.96185">
        <ele>450</ele>
        <time>2012-01-22T09:54:25Z</time>
      </trkpt>
      <trkpt lat="47.26467" lon="4.96158">
        <ele>452</ele>
        <time>2012-01-22T09:54:31Z</time>
      </trkpt>
      <trkpt lat="47.2646" lon="4.96125">
        <ele>452</ele>
        <time>2012-01-22T09:54:40Z</time>
      </trkpt>
      <trkpt lat="47.26455" lon="4.96102">
        <ele>452</ele>
        <time>2012-01-22T09:54:46Z</time>
      </trkpt>
      <trkpt lat="47.26443" lon="4.96083">
        <ele>451</ele>
        <time>2012-01-22T09:54:52Z</time>
      </trkpt>
      <trkpt lat="47.26435" lon="4.96058">
        <ele>452</ele>
        <time>2012-01-22T09:54:59Z</time>
      </trkpt>
      <trkpt lat="47.26423" lon="4.96038">
        <ele>452</ele>
        <time>2012-01-22T09:55:05Z</time>
      </trkpt>
      <trkpt lat="47.2642" lon="4.96018">
        <ele>454</ele>
        <time>2012-01-22T09:55:11Z</time>
      </trkpt>
      <trkpt lat="47.2641" lon="4.96002">
        <ele>457</ele>
        <time>2012-01-22T09:55:20Z</time>
      </trkpt>
      <trkpt lat="47.26395" lon="4.96007">
        <ele>460</ele>
        <time>2012-01-22T09:55:28Z</time>
      </trkpt>
      <trkpt lat="47.26382" lon="4.96017">
        <ele>463</ele>
        <time>2012-01-22T09:55:34Z</time>
      </trkpt>
      <trkpt lat="47.26373" lon="4.96035">
        <ele>464</ele>
        <time>2012-01-22T09:55:41Z</time>
      </trkpt>
      <trkpt lat="47.2636" lon="4.96048">
        <ele>464</ele>
        <time>2012-01-22T09:55:47Z</time>
      </trkpt>
      <trkpt lat="47.26347" lon="4.96042">
        <ele>463</ele>
        <time>2012-01-22T09:55:53Z</time>
      </trkpt>
      <trkpt lat="47.2633" lon="4.9603">
        <ele>462</ele>
        <time>2012-01-22T09:56:00Z</time>
      </trkpt>
      <trkpt lat="47.26317" lon="4.96023">
        <ele>463</ele>
        <time>2012-01-22T09:56:06Z</time>
      </trkpt>
      <trkpt lat="47.26295" lon="4.96017">
        <ele>463</ele>
        <time>2012-01-22T09:56:14Z</time>
      </trkpt>
      <trkpt lat="47.26277" lon="4.9601">
        <ele>463</ele>
        <time>2012-01-22T09:56:20Z</time>
      </trkpt>
      <trkpt lat="47.26263" lon="4.96002">
        <ele>463</ele>
        <time>2012-01-22T09:56:27Z</time>
      </trkpt>
      <trkpt lat="47.26252" lon="4.95992">
        <ele>463</ele>
        <time>2012-01-22T09:56:33Z</time>
      </trkpt>
      <trkpt lat="47.26233" lon="4.95988">
        <ele>463</ele>
        <time>2012-01-22T09:56:39Z</time>
      </trkpt>
      <trkpt lat="47.26213" lon="4.95993">
        <ele>462</ele>
        <time>2012-01-22T09:56:46Z</time>
      </trkpt>
      <trkpt lat="47.26197" lon="4.96002">
        <ele>462</ele>
        <time>2012-01-22T09:56:50Z</time>
      </trkpt>
      <trkpt lat="47.26162" lon="4.96017">
        <ele>460</ele>
        <time>2012-01-22T09:56:58Z</time>
      </trkpt>
      <trkpt lat="47.2614" lon="4.96022">
        <ele>462</ele>
        <time>2012-01-22T09:57:02Z</time>
      </trkpt>
      <trkpt lat="47.26122" lon="4.96027">
        <ele>462</ele>
        <time>2012-01-22T09:57:07Z</time>
      </trkpt>
      <trkpt lat="47.26108" lon="4.96038">
        <ele>464</ele>
        <time>2012-01-22T09:57:13Z</time>
      </trkpt>
      <trkpt lat="47.26093" lon="4.96053">
        <ele>463</ele>
        <time>2012-01-22T09:57:19Z</time>
      </trkpt>
      <trkpt lat="47.26082" lon="4.96072">
        <ele>464</ele>
        <time>2012-01-22T09:57:25Z</time>
      </trkpt>
      <trkpt lat="47.26073" lon="4.96093">
        <ele>464</ele>
        <time>2012-01-22T09:57:32Z</time>
      </trkpt>
      <trkpt lat="47.26063" lon="4.96125">
        <ele>462</ele>
        <time>2012-01-22T09:57:40Z</time>
      </trkpt>
      <trkpt lat="47.26053" lon="4.96145">
        <ele>462</ele>
        <time>2012-01-22T09:57:46Z</time>
      </trkpt>
      <trkpt lat="47.26043" lon="4.9613">
        <ele>461</ele>
        <time>2012-01-22T09:57:55Z</time>
      </trkpt>
      <trkpt lat="47.26045" lon="4.96107">
        <ele>461</ele>
        <time>2012-01-22T09:58:01Z</time>
      </trkpt>
      <trkpt lat="47.26048" lon="4.96053">
        <ele>463</ele>
        <time>2012-01-22T09:58:09Z</time>
      </trkpt>
      <trkpt lat="47.26048" lon="4.96032">
        <ele>463</ele>
        <time>2012-01-22T09:58:11Z</time>
      </trkpt>
      <trkpt lat="47.26048" lon="4.96007">
        <ele>464</ele>
        <time>2012-01-22T09:58:16Z</time>
      </trkpt>
      <trkpt lat="47.2605" lon="4.9598">
        <ele>468</ele>
        <time>2012-01-22T09:58:22Z</time>
      </trkpt>
      <trkpt lat="47.26055" lon="4.95953">
        <ele>470</ele>
        <time>2012-01-22T09:58:30Z</time>
      </trkpt>
      <trkpt lat="47.26053" lon="4.95927">
        <ele>472</ele>
        <time>2012-01-22T09:58:37Z</time>
      </trkpt>
      <trkpt lat="47.26055" lon="4.95903">
        <ele>472</ele>
        <time>2012-01-22T09:58:43Z</time>
      </trkpt>
      <trkpt lat="47.2606" lon="4.95852">
        <ele>472</ele>
        <time>2012-01-22T09:58:55Z</time>
      </trkpt>
      <trkpt lat="47.26063" lon="4.95828">
        <ele>473</ele>
        <time>2012-01-22T09:59:02Z</time>
      </trkpt>
      <trkpt lat="47.26068" lon="4.95807">
        <ele>473</ele>
        <time>2012-01-22T09:59:08Z</time>
      </trkpt>
      <trkpt lat="47.26077" lon="4.95775">
        <ele>472</ele>
        <time>2012-01-22T09:59:16Z</time>
      </trkpt>
      <trkpt lat="47.26077" lon="4.95755">
        <ele>473</ele>
        <time>2012-01-22T09:59:23Z</time>
      </trkpt>
      <trkpt lat="47.26077" lon="4.9573">
        <ele>473</ele>
        <time>2012-01-22T09:59:29Z</time>
      </trkpt>
      <trkpt lat="47.26078" lon="4.95707">
        <ele>472</ele>
        <time>2012-01-22T09:59:35Z</time>
      </trkpt>
      <trkpt lat="47.2608" lon="4.95682">
        <ele>473</ele>
        <time>2012-01-22T09:59:44Z</time>
      </trkpt>
      <trkpt lat="47.26082" lon="4.95662">
        <ele>473</ele>
        <time>2012-01-22T09:59:50Z</time>
      </trkpt>
      <trkpt lat="47.26083" lon="4.9564">
        <ele>472</ele>
        <time>2012-01-22T09:59:56Z</time>
      </trkpt>
      <trkpt lat="47.26083" lon="4.95617">
        <ele>471</ele>
        <time>2012-01-22T10:00:02Z</time>
      </trkpt>
      <trkpt lat="47.26083" lon="4.95595">
        <ele>470</ele>
        <time>2012-01-22T10:00:09Z</time>
      </trkpt>
      <trkpt lat="47.26078" lon="4.95573">
        <ele>471</ele>
        <time>2012-01-22T10:00:15Z</time>
      </trkpt>
      <trkpt lat="47.26077" lon="4.9555">
        <ele>470</ele>
        <time>2012-01-22T10:00:21Z</time>
      </trkpt>
      <trkpt lat="47.2608" lon="4.95525">
        <ele>471</ele>
        <time>2012-01-22T10:00:27Z</time>
      </trkpt>
      <trkpt lat="47.26082" lon="4.95503">
        <ele>472</ele>
        <time>2012-01-22T10:00:31Z</time>
      </trkpt>
      <trkpt lat="47.2608" lon="4.9548">
        <ele>474</ele>
        <time>2012-01-22T10:00:38Z</time>
      </trkpt>
      <trkpt lat="47.26077" lon="4.95453">
        <ele>474</ele>
        <time>2012-01-22T10:00:44Z</time>
      </trkpt>
      <trkpt lat="47.26075" lon="4.95413">
        <ele>471</ele>
        <time>2012-01-22T10:00:52Z</time>
      </trkpt>
      <trkpt lat="47.26075" lon="4.95393">
        <ele>470</ele>
        <time>2012-01-22T10:00:57Z</time>
      </trkpt>
      <trkpt lat="47.26077" lon="4.95365">
        <ele>469</ele>
        <time>2012-01-22T10:01:03Z</time>
      </trkpt>
      <trkpt lat="47.26077" lon="4.9534">
        <ele>472</ele>
        <time>2012-01-22T10:01:09Z</time>
      </trkpt>
      <trkpt lat="47.26073" lon="4.95308">
        <ele>474</ele>
        <time>2012-01-22T10:01:15Z</time>
      </trkpt>
      <trkpt lat="47.26072" lon="4.9528">
        <ele>474</ele>
        <time>2012-01-22T10:01:22Z</time>
      </trkpt>
      <trkpt lat="47.26068" lon="4.95228">
        <ele>474</ele>
        <time>2012-01-22T10:01:32Z</time>
      </trkpt>
      <trkpt lat="47.26072" lon="4.95205">
        <ele>473</ele>
        <time>2012-01-22T10:01:36Z</time>
      </trkpt>
      <trkpt lat="47.26072" lon="4.95182">
        <ele>473</ele>
        <time>2012-01-22T10:01:40Z</time>
      </trkpt>
      <trkpt lat="47.26072" lon="4.95153">
        <ele>475</ele>
        <time>2012-01-22T10:01:45Z</time>
      </trkpt>
      <trkpt lat="47.26072" lon="4.95103">
        <ele>475</ele>
        <time>2012-01-22T10:01:55Z</time>
      </trkpt>
      <trkpt lat="47.26068" lon="4.9508">
        <ele>475</ele>
        <time>2012-01-22T10:01:59Z</time>
      </trkpt>
      <trkpt lat="47.26067" lon="4.9506">
        <ele>477</ele>
        <time>2012-01-22T10:02:03Z</time>
      </trkpt>
      <trkpt lat="47.26063" lon="4.95035">
        <ele>475</ele>
        <time>2012-01-22T10:02:07Z</time>
      </trkpt>
      <trkpt lat="47.26063" lon="4.95015">
        <ele>474</ele>
        <time>2012-01-22T10:02:12Z</time>
      </trkpt>
      <trkpt lat="47.26063" lon="4.94987">
        <ele>473</ele>
        <time>2012-01-22T10:02:18Z</time>
      </trkpt>
      <trkpt lat="47.26063" lon="4.94962">
        <ele>474</ele>
        <time>2012-01-22T10:02:24Z</time>
      </trkpt>
      <trkpt lat="47.26067" lon="4.94933">
        <ele>475</ele>
        <time>2012-01-22T10:02:30Z</time>
      </trkpt>
      <trkpt lat="47.26072" lon="4.9491">
        <ele>477</ele>
        <time>2012-01-22T10:02:37Z</time>
      </trkpt>
      <trkpt lat="47.26078" lon="4.94892">
        <ele>479</ele>
        <time>2012-01-22T10:02:49Z</time>
      </trkpt>
      <trkpt lat="47.26083" lon="4.94867">
        <ele>474</ele>
        <time>2012-01-22T10:03:10Z</time>
      </trkpt>
      <trkpt lat="47.26093" lon="4.94808">
        <ele>475</ele>
        <time>2012-01-22T10:03:22Z</time>
      </trkpt>
      <trkpt lat="47.26097" lon="4.94785">
        <ele>474</ele>
        <time>2012-01-22T10:03:27Z</time>
      </trkpt>
      <trkpt lat="47.26103" lon="4.9474">
        <ele>477</ele>
        <time>2012-01-22T10:03:35Z</time>
      </trkpt>
      <trkpt lat="47.26107" lon="4.94715">
        <ele>478</ele>
        <time>2012-01-22T10:03:39Z</time>
      </trkpt>
      <trkpt lat="47.26117" lon="4.94655">
        <ele>483</ele>
        <time>2012-01-22T10:03:50Z</time>
      </trkpt>
      <trkpt lat="47.26122" lon="4.94628">
        <ele>487</ele>
        <time>2012-01-22T10:03:56Z</time>
      </trkpt>
      <trkpt lat="47.26132" lon="4.94605">
        <ele>488</ele>
        <time>2012-01-22T10:04:02Z</time>
      </trkpt>
      <trkpt lat="47.26138" lon="4.94583">
        <ele>489</ele>
        <time>2012-01-22T10:04:11Z</time>
      </trkpt>
      <trkpt lat="47.26142" lon="4.94563">
        <ele>491</ele>
        <time>2012-01-22T10:04:19Z</time>
      </trkpt>
      <trkpt lat="47.2614" lon="4.94538">
        <ele>494</ele>
        <time>2012-01-22T10:04:27Z</time>
      </trkpt>
      <trkpt lat="47.26142" lon="4.94513">
        <ele>495</ele>
        <time>2012-01-22T10:04:36Z</time>
      </trkpt>
      <trkpt lat="47.26143" lon="4.94492">
        <ele>495</ele>
        <time>2012-01-22T10:04:44Z</time>
      </trkpt>
      <trkpt lat="47.26147" lon="4.9447">
        <ele>496</ele>
        <time>2012-01-22T10:04:52Z</time>
      </trkpt>
      <trkpt lat="47.26158" lon="4.94457">
        <ele>494</ele>
        <time>2012-01-22T10:05:01Z</time>
      </trkpt>
      <trkpt lat="47.2617" lon="4.94443">
        <ele>494</ele>
        <time>2012-01-22T10:05:09Z</time>
      </trkpt>
      <trkpt lat="47.26182" lon="4.9443">
        <ele>494</ele>
        <time>2012-01-22T10:05:15Z</time>
      </trkpt>
      <trkpt lat="47.26192" lon="4.94415">
        <ele>491</ele>
        <time>2012-01-22T10:05:22Z</time>
      </trkpt>
      <trkpt lat="47.26203" lon="4.94405">
        <ele>490</ele>
        <time>2012-01-22T10:05:30Z</time>
      </trkpt>
      <trkpt lat="47.26218" lon="4.94392">
        <ele>490</ele>
        <time>2012-01-22T10:05:36Z</time>
      </trkpt>
      <trkpt lat="47.26228" lon="4.94377">
        <ele>488</ele>
        <time>2012-01-22T10:05:43Z</time>
      </trkpt>
      <trkpt lat="47.26235" lon="4.94358">
        <ele>491</ele>
        <time>2012-01-22T10:06:18Z</time>
      </trkpt>
      <trkpt lat="47.26223" lon="4.94342">
        <ele>498</ele>
        <time>2012-01-22T10:06:29Z</time>
      </trkpt>
      <trkpt lat="47.26212" lon="4.94327">
        <ele>499</ele>
        <time>2012-01-22T10:06:37Z</time>
      </trkpt>
      <trkpt lat="47.26198" lon="4.94318">
        <ele>505</ele>
        <time>2012-01-22T10:06:47Z</time>
      </trkpt>
      <trkpt lat="47.26182" lon="4.9432">
        <ele>499</ele>
        <time>2012-01-22T10:07:08Z</time>
      </trkpt>
      <trkpt lat="47.26168" lon="4.9433">
        <ele>494</ele>
        <time>2012-01-22T10:07:19Z</time>
      </trkpt>
      <trkpt lat="47.26173" lon="4.9431">
        <ele>495</ele>
        <time>2012-01-22T10:07:55Z</time>
      </trkpt>
      <trkpt lat="47.26188" lon="4.9431">
        <ele>500</ele>
        <time>2012-01-22T10:08:38Z</time>
      </trkpt>
      <trkpt lat="47.26173" lon="4.94317">
        <ele>497</ele>
        <time>2012-01-22T10:09:04Z</time>
      </trkpt>
      <trkpt lat="47.26158" lon="4.94317">
        <ele>500</ele>
        <time>2012-01-22T10:09:12Z</time>
      </trkpt>
      <trkpt lat="47.26142" lon="4.94318">
        <ele>497</ele>
        <time>2012-01-22T10:09:20Z</time>
      </trkpt>
      <trkpt lat="47.2612" lon="4.94317">
        <ele>496</ele>
        <time>2012-01-22T10:09:27Z</time>
      </trkpt>
      <trkpt lat="47.26102" lon="4.94315">
        <ele>494</ele>
        <time>2012-01-22T10:09:33Z</time>
      </trkpt>
      <trkpt lat="47.26085" lon="4.94315">
        <ele>487</ele>
        <time>2012-01-22T10:09:39Z</time>
      </trkpt>
      <trkpt lat="47.26068" lon="4.94308">
        <ele>487</ele>
        <time>2012-01-22T10:09:47Z</time>
      </trkpt>
      <trkpt lat="47.2606" lon="4.94287">
        <ele>494</ele>
        <time>2012-01-22T10:09:58Z</time>
      </trkpt>
      <trkpt lat="47.26043" lon="4.9424">
        <ele>503</ele>
        <time>2012-01-22T10:10:17Z</time>
      </trkpt>
      <trkpt lat="47.26035" lon="4.94222">
        <ele>504</ele>
        <time>2012-01-22T10:10:25Z</time>
      </trkpt>
      <trkpt lat="47.26023" lon="4.9419">
        <ele>503</ele>
        <time>2012-01-22T10:10:37Z</time>
      </trkpt>
      <trkpt lat="47.26017" lon="4.94167">
        <ele>502</ele>
        <time>2012-01-22T10:10:50Z</time>
      </trkpt>
      <trkpt lat="47.2601" lon="4.94147">
        <ele>502</ele>
        <time>2012-01-22T10:11:00Z</time>
      </trkpt>
      <trkpt lat="47.26003" lon="4.94118">
        <ele>506</ele>
        <time>2012-01-22T10:11:13Z</time>
      </trkpt>
      <trkpt lat="47.25998" lon="4.94078">
        <ele>508</ele>
        <time>2012-01-22T10:11:30Z</time>
      </trkpt>
      <trkpt lat="47.25995" lon="4.94055">
        <ele>510</ele>
        <time>2012-01-22T10:11:38Z</time>
      </trkpt>
      <trkpt lat="47.25997" lon="4.94035">
        <ele>511</ele>
        <time>2012-01-22T10:11:46Z</time>
      </trkpt>
      <trkpt lat="47.26" lon="4.94012">
        <ele>514</ele>
        <time>2012-01-22T10:11:57Z</time>
      </trkpt>
      <trkpt lat="47.26005" lon="4.93988">
        <ele>516</ele>
        <time>2012-01-22T10:12:07Z</time>
      </trkpt>
      <trkpt lat="47.26008" lon="4.93968">
        <ele>516</ele>
        <time>2012-01-22T10:12:18Z</time>
      </trkpt>
      <trkpt lat="47.26012" lon="4.93948">
        <ele>500</ele>
        <time>2012-01-22T10:12:56Z</time>
      </trkpt>
      <trkpt lat="47.26022" lon="4.93932">
        <ele>514</ele>
        <time>2012-01-22T10:13:38Z</time>
      </trkpt>
      <trkpt lat="47.26027" lon="4.93908">
        <ele>512</ele>
        <time>2012-01-22T10:13:50Z</time>
      </trkpt>
      <trkpt lat="47.26027" lon="4.93887">
        <ele>513</ele>
        <time>2012-01-22T10:14:01Z</time>
      </trkpt>
      <trkpt lat="47.2603" lon="4.93907">
        <ele>513</ele>
        <time>2012-01-22T10:14:43Z</time>
      </trkpt>
      <trkpt lat="47.26033" lon="4.93927">
        <ele>515</ele>
        <time>2012-01-22T10:14:56Z</time>
      </trkpt>
      <trkpt lat="47.26013" lon="4.93932">
        <ele>517</ele>
        <time>2012-01-22T10:15:14Z</time>
      </trkpt>
      <trkpt lat="47.25998" lon="4.93933">
        <ele>517</ele>
        <time>2012-01-22T10:15:23Z</time>
      </trkpt>
      <trkpt lat="47.25983" lon="4.93935">
        <ele>516</ele>
        <time>2012-01-22T10:15:29Z</time>
      </trkpt>
      <trkpt lat="47.25965" lon="4.93935">
        <ele>514</ele>
        <time>2012-01-22T10:15:38Z</time>
      </trkpt>
      <trkpt lat="47.2595" lon="4.93935">
        <ele>515</ele>
        <time>2012-01-22T10:15:48Z</time>
      </trkpt>
      <trkpt lat="47.25933" lon="4.93932">
        <ele>519</ele>
        <time>2012-01-22T10:15:58Z</time>
      </trkpt>
      <trkpt lat="47.25918" lon="4.93933">
        <ele>520</ele>
        <time>2012-01-22T10:16:17Z</time>
      </trkpt>
      <trkpt lat="47.25915" lon="4.93912">
        <ele>520</ele>
        <time>2012-01-22T10:16:45Z</time>
      </trkpt>
      <trkpt lat="47.25913" lon="4.93888">
        <ele>524</ele>
        <time>2012-01-22T10:16:55Z</time>
      </trkpt>
      <trkpt lat="47.25913" lon="4.93855">
        <ele>522</ele>
        <time>2012-01-22T10:17:08Z</time>
      </trkpt>
      <trkpt lat="47.25915" lon="4.9383">
        <ele>520</ele>
        <time>2012-01-22T10:17:16Z</time>
      </trkpt>
      <trkpt lat="47.25915" lon="4.93805">
        <ele>520</ele>
        <time>2012-01-22T10:17:27Z</time>
      </trkpt>
      <trkpt lat="47.25915" lon="4.93783">
        <ele>523</ele>
        <time>2012-01-22T10:17:37Z</time>
      </trkpt>
      <trkpt lat="47.25915" lon="4.93738">
        <ele>526</ele>
        <time>2012-01-22T10:17:56Z</time>
      </trkpt>
      <trkpt lat="47.25915" lon="4.93713">
        <ele>526</ele>
        <time>2012-01-22T10:18:05Z</time>
      </trkpt>
      <trkpt lat="47.25915" lon="4.93692">
        <ele>530</ele>
        <time>2012-01-22T10:18:15Z</time>
      </trkpt>
      <trkpt lat="47.25915" lon="4.93667">
        <ele>529</ele>
        <time>2012-01-22T10:18:26Z</time>
      </trkpt>
      <trkpt lat="47.25917" lon="4.93645">
        <ele>528</ele>
        <time>2012-01-22T10:18:34Z</time>
      </trkpt>
      <trkpt lat="47.25917" lon="4.93625">
        <ele>530</ele>
        <time>2012-01-22T10:18:42Z</time>
      </trkpt>
      <trkpt lat="47.25917" lon="4.93605">
        <ele>532</ele>
        <time>2012-01-22T10:18:51Z</time>
      </trkpt>
      <trkpt lat="47.25915" lon="4.93572">
        <ele>534</ele>
        <time>2012-01-22T10:19:04Z</time>
      </trkpt>
      <trkpt lat="47.25915" lon="4.9355">
        <ele>535</ele>
        <time>2012-01-22T10:19:12Z</time>
      </trkpt>
      <trkpt lat="47.25917" lon="4.93523">
        <ele>535</ele>
        <time>2012-01-22T10:19:20Z</time>
      </trkpt>
      <trkpt lat="47.25915" lon="4.93492">
        <ele>537</ele>
        <time>2012-01-22T10:19:31Z</time>
      </trkpt>
      <trkpt lat="47.25917" lon="4.93472">
        <ele>536</ele>
        <time>2012-01-22T10:19:37Z</time>
      </trkpt>
      <trkpt lat="47.25907" lon="4.93457">
        <ele>534</ele>
        <time>2012-01-22T10:19:43Z</time>
      </trkpt>
      <trkpt lat="47.25897" lon="4.93435">
        <ele>534</ele>
        <time>2012-01-22T10:19:54Z</time>
      </trkpt>
      <trkpt lat="47.25887" lon="4.93422">
        <ele>535</ele>
        <time>2012-01-22T10:20:00Z</time>
      </trkpt>
      <trkpt lat="47.25873" lon="4.934">
        <ele>536</ele>
        <time>2012-01-22T10:20:13Z</time>
      </trkpt>
      <trkpt lat="47.25857" lon="4.93382">
        <ele>533</ele>
        <time>2012-01-22T10:20:24Z</time>
      </trkpt>
      <trkpt lat="47.25842" lon="4.93363">
        <ele>530</ele>
        <time>2012-01-22T10:20:34Z</time>
      </trkpt>
      <trkpt lat="47.2583" lon="4.9335">
        <ele>530</ele>
        <time>2012-01-22T10:20:43Z</time>
      </trkpt>
      <trkpt lat="47.25817" lon="4.93335">
        <ele>530</ele>
        <time>2012-01-22T10:20:53Z</time>
      </trkpt>
      <trkpt lat="47.25807" lon="4.93322">
        <ele>531</ele>
        <time>2012-01-22T10:20:59Z</time>
      </trkpt>
      <trkpt lat="47.25795" lon="4.93307">
        <ele>532</ele>
        <time>2012-01-22T10:21:10Z</time>
      </trkpt>
      <trkpt lat="47.25793" lon="4.9328">
        <ele>532</ele>
        <time>2012-01-22T10:23:48Z</time>
      </trkpt>
      <trkpt lat="47.258" lon="4.93257">
        <ele>531</ele>
        <time>2012-01-22T10:23:54Z</time>
      </trkpt>
      <trkpt lat="47.25808" lon="4.93233">
        <ele>533</ele>
        <time>2012-01-22T10:24:01Z</time>
      </trkpt>
      <trkpt lat="47.25822" lon="4.93218">
        <ele>533</ele>
        <time>2012-01-22T10:24:11Z</time>
      </trkpt>
      <trkpt lat="47.25823" lon="4.93198">
        <ele>534</ele>
        <time>2012-01-22T10:24:21Z</time>
      </trkpt>
      <trkpt lat="47.2583" lon="4.9318">
        <ele>536</ele>
        <time>2012-01-22T10:25:47Z</time>
      </trkpt>
      <trkpt lat="47.25837" lon="4.93152">
        <ele>537</ele>
        <time>2012-01-22T10:25:55Z</time>
      </trkpt>
      <trkpt lat="47.25842" lon="4.93132">
        <ele>537</ele>
        <time>2012-01-22T10:26:02Z</time>
      </trkpt>
      <trkpt lat="47.25848" lon="4.93112">
        <ele>538</ele>
        <time>2012-01-22T10:26:08Z</time>
      </trkpt>
      <trkpt lat="47.25857" lon="4.93095">
        <ele>540</ele>
        <time>2012-01-22T10:26:14Z</time>
      </trkpt>
      <trkpt lat="47.25865" lon="4.93072">
        <ele>539</ele>
        <time>2012-01-22T10:26:21Z</time>
      </trkpt>
      <trkpt lat="47.25875" lon="4.93048">
        <ele>538</ele>
        <time>2012-01-22T10:26:29Z</time>
      </trkpt>
      <trkpt lat="47.25883" lon="4.93028">
        <ele>538</ele>
        <time>2012-01-22T10:26:35Z</time>
      </trkpt>
      <trkpt lat="47.25893" lon="4.93008">
        <ele>538</ele>
        <time>2012-01-22T10:26:41Z</time>
      </trkpt>
      <trkpt lat="47.25902" lon="4.92992">
        <ele>540</ele>
        <time>2012-01-22T10:26:48Z</time>
      </trkpt>
      <trkpt lat="47.25907" lon="4.9297">
        <ele>543</ele>
        <time>2012-01-22T10:26:54Z</time>
      </trkpt>
      <trkpt lat="47.25917" lon="4.92955">
        <ele>545</ele>
        <time>2012-01-22T10:27:12Z</time>
      </trkpt>
      <trkpt lat="47.25902" lon="4.9294">
        <ele>543</ele>
        <time>2012-01-22T10:27:44Z</time>
      </trkpt>
      <trkpt lat="47.25882" lon="4.92927">
        <ele>543</ele>
        <time>2012-01-22T10:27:50Z</time>
      </trkpt>
      <trkpt lat="47.25863" lon="4.92917">
        <ele>547</ele>
        <time>2012-01-22T10:27:56Z</time>
      </trkpt>
      <trkpt lat="47.25845" lon="4.92915">
        <ele>549</ele>
        <time>2012-01-22T10:28:00Z</time>
      </trkpt>
      <trkpt lat="47.25817" lon="4.92912">
        <ele>553</ele>
        <time>2012-01-22T10:28:07Z</time>
      </trkpt>
      <trkpt lat="47.25788" lon="4.9291">
        <ele>554</ele>
        <time>2012-01-22T10:28:15Z</time>
      </trkpt>
      <trkpt lat="47.25767" lon="4.92912">
        <ele>554</ele>
        <time>2012-01-22T10:28:21Z</time>
      </trkpt>
      <trkpt lat="47.25745" lon="4.92912">
        <ele>554</ele>
        <time>2012-01-22T10:28:28Z</time>
      </trkpt>
      <trkpt lat="47.25703" lon="4.9291">
        <ele>556</ele>
        <time>2012-01-22T10:28:40Z</time>
      </trkpt>
      <trkpt lat="47.25687" lon="4.92908">
        <ele>555</ele>
        <time>2012-01-22T10:28:44Z</time>
      </trkpt>
      <trkpt lat="47.25658" lon="4.92903">
        <ele>553</ele>
        <time>2012-01-22T10:28:53Z</time>
      </trkpt>
      <trkpt lat="47.25637" lon="4.92903">
        <ele>551</ele>
        <time>2012-01-22T10:28:59Z</time>
      </trkpt>
      <trkpt lat="47.25623" lon="4.929">
        <ele>550</ele>
        <time>2012-01-22T10:29:03Z</time>
      </trkpt>
      <trkpt lat="47.25603" lon="4.929">
        <ele>551</ele>
        <time>2012-01-22T10:29:10Z</time>
      </trkpt>
      <trkpt lat="47.25582" lon="4.92898">
        <ele>550</ele>
        <time>2012-01-22T10:29:16Z</time>
      </trkpt>
      <trkpt lat="47.25565" lon="4.92902">
        <ele>553</ele>
        <time>2012-01-22T10:29:22Z</time>
      </trkpt>
      <trkpt lat="47.25542" lon="4.92908">
        <ele>555</ele>
        <time>2012-01-22T10:29:28Z</time>
      </trkpt>
      <trkpt lat="47.25523" lon="4.92912">
        <ele>555</ele>
        <time>2012-01-22T10:29:35Z</time>
      </trkpt>
      <trkpt lat="47.25492" lon="4.92918">
        <ele>553</ele>
        <time>2012-01-22T10:29:43Z</time>
      </trkpt>
      <trkpt lat="47.25475" lon="4.92925">
        <ele>552</ele>
        <time>2012-01-22T10:29:47Z</time>
      </trkpt>
      <trkpt lat="47.25447" lon="4.9293">
        <ele>547</ele>
        <time>2012-01-22T10:29:53Z</time>
      </trkpt>
      <trkpt lat="47.25418" lon="4.92935">
        <ele>551</ele>
        <time>2012-01-22T10:30:02Z</time>
      </trkpt>
      <trkpt lat="47.25403" lon="4.92927">
        <ele>553</ele>
        <time>2012-01-22T10:30:10Z</time>
      </trkpt>
      <trkpt lat="47.25388" lon="4.92928">
        <ele>549</ele>
        <time>2012-01-22T10:30:35Z</time>
      </trkpt>
      <trkpt lat="47.25367" lon="4.92922">
        <ele>555</ele>
        <time>2012-01-22T10:30:46Z</time>
      </trkpt>
      <trkpt lat="47.25327" lon="4.92915">
        <ele>554</ele>
        <time>2012-01-22T10:30:52Z</time>
      </trkpt>
      <trkpt lat="47.25258" lon="4.92902">
        <ele>557</ele>
        <time>2012-01-22T10:31:00Z</time>
      </trkpt>
      <trkpt lat="47.25237" lon="4.92902">
        <ele>555</ele>
        <time>2012-01-22T10:31:02Z</time>
      </trkpt>
      <trkpt lat="47.25222" lon="4.929">
        <ele>554</ele>
        <time>2012-01-22T10:31:05Z</time>
      </trkpt>
      <trkpt lat="47.25208" lon="4.92897">
        <ele>555</ele>
        <time>2012-01-22T10:31:07Z</time>
      </trkpt>
      <trkpt lat="47.25157" lon="4.92883">
        <ele>550</ele>
        <time>2012-01-22T10:31:15Z</time>
      </trkpt>
      <trkpt lat="47.25123" lon="4.92873">
        <ele>550</ele>
        <time>2012-01-22T10:31:21Z</time>
      </trkpt>
      <trkpt lat="47.25095" lon="4.92863">
        <ele>545</ele>
        <time>2012-01-22T10:31:26Z</time>
      </trkpt>
      <trkpt lat="47.25087" lon="4.92883">
        <ele>542</ele>
        <time>2012-01-22T10:31:47Z</time>
      </trkpt>
      <trkpt lat="47.25075" lon="4.92907">
        <ele>539</ele>
        <time>2012-01-22T10:32:05Z</time>
      </trkpt>
      <trkpt lat="47.25065" lon="4.92922">
        <ele>539</ele>
        <time>2012-01-22T10:32:12Z</time>
      </trkpt>
      <trkpt lat="47.25052" lon="4.92942">
        <ele>539</ele>
        <time>2012-01-22T10:32:18Z</time>
      </trkpt>
      <trkpt lat="47.25042" lon="4.92957">
        <ele>539</ele>
        <time>2012-01-22T10:32:22Z</time>
      </trkpt>
      <trkpt lat="47.25025" lon="4.9298">
        <ele>539</ele>
        <time>2012-01-22T10:32:31Z</time>
      </trkpt>
      <trkpt lat="47.25008" lon="4.92992">
        <ele>540</ele>
        <time>2012-01-22T10:32:37Z</time>
      </trkpt>
      <trkpt lat="47.24997" lon="4.9301">
        <ele>540</ele>
        <time>2012-01-22T10:32:43Z</time>
      </trkpt>
      <trkpt lat="47.24987" lon="4.93028">
        <ele>541</ele>
        <time>2012-01-22T10:32:48Z</time>
      </trkpt>
      <trkpt lat="47.24978" lon="4.93057">
        <ele>541</ele>
        <time>2012-01-22T10:32:54Z</time>
      </trkpt>
      <trkpt lat="47.24972" lon="4.93083">
        <ele>543</ele>
        <time>2012-01-22T10:33:02Z</time>
      </trkpt>
      <trkpt lat="47.24965" lon="4.93103">
        <ele>541</ele>
        <time>2012-01-22T10:33:10Z</time>
      </trkpt>
      <trkpt lat="47.24955" lon="4.93133">
        <ele>531</ele>
        <time>2012-01-22T10:34:01Z</time>
      </trkpt>
      <trkpt lat="47.24945" lon="4.93157">
        <ele>534</ele>
        <time>2012-01-22T10:34:07Z</time>
      </trkpt>
      <trkpt lat="47.24933" lon="4.93193">
        <ele>537</ele>
        <time>2012-01-22T10:34:13Z</time>
      </trkpt>
      <trkpt lat="47.24927" lon="4.9322">
        <ele>539</ele>
        <time>2012-01-22T10:34:17Z</time>
      </trkpt>
      <trkpt lat="47.24917" lon="4.93245">
        <ele>538</ele>
        <time>2012-01-22T10:34:22Z</time>
      </trkpt>
      <trkpt lat="47.24905" lon="4.93267">
        <ele>539</ele>
        <time>2012-01-22T10:34:26Z</time>
      </trkpt>
      <trkpt lat="47.24887" lon="4.93308">
        <ele>538</ele>
        <time>2012-01-22T10:34:34Z</time>
      </trkpt>
      <trkpt lat="47.24873" lon="4.93337">
        <ele>535</ele>
        <time>2012-01-22T10:34:38Z</time>
      </trkpt>
      <trkpt lat="47.24862" lon="4.93358">
        <ele>531</ele>
        <time>2012-01-22T10:34:43Z</time>
      </trkpt>
      <trkpt lat="47.24842" lon="4.93385">
        <ele>528</ele>
        <time>2012-01-22T10:34:49Z</time>
      </trkpt>
      <trkpt lat="47.2483" lon="4.93407">
        <ele>525</ele>
        <time>2012-01-22T10:34:53Z</time>
      </trkpt>
      <trkpt lat="47.24815" lon="4.93428">
        <ele>523</ele>
        <time>2012-01-22T10:34:57Z</time>
      </trkpt>
      <trkpt lat="47.24797" lon="4.93457">
        <ele>521</ele>
        <time>2012-01-22T10:35:01Z</time>
      </trkpt>
      <trkpt lat="47.24773" lon="4.93495">
        <ele>518</ele>
        <time>2012-01-22T10:35:08Z</time>
      </trkpt>
      <trkpt lat="47.24758" lon="4.93515">
        <ele>516</ele>
        <time>2012-01-22T10:35:12Z</time>
      </trkpt>
      <trkpt lat="47.24748" lon="4.93528">
        <ele>514</ele>
        <time>2012-01-22T10:35:16Z</time>
      </trkpt>
      <trkpt lat="47.24743" lon="4.93552">
        <ele>514</ele>
        <time>2012-01-22T10:35:22Z</time>
      </trkpt>
      <trkpt lat="47.2473" lon="4.9357">
        <ele>513</ele>
        <time>2012-01-22T10:35:30Z</time>
      </trkpt>
      <trkpt lat="47.24718" lon="4.93595">
        <ele>512</ele>
        <time>2012-01-22T10:35:37Z</time>
      </trkpt>
      <trkpt lat="47.2471" lon="4.93623">
        <ele>511</ele>
        <time>2012-01-22T10:35:43Z</time>
      </trkpt>
      <trkpt lat="47.24705" lon="4.9365">
        <ele>509</ele>
        <time>2012-01-22T10:35:47Z</time>
      </trkpt>
      <trkpt lat="47.24695" lon="4.93712">
        <ele>503</ele>
        <time>2012-01-22T10:35:56Z</time>
      </trkpt>
      <trkpt lat="47.24687" lon="4.93733">
        <ele>503</ele>
        <time>2012-01-22T10:36:00Z</time>
      </trkpt>
      <trkpt lat="47.24682" lon="4.93753">
        <ele>502</ele>
        <time>2012-01-22T10:36:04Z</time>
      </trkpt>
      <trkpt lat="47.24682" lon="4.93775">
        <ele>499</ele>
        <time>2012-01-22T10:36:27Z</time>
      </trkpt>
      <trkpt lat="47.24678" lon="4.93803">
        <ele>499</ele>
        <time>2012-01-22T10:36:31Z</time>
      </trkpt>
      <trkpt lat="47.24683" lon="4.9385">
        <ele>497</ele>
        <time>2012-01-22T10:36:38Z</time>
      </trkpt>
      <trkpt lat="47.24688" lon="4.93872">
        <ele>497</ele>
        <time>2012-01-22T10:36:40Z</time>
      </trkpt>
      <trkpt lat="47.2471" lon="4.93957">
        <ele>497</ele>
        <time>2012-01-22T10:36:48Z</time>
      </trkpt>
      <trkpt lat="47.24718" lon="4.93973">
        <ele>496</ele>
        <time>2012-01-22T10:36:50Z</time>
      </trkpt>
      <trkpt lat="47.24728" lon="4.94003">
        <ele>494</ele>
        <time>2012-01-22T10:36:52Z</time>
      </trkpt>
      <trkpt lat="47.24747" lon="4.94038">
        <ele>493</ele>
        <time>2012-01-22T10:36:57Z</time>
      </trkpt>
      <trkpt lat="47.24765" lon="4.94068">
        <ele>492</ele>
        <time>2012-01-22T10:37:01Z</time>
      </trkpt>
      <trkpt lat="47.24795" lon="4.94127">
        <ele>487</ele>
        <time>2012-01-22T10:37:07Z</time>
      </trkpt>
      <trkpt lat="47.24807" lon="4.94158">
        <ele>487</ele>
        <time>2012-01-22T10:37:11Z</time>
      </trkpt>
      <trkpt lat="47.2483" lon="4.94195">
        <ele>485</ele>
        <time>2012-01-22T10:37:16Z</time>
      </trkpt>
      <trkpt lat="47.24847" lon="4.94225">
        <ele>485</ele>
        <time>2012-01-22T10:37:20Z</time>
      </trkpt>
      <trkpt lat="47.24865" lon="4.9426">
        <ele>488</ele>
        <time>2012-01-22T10:37:24Z</time>
      </trkpt>
      <trkpt lat="47.24873" lon="4.94277">
        <ele>487</ele>
        <time>2012-01-22T10:37:26Z</time>
      </trkpt>
      <trkpt lat="47.24893" lon="4.94337">
        <ele>481</ele>
        <time>2012-01-22T10:37:32Z</time>
      </trkpt>
      <trkpt lat="47.24903" lon="4.9437">
        <ele>478</ele>
        <time>2012-01-22T10:37:37Z</time>
      </trkpt>
      <trkpt lat="47.24918" lon="4.94423">
        <ele>474</ele>
        <time>2012-01-22T10:37:43Z</time>
      </trkpt>
      <trkpt lat="47.24932" lon="4.94457">
        <ele>470</ele>
        <time>2012-01-22T10:37:47Z</time>
      </trkpt>
      <trkpt lat="47.2494" lon="4.94478">
        <ele>468</ele>
        <time>2012-01-22T10:37:51Z</time>
      </trkpt>
      <trkpt lat="47.24947" lon="4.94505">
        <ele>460</ele>
        <time>2012-01-22T10:38:12Z</time>
      </trkpt>
      <trkpt lat="47.24958" lon="4.94523">
        <ele>460</ele>
        <time>2012-01-22T10:38:16Z</time>
      </trkpt>
      <trkpt lat="47.2497" lon="4.94533">
        <ele>460</ele>
        <time>2012-01-22T10:38:21Z</time>
      </trkpt>
      <trkpt lat="47.2498" lon="4.94557">
        <ele>460</ele>
        <time>2012-01-22T10:38:27Z</time>
      </trkpt>
      <trkpt lat="47.2499" lon="4.94577">
        <ele>460</ele>
        <time>2012-01-22T10:38:31Z</time>
      </trkpt>
      <trkpt lat="47.2501" lon="4.94615">
        <ele>458</ele>
        <time>2012-01-22T10:38:35Z</time>
      </trkpt>
      <trkpt lat="47.25017" lon="4.94633">
        <ele>457</ele>
        <time>2012-01-22T10:38:37Z</time>
      </trkpt>
      <trkpt lat="47.25032" lon="4.9466">
        <ele>457</ele>
        <time>2012-01-22T10:38:42Z</time>
      </trkpt>
      <trkpt lat="47.25043" lon="4.94685">
        <ele>457</ele>
        <time>2012-01-22T10:38:46Z</time>
      </trkpt>
      <trkpt lat="47.25068" lon="4.94737">
        <ele>461</ele>
        <time>2012-01-22T10:38:54Z</time>
      </trkpt>
      <trkpt lat="47.25083" lon="4.9477">
        <ele>461</ele>
        <time>2012-01-22T10:38:58Z</time>
      </trkpt>
      <trkpt lat="47.25095" lon="4.94805">
        <ele>460</ele>
        <time>2012-01-22T10:39:03Z</time>
      </trkpt>
      <trkpt lat="47.25105" lon="4.94835">
        <ele>458</ele>
        <time>2012-01-22T10:39:07Z</time>
      </trkpt>
      <trkpt lat="47.25115" lon="4.94878">
        <ele>456</ele>
        <time>2012-01-22T10:39:13Z</time>
      </trkpt>
      <trkpt lat="47.25123" lon="4.94898">
        <ele>453</ele>
        <time>2012-01-22T10:39:17Z</time>
      </trkpt>
      <trkpt lat="47.25137" lon="4.94912">
        <ele>442</ele>
        <time>2012-01-22T10:40:08Z</time>
      </trkpt>
      <trkpt lat="47.2515" lon="4.94898">
        <ele>444</ele>
        <time>2012-01-22T10:40:20Z</time>
      </trkpt>
      <trkpt lat="47.25158" lon="4.94878">
        <ele>448</ele>
        <time>2012-01-22T10:40:29Z</time>
      </trkpt>
      <trkpt lat="47.25167" lon="4.94862">
        <ele>452</ele>
        <time>2012-01-22T10:40:37Z</time>
      </trkpt>
      <trkpt lat="47.25173" lon="4.94843">
        <ele>454</ele>
        <time>2012-01-22T10:40:43Z</time>
      </trkpt>
      <trkpt lat="47.25183" lon="4.9483">
        <ele>464</ele>
        <time>2012-01-22T10:40:56Z</time>
      </trkpt>
      <trkpt lat="47.252" lon="4.94818">
        <ele>464</ele>
        <time>2012-01-22T10:41:06Z</time>
      </trkpt>
      <trkpt lat="47.2521" lon="4.94805">
        <ele>461</ele>
        <time>2012-01-22T10:41:15Z</time>
      </trkpt>
      <trkpt lat="47.25222" lon="4.94788">
        <ele>464</ele>
        <time>2012-01-22T10:41:25Z</time>
      </trkpt>
      <trkpt lat="47.25228" lon="4.9477">
        <ele>467</ele>
        <time>2012-01-22T10:41:34Z</time>
      </trkpt>
      <trkpt lat="47.25237" lon="4.94753">
        <ele>463</ele>
        <time>2012-01-22T10:41:42Z</time>
      </trkpt>
      <trkpt lat="47.25245" lon="4.94732">
        <ele>461</ele>
        <time>2012-01-22T10:41:53Z</time>
      </trkpt>
      <trkpt lat="47.25253" lon="4.94715">
        <ele>462</ele>
        <time>2012-01-22T10:42:05Z</time>
      </trkpt>
      <trkpt lat="47.25257" lon="4.94695">
        <ele>462</ele>
        <time>2012-01-22T10:42:31Z</time>
      </trkpt>
      <trkpt lat="47.25272" lon="4.94688">
        <ele>476</ele>
        <time>2012-01-22T10:43:13Z</time>
      </trkpt>
      <trkpt lat="47.25283" lon="4.94668">
        <ele>481</ele>
        <time>2012-01-22T10:43:23Z</time>
      </trkpt>
      <trkpt lat="47.25292" lon="4.94647">
        <ele>482</ele>
        <time>2012-01-22T10:43:31Z</time>
      </trkpt>
      <trkpt lat="47.253" lon="4.94627">
        <ele>479</ele>
        <time>2012-01-22T10:43:40Z</time>
      </trkpt>
      <trkpt lat="47.25315" lon="4.94622">
        <ele>472</ele>
        <time>2012-01-22T10:43:50Z</time>
      </trkpt>
      <trkpt lat="47.2531" lon="4.9465">
        <ele>475</ele>
        <time>2012-01-22T10:44:07Z</time>
      </trkpt>
      <trkpt lat="47.25308" lon="4.9467">
        <ele>476</ele>
        <time>2012-01-22T10:44:14Z</time>
      </trkpt>
      <trkpt lat="47.25302" lon="4.9469">
        <ele>477</ele>
        <time>2012-01-22T10:44:22Z</time>
      </trkpt>
      <trkpt lat="47.25293" lon="4.94715">
        <ele>475</ele>
        <time>2012-01-22T10:44:30Z</time>
      </trkpt>
      <trkpt lat="47.25288" lon="4.9474">
        <ele>470</ele>
        <time>2012-01-22T10:44:39Z</time>
      </trkpt>
      <trkpt lat="47.25282" lon="4.94767">
        <ele>474</ele>
        <time>2012-01-22T10:44:49Z</time>
      </trkpt>
      <trkpt lat="47.25282" lon="4.9479">
        <ele>471</ele>
        <time>2012-01-22T10:44:56Z</time>
      </trkpt>
      <trkpt lat="47.25277" lon="4.94815">
        <ele>473</ele>
        <time>2012-01-22T10:45:04Z</time>
      </trkpt>
      <trkpt lat="47.25272" lon="4.94835">
        <ele>470</ele>
        <time>2012-01-22T10:45:10Z</time>
      </trkpt>
      <trkpt lat="47.25263" lon="4.94872">
        <ele>466</ele>
        <time>2012-01-22T10:45:19Z</time>
      </trkpt>
      <trkpt lat="47.25252" lon="4.94925">
        <ele>464</ele>
        <time>2012-01-22T10:45:31Z</time>
      </trkpt>
      <trkpt lat="47.25247" lon="4.94953">
        <ele>462</ele>
        <time>2012-01-22T10:45:38Z</time>
      </trkpt>
      <trkpt lat="47.25233" lon="4.95048">
        <ele>466</ele>
        <time>2012-01-22T10:45:55Z</time>
      </trkpt>
      <trkpt lat="47.25227" lon="4.95072">
        <ele>475</ele>
        <time>2012-01-22T10:46:01Z</time>
      </trkpt>
      <trkpt lat="47.25218" lon="4.95098">
        <ele>476</ele>
        <time>2012-01-22T10:46:07Z</time>
      </trkpt>
      <trkpt lat="47.25213" lon="4.95127">
        <ele>473</ele>
        <time>2012-01-22T10:46:11Z</time>
      </trkpt>
      <trkpt lat="47.25212" lon="4.9515">
        <ele>470</ele>
        <time>2012-01-22T10:46:16Z</time>
      </trkpt>
      <trkpt lat="47.25213" lon="4.95172">
        <ele>466</ele>
        <time>2012-01-22T10:46:20Z</time>
      </trkpt>
      <trkpt lat="47.25218" lon="4.95192">
        <ele>462</ele>
        <time>2012-01-22T10:46:24Z</time>
      </trkpt>
      <trkpt lat="47.25223" lon="4.95215">
        <ele>460</ele>
        <time>2012-01-22T10:46:30Z</time>
      </trkpt>
      <trkpt lat="47.25235" lon="4.95265">
        <ele>462</ele>
        <time>2012-01-22T10:46:47Z</time>
      </trkpt>
      <trkpt lat="47.25245" lon="4.95293">
        <ele>464</ele>
        <time>2012-01-22T10:46:56Z</time>
      </trkpt>
      <trkpt lat="47.25243" lon="4.95313">
        <ele>463</ele>
        <time>2012-01-22T10:47:02Z</time>
      </trkpt>
      <trkpt lat="47.25245" lon="4.95342">
        <ele>462</ele>
        <time>2012-01-22T10:47:08Z</time>
      </trkpt>
      <trkpt lat="47.25248" lon="4.95363">
        <ele>463</ele>
        <time>2012-01-22T10:47:17Z</time>
      </trkpt>
      <trkpt lat="47.25263" lon="4.95372">
        <ele>459</ele>
        <time>2012-01-22T10:48:24Z</time>
      </trkpt>
      <trkpt lat="47.2528" lon="4.95362">
        <ele>459</ele>
        <time>2012-01-22T10:48:31Z</time>
      </trkpt>
      <trkpt lat="47.25295" lon="4.95353">
        <ele>459</ele>
        <time>2012-01-22T10:48:37Z</time>
      </trkpt>
      <trkpt lat="47.25313" lon="4.95343">
        <ele>463</ele>
        <time>2012-01-22T10:48:45Z</time>
      </trkpt>
      <trkpt lat="47.25327" lon="4.95338">
        <ele>464</ele>
        <time>2012-01-22T10:48:50Z</time>
      </trkpt>
      <trkpt lat="47.25342" lon="4.95332">
        <ele>467</ele>
        <time>2012-01-22T10:48:56Z</time>
      </trkpt>
      <trkpt lat="47.25357" lon="4.95325">
        <ele>468</ele>
        <time>2012-01-22T10:49:02Z</time>
      </trkpt>
      <trkpt lat="47.2537" lon="4.95317">
        <ele>469</ele>
        <time>2012-01-22T10:49:06Z</time>
      </trkpt>
      <trkpt lat="47.25382" lon="4.95302">
        <ele>469</ele>
        <time>2012-01-22T10:49:13Z</time>
      </trkpt>
      <trkpt lat="47.25393" lon="4.95288">
        <ele>470</ele>
        <time>2012-01-22T10:49:19Z</time>
      </trkpt>
      <trkpt lat="47.2541" lon="4.95272">
        <ele>472</ele>
        <time>2012-01-22T10:49:27Z</time>
      </trkpt>
      <trkpt lat="47.25445" lon="4.95233">
        <ele>474</ele>
        <time>2012-01-22T10:49:46Z</time>
      </trkpt>
      <trkpt lat="47.25457" lon="4.95222">
        <ele>474</ele>
        <time>2012-01-22T10:49:53Z</time>
      </trkpt>
      <trkpt lat="47.2548" lon="4.952">
        <ele>474</ele>
        <time>2012-01-22T10:50:05Z</time>
      </trkpt>
      <trkpt lat="47.255" lon="4.9518">
        <ele>474</ele>
        <time>2012-01-22T10:50:14Z</time>
      </trkpt>
      <trkpt lat="47.25512" lon="4.95167">
        <ele>476</ele>
        <time>2012-01-22T10:50:20Z</time>
      </trkpt>
      <trkpt lat="47.25528" lon="4.95167">
        <ele>477</ele>
        <time>2012-01-22T10:50:28Z</time>
      </trkpt>
      <trkpt lat="47.25545" lon="4.95165">
        <ele>477</ele>
        <time>2012-01-22T10:50:35Z</time>
      </trkpt>
      <trkpt lat="47.2557" lon="4.95162">
        <ele>477</ele>
        <time>2012-01-22T10:50:45Z</time>
      </trkpt>
      <trkpt lat="47.25598" lon="4.9516">
        <ele>478</ele>
        <time>2012-01-22T10:50:56Z</time>
      </trkpt>
      <trkpt lat="47.25612" lon="4.95155">
        <ele>477</ele>
        <time>2012-01-22T10:51:02Z</time>
      </trkpt>
      <trkpt lat="47.25642" lon="4.95145">
        <ele>478</ele>
        <time>2012-01-22T10:51:15Z</time>
      </trkpt>
      <trkpt lat="47.25653" lon="4.95133">
        <ele>476</ele>
        <time>2012-01-22T10:51:21Z</time>
      </trkpt>
      <trkpt lat="47.25665" lon="4.95122">
        <ele>477</ele>
        <time>2012-01-22T10:51:27Z</time>
      </trkpt>
      <trkpt lat="47.25678" lon="4.95107">
        <ele>477</ele>
        <time>2012-01-22T10:51:33Z</time>
      </trkpt>
      <trkpt lat="47.25688" lon="4.95093">
        <ele>477</ele>
        <time>2012-01-22T10:51:40Z</time>
      </trkpt>
      <trkpt lat="47.25697" lon="4.95075">
        <ele>479</ele>
        <time>2012-01-22T10:51:46Z</time>
      </trkpt>
      <trkpt lat="47.2571" lon="4.95058">
        <ele>477</ele>
        <time>2012-01-22T10:51:54Z</time>
      </trkpt>
      <trkpt lat="47.25722" lon="4.95043">
        <ele>477</ele>
        <time>2012-01-22T10:52:01Z</time>
      </trkpt>
      <trkpt lat="47.25723" lon="4.95023">
        <ele>481</ele>
        <time>2012-01-22T10:52:09Z</time>
      </trkpt>
      <trkpt lat="47.25723" lon="4.95">
        <ele>483</ele>
        <time>2012-01-22T10:52:18Z</time>
      </trkpt>
      <trkpt lat="47.2572" lon="4.94978">
        <ele>482</ele>
        <time>2012-01-22T10:52:26Z</time>
      </trkpt>
      <trkpt lat="47.25715" lon="4.94958">
        <ele>489</ele>
        <time>2012-01-22T10:52:36Z</time>
      </trkpt>
      <trkpt lat="47.25707" lon="4.9494">
        <ele>491</ele>
        <time>2012-01-22T10:52:45Z</time>
      </trkpt>
      <trkpt lat="47.25702" lon="4.94918">
        <ele>491</ele>
        <time>2012-01-22T10:52:55Z</time>
      </trkpt>
      <trkpt lat="47.25692" lon="4.94898">
        <ele>491</ele>
        <time>2012-01-22T10:53:03Z</time>
      </trkpt>
      <trkpt lat="47.25683" lon="4.94878">
        <ele>492</ele>
        <time>2012-01-22T10:53:14Z</time>
      </trkpt>
      <trkpt lat="47.2567" lon="4.9487">
        <ele>495</ele>
        <time>2012-01-22T10:53:22Z</time>
      </trkpt>
      <trkpt lat="47.25655" lon="4.94863">
        <ele>495</ele>
        <time>2012-01-22T10:53:31Z</time>
      </trkpt>
      <trkpt lat="47.25642" lon="4.9486">
        <ele>494</ele>
        <time>2012-01-22T10:53:37Z</time>
      </trkpt>
      <trkpt lat="47.25628" lon="4.94853">
        <ele>495</ele>
        <time>2012-01-22T10:53:45Z</time>
      </trkpt>
      <trkpt lat="47.2562" lon="4.94837">
        <ele>493</ele>
        <time>2012-01-22T10:53:54Z</time>
      </trkpt>
      <trkpt lat="47.25607" lon="4.94828">
        <ele>494</ele>
        <time>2012-01-22T10:54:02Z</time>
      </trkpt>
      <trkpt lat="47.25593" lon="4.94822">
        <ele>495</ele>
        <time>2012-01-22T10:54:10Z</time>
      </trkpt>
      <trkpt lat="47.25588" lon="4.948">
        <ele>497</ele>
        <time>2012-01-22T10:54:21Z</time>
      </trkpt>
      <trkpt lat="47.2559" lon="4.94778">
        <ele>496</ele>
        <time>2012-01-22T10:54:29Z</time>
      </trkpt>
      <trkpt lat="47.25593" lon="4.94758">
        <ele>494</ele>
        <time>2012-01-22T10:54:37Z</time>
      </trkpt>
      <trkpt lat="47.25597" lon="4.94735">
        <ele>498</ele>
        <time>2012-01-22T10:54:48Z</time>
      </trkpt>
      <trkpt lat="47.25602" lon="4.94705">
        <ele>496</ele>
        <time>2012-01-22T10:55:00Z</time>
      </trkpt>
      <trkpt lat="47.25608" lon="4.94667">
        <ele>498</ele>
        <time>2012-01-22T10:55:17Z</time>
      </trkpt>
      <trkpt lat="47.25613" lon="4.94645">
        <ele>498</ele>
        <time>2012-01-22T10:55:26Z</time>
      </trkpt>
      <trkpt lat="47.25615" lon="4.94622">
        <ele>498</ele>
        <time>2012-01-22T10:55:36Z</time>
      </trkpt>
      <trkpt lat="47.25622" lon="4.94592">
        <ele>500</ele>
        <time>2012-01-22T10:55:53Z</time>
      </trkpt>
      <trkpt lat="47.25628" lon="4.9457">
        <ele>496</ele>
        <time>2012-01-22T10:56:32Z</time>
      </trkpt>
      <trkpt lat="47.25633" lon="4.94548">
        <ele>500</ele>
        <time>2012-01-22T10:56:38Z</time>
      </trkpt>
      <trkpt lat="47.2564" lon="4.94527">
        <ele>501</ele>
        <time>2012-01-22T10:56:47Z</time>
      </trkpt>
      <trkpt lat="47.25643" lon="4.94505">
        <ele>502</ele>
        <time>2012-01-22T10:56:55Z</time>
      </trkpt>
      <trkpt lat="47.2565" lon="4.94482">
        <ele>502</ele>
        <time>2012-01-22T10:57:04Z</time>
      </trkpt>
      <trkpt lat="47.25653" lon="4.94462">
        <ele>503</ele>
        <time>2012-01-22T10:57:12Z</time>
      </trkpt>
      <trkpt lat="47.25663" lon="4.94443">
        <ele>502</ele>
        <time>2012-01-22T10:57:20Z</time>
      </trkpt>
      <trkpt lat="47.25668" lon="4.94418">
        <ele>503</ele>
        <time>2012-01-22T10:57:29Z</time>
      </trkpt>
      <trkpt lat="47.25675" lon="4.94398">
        <ele>503</ele>
        <time>2012-01-22T10:57:37Z</time>
      </trkpt>
      <trkpt lat="47.2568" lon="4.94377">
        <ele>502</ele>
        <time>2012-01-22T10:57:44Z</time>
      </trkpt>
      <trkpt lat="47.25688" lon="4.94353">
        <ele>504</ele>
        <time>2012-01-22T10:57:52Z</time>
      </trkpt>
      <trkpt lat="47.25698" lon="4.94335">
        <ele>502</ele>
        <time>2012-01-22T10:58:00Z</time>
      </trkpt>
      <trkpt lat="47.25708" lon="4.94317">
        <ele>504</ele>
        <time>2012-01-22T10:58:09Z</time>
      </trkpt>
      <trkpt lat="47.2572" lon="4.94298">
        <ele>504</ele>
        <time>2012-01-22T10:58:19Z</time>
      </trkpt>
      <trkpt lat="47.2573" lon="4.94278">
        <ele>505</ele>
        <time>2012-01-22T10:58:30Z</time>
      </trkpt>
      <trkpt lat="47.2574" lon="4.94262">
        <ele>507</ele>
        <time>2012-01-22T10:58:38Z</time>
      </trkpt>
      <trkpt lat="47.2575" lon="4.94238">
        <ele>512</ele>
        <time>2012-01-22T10:58:51Z</time>
      </trkpt>
      <trkpt lat="47.2576" lon="4.94223">
        <ele>514</ele>
        <time>2012-01-22T10:58:59Z</time>
      </trkpt>
      <trkpt lat="47.25768" lon="4.94207">
        <ele>517</ele>
        <time>2012-01-22T10:59:07Z</time>
      </trkpt>
      <trkpt lat="47.25778" lon="4.94187">
        <ele>519</ele>
        <time>2012-01-22T10:59:18Z</time>
      </trkpt>
      <trkpt lat="47.25793" lon="4.94157">
        <ele>523</ele>
        <time>2012-01-22T10:59:35Z</time>
      </trkpt>
      <trkpt lat="47.25803" lon="4.94138">
        <ele>524</ele>
        <time>2012-01-22T10:59:45Z</time>
      </trkpt>
      <trkpt lat="47.2581" lon="4.9412">
        <ele>519</ele>
        <time>2012-01-22T10:59:56Z</time>
      </trkpt>
      <trkpt lat="47.25825" lon="4.94133">
        <ele>505</ele>
        <time>2012-01-22T11:03:02Z</time>
      </trkpt>
      <trkpt lat="47.25842" lon="4.9415">
        <ele>503</ele>
        <time>2012-01-22T11:03:08Z</time>
      </trkpt>
      <trkpt lat="47.25852" lon="4.94172">
        <ele>501</ele>
        <time>2012-01-22T11:03:12Z</time>
      </trkpt>
      <trkpt lat="47.25867" lon="4.94188">
        <ele>499</ele>
        <time>2012-01-22T11:03:16Z</time>
      </trkpt>
      <trkpt lat="47.2588" lon="4.94198">
        <ele>499</ele>
        <time>2012-01-22T11:03:21Z</time>
      </trkpt>
      <trkpt lat="47.25895" lon="4.94208">
        <ele>498</ele>
        <time>2012-01-22T11:03:25Z</time>
      </trkpt>
      <trkpt lat="47.25908" lon="4.9422">
        <ele>498</ele>
        <time>2012-01-22T11:03:29Z</time>
      </trkpt>
      <trkpt lat="47.25918" lon="4.94233">
        <ele>497</ele>
        <time>2012-01-22T11:03:33Z</time>
      </trkpt>
      <trkpt lat="47.25935" lon="4.94252">
        <ele>497</ele>
        <time>2012-01-22T11:03:37Z</time>
      </trkpt>
      <trkpt lat="47.25953" lon="4.94275">
        <ele>497</ele>
        <time>2012-01-22T11:03:44Z</time>
      </trkpt>
      <trkpt lat="47.25962" lon="4.94295">
        <ele>498</ele>
        <time>2012-01-22T11:03:48Z</time>
      </trkpt>
      <trkpt lat="47.25973" lon="4.94317">
        <ele>498</ele>
        <time>2012-01-22T11:03:52Z</time>
      </trkpt>
      <trkpt lat="47.25993" lon="4.9434">
        <ele>498</ele>
        <time>2012-01-22T11:03:56Z</time>
      </trkpt>
      <trkpt lat="47.26005" lon="4.94358">
        <ele>499</ele>
        <time>2012-01-22T11:04:00Z</time>
      </trkpt>
      <trkpt lat="47.26022" lon="4.9438">
        <ele>495</ele>
        <time>2012-01-22T11:04:05Z</time>
      </trkpt>
      <trkpt lat="47.26038" lon="4.94405">
        <ele>491</ele>
        <time>2012-01-22T11:04:09Z</time>
      </trkpt>
      <trkpt lat="47.26068" lon="4.9445">
        <ele>485</ele>
        <time>2012-01-22T11:04:17Z</time>
      </trkpt>
      <trkpt lat="47.26078" lon="4.94482">
        <ele>484</ele>
        <time>2012-01-22T11:04:21Z</time>
      </trkpt>
      <trkpt lat="47.26083" lon="4.9451">
        <ele>484</ele>
        <time>2012-01-22T11:04:26Z</time>
      </trkpt>
      <trkpt lat="47.26092" lon="4.94533">
        <ele>482</ele>
        <time>2012-01-22T11:04:30Z</time>
      </trkpt>
      <trkpt lat="47.261" lon="4.94558">
        <ele>480</ele>
        <time>2012-01-22T11:04:34Z</time>
      </trkpt>
      <trkpt lat="47.26115" lon="4.9462">
        <ele>477</ele>
        <time>2012-01-22T11:04:44Z</time>
      </trkpt>
      <trkpt lat="47.26115" lon="4.94643">
        <ele>476</ele>
        <time>2012-01-22T11:04:49Z</time>
      </trkpt>
      <trkpt lat="47.26117" lon="4.94663">
        <ele>474</ele>
        <time>2012-01-22T11:04:55Z</time>
      </trkpt>
      <trkpt lat="47.26115" lon="4.94683">
        <ele>479</ele>
        <time>2012-01-22T11:05:07Z</time>
      </trkpt>
      <trkpt lat="47.26108" lon="4.94705">
        <ele>480</ele>
        <time>2012-01-22T11:05:12Z</time>
      </trkpt>
      <trkpt lat="47.26102" lon="4.9473">
        <ele>481</ele>
        <time>2012-01-22T11:05:16Z</time>
      </trkpt>
      <trkpt lat="47.26098" lon="4.94757">
        <ele>480</ele>
        <time>2012-01-22T11:05:20Z</time>
      </trkpt>
      <trkpt lat="47.26093" lon="4.94782">
        <ele>479</ele>
        <time>2012-01-22T11:05:24Z</time>
      </trkpt>
      <trkpt lat="47.2609" lon="4.94815">
        <ele>476</ele>
        <time>2012-01-22T11:05:28Z</time>
      </trkpt>
      <trkpt lat="47.26085" lon="4.9484">
        <ele>475</ele>
        <time>2012-01-22T11:05:33Z</time>
      </trkpt>
      <trkpt lat="47.26078" lon="4.94863">
        <ele>474</ele>
        <time>2012-01-22T11:05:37Z</time>
      </trkpt>
      <trkpt lat="47.26082" lon="4.94883">
        <ele>471</ele>
        <time>2012-01-22T11:05:45Z</time>
      </trkpt>
      <trkpt lat="47.26095" lon="4.94892">
        <ele>470</ele>
        <time>2012-01-22T11:05:49Z</time>
      </trkpt>
      <trkpt lat="47.26118" lon="4.94905">
        <ele>471</ele>
        <time>2012-01-22T11:05:58Z</time>
      </trkpt>
      <trkpt lat="47.26137" lon="4.94915">
        <ele>473</ele>
        <time>2012-01-22T11:06:04Z</time>
      </trkpt>
      <trkpt lat="47.26152" lon="4.94923">
        <ele>477</ele>
        <time>2012-01-22T11:06:13Z</time>
      </trkpt>
      <trkpt lat="47.2617" lon="4.94933">
        <ele>480</ele>
        <time>2012-01-22T11:06:23Z</time>
      </trkpt>
      <trkpt lat="47.26192" lon="4.9495">
        <ele>487</ele>
        <time>2012-01-22T11:06:40Z</time>
      </trkpt>
      <trkpt lat="47.26187" lon="4.94972">
        <ele>491</ele>
        <time>2012-01-22T11:06:50Z</time>
      </trkpt>
      <trkpt lat="47.2619" lon="4.94992">
        <ele>493</ele>
        <time>2012-01-22T11:06:57Z</time>
      </trkpt>
      <trkpt lat="47.26202" lon="4.95007">
        <ele>492</ele>
        <time>2012-01-22T11:07:05Z</time>
      </trkpt>
      <trkpt lat="47.26217" lon="4.95015">
        <ele>494</ele>
        <time>2012-01-22T11:07:13Z</time>
      </trkpt>
      <trkpt lat="47.2625" lon="4.95037">
        <ele>494</ele>
        <time>2012-01-22T11:07:30Z</time>
      </trkpt>
      <trkpt lat="47.26268" lon="4.95048">
        <ele>493</ele>
        <time>2012-01-22T11:07:41Z</time>
      </trkpt>
      <trkpt lat="47.26288" lon="4.95058">
        <ele>492</ele>
        <time>2012-01-22T11:07:51Z</time>
      </trkpt>
      <trkpt lat="47.26303" lon="4.95065">
        <ele>491</ele>
        <time>2012-01-22T11:07:57Z</time>
      </trkpt>
      <trkpt lat="47.2632" lon="4.95073">
        <ele>491</ele>
        <time>2012-01-22T11:08:06Z</time>
      </trkpt>
      <trkpt lat="47.26337" lon="4.95078">
        <ele>494</ele>
        <time>2012-01-22T11:08:16Z</time>
      </trkpt>
      <trkpt lat="47.26352" lon="4.95083">
        <ele>497</ele>
        <time>2012-01-22T11:08:22Z</time>
      </trkpt>
      <trkpt lat="47.26368" lon="4.95093">
        <ele>497</ele>
        <time>2012-01-22T11:08:31Z</time>
      </trkpt>
      <trkpt lat="47.26385" lon="4.951">
        <ele>496</ele>
        <time>2012-01-22T11:08:39Z</time>
      </trkpt>
      <trkpt lat="47.26398" lon="4.95108">
        <ele>497</ele>
        <time>2012-01-22T11:08:46Z</time>
      </trkpt>
      <trkpt lat="47.26412" lon="4.95113">
        <ele>486</ele>
        <time>2012-01-22T11:09:06Z</time>
      </trkpt>
      <trkpt lat="47.26423" lon="4.95127">
        <ele>485</ele>
        <time>2012-01-22T11:09:47Z</time>
      </trkpt>
      <trkpt lat="47.26422" lon="4.95148">
        <ele>497</ele>
        <time>2012-01-22T11:09:57Z</time>
      </trkpt>
      <trkpt lat="47.26418" lon="4.95175">
        <ele>506</ele>
        <time>2012-01-22T11:10:06Z</time>
      </trkpt>
      <trkpt lat="47.2642" lon="4.95197">
        <ele>508</ele>
        <time>2012-01-22T11:10:10Z</time>
      </trkpt>
      <trkpt lat="47.2642" lon="4.95217">
        <ele>505</ele>
        <time>2012-01-22T11:10:14Z</time>
      </trkpt>
      <trkpt lat="47.26425" lon="4.9524">
        <ele>500</ele>
        <time>2012-01-22T11:10:20Z</time>
      </trkpt>
      <trkpt lat="47.26435" lon="4.95263">
        <ele>495</ele>
        <time>2012-01-22T11:10:27Z</time>
      </trkpt>
      <trkpt lat="47.2645" lon="4.95272">
        <ele>492</ele>
        <time>2012-01-22T11:10:33Z</time>
      </trkpt>
      <trkpt lat="47.26468" lon="4.95288">
        <ele>492</ele>
        <time>2012-01-22T11:10:43Z</time>
      </trkpt>
      <trkpt lat="47.26485" lon="4.95298">
        <ele>491</ele>
        <time>2012-01-22T11:10:52Z</time>
      </trkpt>
      <trkpt lat="47.26498" lon="4.95305">
        <ele>489</ele>
        <time>2012-01-22T11:10:58Z</time>
      </trkpt>
      <trkpt lat="47.26515" lon="4.95317">
        <ele>490</ele>
        <time>2012-01-22T11:11:04Z</time>
      </trkpt>
      <trkpt lat="47.26532" lon="4.9533">
        <ele>491</ele>
        <time>2012-01-22T11:11:13Z</time>
      </trkpt>
      <trkpt lat="47.26543" lon="4.9534">
        <ele>490</ele>
        <time>2012-01-22T11:11:17Z</time>
      </trkpt>
      <trkpt lat="47.26557" lon="4.95358">
        <ele>490</ele>
        <time>2012-01-22T11:11:23Z</time>
      </trkpt>
      <trkpt lat="47.2657" lon="4.95375">
        <ele>490</ele>
        <time>2012-01-22T11:11:30Z</time>
      </trkpt>
      <trkpt lat="47.26582" lon="4.9539">
        <ele>489</ele>
        <time>2012-01-22T11:11:36Z</time>
      </trkpt>
      <trkpt lat="47.26595" lon="4.95407">
        <ele>488</ele>
        <time>2012-01-22T11:11:42Z</time>
      </trkpt>
      <trkpt lat="47.26605" lon="4.95423">
        <ele>488</ele>
        <time>2012-01-22T11:11:48Z</time>
      </trkpt>
      <trkpt lat="47.26615" lon="4.95438">
        <ele>486</ele>
        <time>2012-01-22T11:11:53Z</time>
      </trkpt>
      <trkpt lat="47.26625" lon="4.95452">
        <ele>486</ele>
        <time>2012-01-22T11:11:59Z</time>
      </trkpt>
      <trkpt lat="47.26637" lon="4.9547">
        <ele>486</ele>
        <time>2012-01-22T11:12:05Z</time>
      </trkpt>
      <trkpt lat="47.26648" lon="4.95483">
        <ele>488</ele>
        <time>2012-01-22T11:12:09Z</time>
      </trkpt>
      <trkpt lat="47.26662" lon="4.95498">
        <ele>491</ele>
        <time>2012-01-22T11:12:14Z</time>
      </trkpt>
      <trkpt lat="47.26672" lon="4.95515">
        <ele>489</ele>
        <time>2012-01-22T11:12:18Z</time>
      </trkpt>
      <trkpt lat="47.26682" lon="4.9553">
        <ele>488</ele>
        <time>2012-01-22T11:12:22Z</time>
      </trkpt>
      <trkpt lat="47.26693" lon="4.95548">
        <ele>486</ele>
        <time>2012-01-22T11:12:26Z</time>
      </trkpt>
      <trkpt lat="47.26702" lon="4.95565">
        <ele>484</ele>
        <time>2012-01-22T11:12:30Z</time>
      </trkpt>
      <trkpt lat="47.26707" lon="4.95585">
        <ele>479</ele>
        <time>2012-01-22T11:13:06Z</time>
      </trkpt>
      <trkpt lat="47.26718" lon="4.95595">
        <ele>475</ele>
        <time>2012-01-22T11:14:41Z</time>
      </trkpt>
      <trkpt lat="47.2674" lon="4.95615">
        <ele>474</ele>
        <time>2012-01-22T11:14:49Z</time>
      </trkpt>
      <trkpt lat="47.26762" lon="4.95628">
        <ele>473</ele>
        <time>2012-01-22T11:14:55Z</time>
      </trkpt>
      <trkpt lat="47.26773" lon="4.95645">
        <ele>473</ele>
        <time>2012-01-22T11:15:02Z</time>
      </trkpt>
      <trkpt lat="47.26767" lon="4.95665">
        <ele>473</ele>
        <time>2012-01-22T11:15:08Z</time>
      </trkpt>
      <trkpt lat="47.26755" lon="4.95698">
        <ele>474</ele>
        <time>2012-01-22T11:15:19Z</time>
      </trkpt>
      <trkpt lat="47.26747" lon="4.95727">
        <ele>473</ele>
        <time>2012-01-22T11:15:25Z</time>
      </trkpt>
      <trkpt lat="47.26737" lon="4.95768">
        <ele>471</ele>
        <time>2012-01-22T11:15:33Z</time>
      </trkpt>
      <trkpt lat="47.2673" lon="4.95797">
        <ele>470</ele>
        <time>2012-01-22T11:15:40Z</time>
      </trkpt>
      <trkpt lat="47.26743" lon="4.95812">
        <ele>469</ele>
        <time>2012-01-22T11:15:46Z</time>
      </trkpt>
      <trkpt lat="47.26757" lon="4.95808">
        <ele>469</ele>
        <time>2012-01-22T11:15:50Z</time>
      </trkpt>
      <trkpt lat="47.26775" lon="4.95792">
        <ele>470</ele>
        <time>2012-01-22T11:15:56Z</time>
      </trkpt>
      <trkpt lat="47.26785" lon="4.95778">
        <ele>471</ele>
        <time>2012-01-22T11:16:01Z</time>
      </trkpt>
      <trkpt lat="47.26793" lon="4.95755">
        <ele>471</ele>
        <time>2012-01-22T11:16:07Z</time>
      </trkpt>
      <trkpt lat="47.26803" lon="4.95735">
        <ele>473</ele>
        <time>2012-01-22T11:16:13Z</time>
      </trkpt>
      <trkpt lat="47.26817" lon="4.95712">
        <ele>472</ele>
        <time>2012-01-22T11:16:19Z</time>
      </trkpt>
      <trkpt lat="47.26832" lon="4.95695">
        <ele>472</ele>
        <time>2012-01-22T11:16:26Z</time>
      </trkpt>
      <trkpt lat="47.26843" lon="4.95672">
        <ele>472</ele>
        <time>2012-01-22T11:16:32Z</time>
      </trkpt>
      <trkpt lat="47.26862" lon="4.95642">
        <ele>472</ele>
        <time>2012-01-22T11:16:40Z</time>
      </trkpt>
      <trkpt lat="47.26875" lon="4.95625">
        <ele>472</ele>
        <time>2012-01-22T11:16:44Z</time>
      </trkpt>
      <trkpt lat="47.26887" lon="4.95612">
        <ele>471</ele>
        <time>2012-01-22T11:16:49Z</time>
      </trkpt>
      <trkpt lat="47.269" lon="4.956">
        <ele>470</ele>
        <time>2012-01-22T11:16:53Z</time>
      </trkpt>
      <trkpt lat="47.26928" lon="4.95575">
        <ele>470</ele>
        <time>2012-01-22T11:17:01Z</time>
      </trkpt>
      <trkpt lat="47.26942" lon="4.95557">
        <ele>470</ele>
        <time>2012-01-22T11:17:05Z</time>
      </trkpt>
      <trkpt lat="47.26953" lon="4.9554">
        <ele>469</ele>
        <time>2012-01-22T11:17:10Z</time>
      </trkpt>
      <trkpt lat="47.26965" lon="4.95515">
        <ele>468</ele>
        <time>2012-01-22T11:17:16Z</time>
      </trkpt>
      <trkpt lat="47.26975" lon="4.95498">
        <ele>469</ele>
        <time>2012-01-22T11:17:20Z</time>
      </trkpt>
      <trkpt lat="47.26987" lon="4.95483">
        <ele>469</ele>
        <time>2012-01-22T11:17:24Z</time>
      </trkpt>
      <trkpt lat="47.26997" lon="4.9546">
        <ele>473</ele>
        <time>2012-01-22T11:17:28Z</time>
      </trkpt>
      <trkpt lat="47.27008" lon="4.95447">
        <ele>475</ele>
        <time>2012-01-22T11:17:33Z</time>
      </trkpt>
      <trkpt lat="47.27018" lon="4.95433">
        <ele>476</ele>
        <time>2012-01-22T11:17:37Z</time>
      </trkpt>
      <trkpt lat="47.27028" lon="4.95418">
        <ele>476</ele>
        <time>2012-01-22T11:17:41Z</time>
      </trkpt>
      <trkpt lat="47.27045" lon="4.95397">
        <ele>476</ele>
        <time>2012-01-22T11:17:47Z</time>
      </trkpt>
      <trkpt lat="47.27058" lon="4.95377">
        <ele>474</ele>
        <time>2012-01-22T11:17:51Z</time>
      </trkpt>
      <trkpt lat="47.27075" lon="4.95357">
        <ele>474</ele>
        <time>2012-01-22T11:17:58Z</time>
      </trkpt>
      <trkpt lat="47.27095" lon="4.9533">
        <ele>475</ele>
        <time>2012-01-22T11:18:06Z</time>
      </trkpt>
      <trkpt lat="47.2711" lon="4.95317">
        <ele>476</ele>
        <time>2012-01-22T11:18:12Z</time>
      </trkpt>
      <trkpt lat="47.27142" lon="4.9529">
        <ele>477</ele>
        <time>2012-01-22T11:18:23Z</time>
      </trkpt>
      <trkpt lat="47.27153" lon="4.95277">
        <ele>477</ele>
        <time>2012-01-22T11:18:27Z</time>
      </trkpt>
      <trkpt lat="47.27163" lon="4.95262">
        <ele>477</ele>
        <time>2012-01-22T11:18:31Z</time>
      </trkpt>
      <trkpt lat="47.27175" lon="4.95248">
        <ele>478</ele>
        <time>2012-01-22T11:18:35Z</time>
      </trkpt>
      <trkpt lat="47.27188" lon="4.95232">
        <ele>477</ele>
        <time>2012-01-22T11:18:39Z</time>
      </trkpt>
      <trkpt lat="47.272" lon="4.9522">
        <ele>477</ele>
        <time>2012-01-22T11:18:46Z</time>
      </trkpt>
      <trkpt lat="47.27213" lon="4.95208">
        <ele>472</ele>
        <time>2012-01-22T11:18:54Z</time>
      </trkpt>
      <trkpt lat="47.2723" lon="4.95202">
        <ele>474</ele>
        <time>2012-01-22T11:19:00Z</time>
      </trkpt>
      <trkpt lat="47.27243" lon="4.95192">
        <ele>474</ele>
        <time>2012-01-22T11:19:02Z</time>
      </trkpt>
      <trkpt lat="47.27263" lon="4.95175">
        <ele>472</ele>
        <time>2012-01-22T11:19:13Z</time>
      </trkpt>
      <trkpt lat="47.27268" lon="4.95153">
        <ele>474</ele>
        <time>2012-01-22T11:19:19Z</time>
      </trkpt>
      <trkpt lat="47.27277" lon="4.95135">
        <ele>474</ele>
        <time>2012-01-22T11:19:23Z</time>
      </trkpt>
      <trkpt lat="47.27292" lon="4.95118">
        <ele>475</ele>
        <time>2012-01-22T11:19:27Z</time>
      </trkpt>
      <trkpt lat="47.27302" lon="4.95103">
        <ele>476</ele>
        <time>2012-01-22T11:19:32Z</time>
      </trkpt>
      <trkpt lat="47.27313" lon="4.9509">
        <ele>478</ele>
        <time>2012-01-22T11:19:36Z</time>
      </trkpt>
      <trkpt lat="47.27333" lon="4.95065">
        <ele>479</ele>
        <time>2012-01-22T11:19:42Z</time>
      </trkpt>
      <trkpt lat="47.27345" lon="4.95048">
        <ele>481</ele>
        <time>2012-01-22T11:19:46Z</time>
      </trkpt>
      <trkpt lat="47.27357" lon="4.95023">
        <ele>481</ele>
        <time>2012-01-22T11:19:50Z</time>
      </trkpt>
      <trkpt lat="47.27362" lon="4.95002">
        <ele>483</ele>
        <time>2012-01-22T11:19:55Z</time>
      </trkpt>
      <trkpt lat="47.27365" lon="4.94982">
        <ele>485</ele>
        <time>2012-01-22T11:19:59Z</time>
      </trkpt>
      <trkpt lat="47.27368" lon="4.94953">
        <ele>489</ele>
        <time>2012-01-22T11:20:05Z</time>
      </trkpt>
      <trkpt lat="47.27372" lon="4.9492">
        <ele>491</ele>
        <time>2012-01-22T11:20:11Z</time>
      </trkpt>
      <trkpt lat="47.27375" lon="4.94892">
        <ele>487</ele>
        <time>2012-01-22T11:20:18Z</time>
      </trkpt>
      <trkpt lat="47.2738" lon="4.9486">
        <ele>484</ele>
        <time>2012-01-22T11:20:24Z</time>
      </trkpt>
      <trkpt lat="47.27382" lon="4.94838">
        <ele>485</ele>
        <time>2012-01-22T11:20:28Z</time>
      </trkpt>
      <trkpt lat="47.27383" lon="4.94818">
        <ele>485</ele>
        <time>2012-01-22T11:20:32Z</time>
      </trkpt>
      <trkpt lat="47.27387" lon="4.94793">
        <ele>486</ele>
        <time>2012-01-22T11:20:37Z</time>
      </trkpt>
      <trkpt lat="47.27392" lon="4.94738">
        <ele>481</ele>
        <time>2012-01-22T11:20:47Z</time>
      </trkpt>
      <trkpt lat="47.27395" lon="4.94717">
        <ele>478</ele>
        <time>2012-01-22T11:20:51Z</time>
      </trkpt>
      <trkpt lat="47.27402" lon="4.94698">
        <ele>481</ele>
        <time>2012-01-22T11:20:55Z</time>
      </trkpt>
      <trkpt lat="47.27412" lon="4.94683">
        <ele>482</ele>
        <time>2012-01-22T11:21:04Z</time>
      </trkpt>
      <trkpt lat="47.27423" lon="4.94667">
        <ele>482</ele>
        <time>2012-01-22T11:21:14Z</time>
      </trkpt>
      <trkpt lat="47.27438" lon="4.94658">
        <ele>480</ele>
        <time>2012-01-22T11:21:23Z</time>
      </trkpt>
      <trkpt lat="47.27452" lon="4.94655">
        <ele>479</ele>
        <time>2012-01-22T11:21:44Z</time>
      </trkpt>
      <trkpt lat="47.27465" lon="4.94652">
        <ele>474</ele>
        <time>2012-01-22T11:22:34Z</time>
      </trkpt>
      <trkpt lat="47.27482" lon="4.94655">
        <ele>475</ele>
        <time>2012-01-22T11:22:42Z</time>
      </trkpt>
      <trkpt lat="47.27507" lon="4.94658">
        <ele>475</ele>
        <time>2012-01-22T11:22:55Z</time>
      </trkpt>
      <trkpt lat="47.27522" lon="4.94662">
        <ele>474</ele>
        <time>2012-01-22T11:23:03Z</time>
      </trkpt>
      <trkpt lat="47.27537" lon="4.94667">
        <ele>475</ele>
        <time>2012-01-22T11:23:09Z</time>
      </trkpt>
      <trkpt lat="47.27558" lon="4.94672">
        <ele>475</ele>
        <time>2012-01-22T11:23:20Z</time>
      </trkpt>
      <trkpt lat="47.27573" lon="4.94673">
        <ele>479</ele>
        <time>2012-01-22T11:23:28Z</time>
      </trkpt>
      <trkpt lat="47.27588" lon="4.94677">
        <ele>481</ele>
        <time>2012-01-22T11:23:35Z</time>
      </trkpt>
      <trkpt lat="47.27602" lon="4.94682">
        <ele>480</ele>
        <time>2012-01-22T11:23:41Z</time>
      </trkpt>
      <trkpt lat="47.27618" lon="4.94685">
        <ele>483</ele>
        <time>2012-01-22T11:23:49Z</time>
      </trkpt>
      <trkpt lat="47.27633" lon="4.94683">
        <ele>489</ele>
        <time>2012-01-22T11:23:56Z</time>
      </trkpt>
      <trkpt lat="47.27648" lon="4.9468">
        <ele>490</ele>
        <time>2012-01-22T11:24:02Z</time>
      </trkpt>
      <trkpt lat="47.27663" lon="4.94675">
        <ele>491</ele>
        <time>2012-01-22T11:24:08Z</time>
      </trkpt>
      <trkpt lat="47.27678" lon="4.9467">
        <ele>489</ele>
        <time>2012-01-22T11:24:14Z</time>
      </trkpt>
      <trkpt lat="47.27692" lon="4.94663">
        <ele>488</ele>
        <time>2012-01-22T11:24:19Z</time>
      </trkpt>
      <trkpt lat="47.27705" lon="4.94655">
        <ele>488</ele>
        <time>2012-01-22T11:24:25Z</time>
      </trkpt>
      <trkpt lat="47.2772" lon="4.94643">
        <ele>488</ele>
        <time>2012-01-22T11:24:31Z</time>
      </trkpt>
      <trkpt lat="47.27737" lon="4.94627">
        <ele>490</ele>
        <time>2012-01-22T11:24:37Z</time>
      </trkpt>
      <trkpt lat="47.2775" lon="4.94612">
        <ele>491</ele>
        <time>2012-01-22T11:24:44Z</time>
      </trkpt>
      <trkpt lat="47.27762" lon="4.946">
        <ele>494</ele>
        <time>2012-01-22T11:24:50Z</time>
      </trkpt>
      <trkpt lat="47.27775" lon="4.9458">
        <ele>497</ele>
        <time>2012-01-22T11:24:56Z</time>
      </trkpt>
      <trkpt lat="47.27787" lon="4.94555">
        <ele>495</ele>
        <time>2012-01-22T11:25:02Z</time>
      </trkpt>
      <trkpt lat="47.27795" lon="4.94537">
        <ele>492</ele>
        <time>2012-01-22T11:25:07Z</time>
      </trkpt>
      <trkpt lat="47.27803" lon="4.94517">
        <ele>489</ele>
        <time>2012-01-22T11:25:11Z</time>
      </trkpt>
      <trkpt lat="47.27812" lon="4.94488">
        <ele>488</ele>
        <time>2012-01-22T11:25:17Z</time>
      </trkpt>
      <trkpt lat="47.27818" lon="4.9447">
        <ele>488</ele>
        <time>2012-01-22T11:25:21Z</time>
      </trkpt>
      <trkpt lat="47.27825" lon="4.94447">
        <ele>485</ele>
        <time>2012-01-22T11:25:26Z</time>
      </trkpt>
      <trkpt lat="47.27832" lon="4.94427">
        <ele>485</ele>
        <time>2012-01-22T11:25:30Z</time>
      </trkpt>
      <trkpt lat="47.27835" lon="4.94407">
        <ele>485</ele>
        <time>2012-01-22T11:25:34Z</time>
      </trkpt>
      <trkpt lat="47.27842" lon="4.94375">
        <ele>485</ele>
        <time>2012-01-22T11:25:40Z</time>
      </trkpt>
      <trkpt lat="47.27847" lon="4.94352">
        <ele>484</ele>
        <time>2012-01-22T11:25:44Z</time>
      </trkpt>
      <trkpt lat="47.27852" lon="4.94323">
        <ele>486</ele>
        <time>2012-01-22T11:25:51Z</time>
      </trkpt>
      <trkpt lat="47.27853" lon="4.94303">
        <ele>486</ele>
        <time>2012-01-22T11:25:55Z</time>
      </trkpt>
      <trkpt lat="47.27858" lon="4.94263">
        <ele>488</ele>
        <time>2012-01-22T11:26:03Z</time>
      </trkpt>
      <trkpt lat="47.2786" lon="4.94238">
        <ele>490</ele>
        <time>2012-01-22T11:26:10Z</time>
      </trkpt>
      <trkpt lat="47.27863" lon="4.94193">
        <ele>491</ele>
        <time>2012-01-22T11:26:20Z</time>
      </trkpt>
      <trkpt lat="47.27863" lon="4.94162">
        <ele>491</ele>
        <time>2012-01-22T11:26:27Z</time>
      </trkpt>
      <trkpt lat="47.27863" lon="4.94133">
        <ele>492</ele>
        <time>2012-01-22T11:26:33Z</time>
      </trkpt>
      <trkpt lat="47.27862" lon="4.94105">
        <ele>493</ele>
        <time>2012-01-22T11:26:39Z</time>
      </trkpt>
      <trkpt lat="47.2786" lon="4.94083">
        <ele>493</ele>
        <time>2012-01-22T11:26:43Z</time>
      </trkpt>
      <trkpt lat="47.27857" lon="4.94038">
        <ele>491</ele>
        <time>2012-01-22T11:26:54Z</time>
      </trkpt>
      <trkpt lat="47.27853" lon="4.94013">
        <ele>491</ele>
        <time>2012-01-22T11:27:00Z</time>
      </trkpt>
      <trkpt lat="47.27843" lon="4.9395">
        <ele>491</ele>
        <time>2012-01-22T11:27:13Z</time>
      </trkpt>
      <trkpt lat="47.27835" lon="4.93918">
        <ele>490</ele>
        <time>2012-01-22T11:27:21Z</time>
      </trkpt>
      <trkpt lat="47.27818" lon="4.93847">
        <ele>491</ele>
        <time>2012-01-22T11:27:38Z</time>
      </trkpt>
      <trkpt lat="47.27817" lon="4.93825">
        <ele>491</ele>
        <time>2012-01-22T11:27:44Z</time>
      </trkpt>
      <trkpt lat="47.27825" lon="4.938">
        <ele>489</ele>
        <time>2012-01-22T11:27:51Z</time>
      </trkpt>
      <trkpt lat="47.27838" lon="4.9379">
        <ele>484</ele>
        <time>2012-01-22T11:27:57Z</time>
      </trkpt>
      <trkpt lat="47.27852" lon="4.93785">
        <ele>485</ele>
        <time>2012-01-22T11:28:05Z</time>
      </trkpt>
      <trkpt lat="47.27868" lon="4.93788">
        <ele>491</ele>
        <time>2012-01-22T11:31:29Z</time>
      </trkpt>
      <trkpt lat="47.27883" lon="4.93792">
        <ele>489</ele>
        <time>2012-01-22T11:31:33Z</time>
      </trkpt>
      <trkpt lat="47.27898" lon="4.93797">
        <ele>491</ele>
        <time>2012-01-22T11:31:40Z</time>
      </trkpt>
      <trkpt lat="47.27935" lon="4.93808">
        <ele>491</ele>
        <time>2012-01-22T11:31:52Z</time>
      </trkpt>
      <trkpt lat="47.27955" lon="4.93817">
        <ele>493</ele>
        <time>2012-01-22T11:31:59Z</time>
      </trkpt>
      <trkpt lat="47.2797" lon="4.93822">
        <ele>492</ele>
        <time>2012-01-22T11:32:05Z</time>
      </trkpt>
      <trkpt lat="47.27987" lon="4.93827">
        <ele>494</ele>
        <time>2012-01-22T11:32:13Z</time>
      </trkpt>
      <trkpt lat="47.28005" lon="4.9383">
        <ele>491</ele>
        <time>2012-01-22T11:32:21Z</time>
      </trkpt>
      <trkpt lat="47.28018" lon="4.93835">
        <ele>492</ele>
        <time>2012-01-22T11:32:28Z</time>
      </trkpt>
      <trkpt lat="47.28037" lon="4.93843">
        <ele>494</ele>
        <time>2012-01-22T11:32:36Z</time>
      </trkpt>
      <trkpt lat="47.28055" lon="4.93852">
        <ele>498</ele>
        <time>2012-01-22T11:32:44Z</time>
      </trkpt>
      <trkpt lat="47.28072" lon="4.93858">
        <ele>499</ele>
        <time>2012-01-22T11:32:51Z</time>
      </trkpt>
      <trkpt lat="47.28087" lon="4.93862">
        <ele>498</ele>
        <time>2012-01-22T11:32:57Z</time>
      </trkpt>
      <trkpt lat="47.281" lon="4.93872">
        <ele>500</ele>
        <time>2012-01-22T11:33:03Z</time>
      </trkpt>
      <trkpt lat="47.28122" lon="4.93882">
        <ele>502</ele>
        <time>2012-01-22T11:33:11Z</time>
      </trkpt>
      <trkpt lat="47.28153" lon="4.93897">
        <ele>500</ele>
        <time>2012-01-22T11:33:24Z</time>
      </trkpt>
      <trkpt lat="47.28168" lon="4.93905">
        <ele>500</ele>
        <time>2012-01-22T11:33:30Z</time>
      </trkpt>
      <trkpt lat="47.28185" lon="4.93912">
        <ele>502</ele>
        <time>2012-01-22T11:33:36Z</time>
      </trkpt>
      <trkpt lat="47.28213" lon="4.93927">
        <ele>503</ele>
        <time>2012-01-22T11:33:47Z</time>
      </trkpt>
      <trkpt lat="47.28227" lon="4.93935">
        <ele>504</ele>
        <time>2012-01-22T11:33:53Z</time>
      </trkpt>
      <trkpt lat="47.28252" lon="4.93947">
        <ele>498</ele>
        <time>2012-01-22T11:34:01Z</time>
      </trkpt>
      <trkpt lat="47.28277" lon="4.93963">
        <ele>497</ele>
        <time>2012-01-22T11:34:12Z</time>
      </trkpt>
      <trkpt lat="47.28292" lon="4.93972">
        <ele>496</ele>
        <time>2012-01-22T11:34:18Z</time>
      </trkpt>
      <trkpt lat="47.2831" lon="4.9398">
        <ele>495</ele>
        <time>2012-01-22T11:34:24Z</time>
      </trkpt>
      <trkpt lat="47.28355" lon="4.94">
        <ele>494</ele>
        <time>2012-01-22T11:34:41Z</time>
      </trkpt>
      <trkpt lat="47.2837" lon="4.93995">
        <ele>488</ele>
        <time>2012-01-22T11:35:35Z</time>
      </trkpt>
      <trkpt lat="47.28387" lon="4.93998">
        <ele>487</ele>
        <time>2012-01-22T11:35:44Z</time>
      </trkpt>
      <trkpt lat="47.28405" lon="4.94008">
        <ele>487</ele>
        <time>2012-01-22T11:35:50Z</time>
      </trkpt>
      <trkpt lat="47.28425" lon="4.94013">
        <ele>486</ele>
        <time>2012-01-22T11:35:54Z</time>
      </trkpt>
      <trkpt lat="47.2847" lon="4.94022">
        <ele>483</ele>
        <time>2012-01-22T11:36:00Z</time>
      </trkpt>
      <trkpt lat="47.28548" lon="4.9404">
        <ele>478</ele>
        <time>2012-01-22T11:36:11Z</time>
      </trkpt>
      <trkpt lat="47.28567" lon="4.94047">
        <ele>477</ele>
        <time>2012-01-22T11:36:13Z</time>
      </trkpt>
      <trkpt lat="47.286" lon="4.94072">
        <ele>476</ele>
        <time>2012-01-22T11:36:17Z</time>
      </trkpt>
      <trkpt lat="47.28615" lon="4.94088">
        <ele>475</ele>
        <time>2012-01-22T11:36:19Z</time>
      </trkpt>
      <trkpt lat="47.28633" lon="4.94107">
        <ele>475</ele>
        <time>2012-01-22T11:36:21Z</time>
      </trkpt>
      <trkpt lat="47.28662" lon="4.94125">
        <ele>474</ele>
        <time>2012-01-22T11:36:23Z</time>
      </trkpt>
      <trkpt lat="47.28682" lon="4.94133">
        <ele>473</ele>
        <time>2012-01-22T11:36:25Z</time>
      </trkpt>
      <trkpt lat="47.28723" lon="4.94143">
        <ele>472</ele>
        <time>2012-01-22T11:36:30Z</time>
      </trkpt>
      <trkpt lat="47.28743" lon="4.94145">
        <ele>472</ele>
        <time>2012-01-22T11:36:32Z</time>
      </trkpt>
      <trkpt lat="47.2878" lon="4.94142">
        <ele>471</ele>
        <time>2012-01-22T11:36:36Z</time>
      </trkpt>
      <trkpt lat="47.28813" lon="4.94135">
        <ele>472</ele>
        <time>2012-01-22T11:36:40Z</time>
      </trkpt>
      <trkpt lat="47.2885" lon="4.94123">
        <ele>472</ele>
        <time>2012-01-22T11:36:44Z</time>
      </trkpt>
      <trkpt lat="47.28938" lon="4.94097">
        <ele>473</ele>
        <time>2012-01-22T11:37:01Z</time>
      </trkpt>
      <trkpt lat="47.28965" lon="4.9409">
        <ele>472</ele>
        <time>2012-01-22T11:37:05Z</time>
      </trkpt>
      <trkpt lat="47.28987" lon="4.94087">
        <ele>472</ele>
        <time>2012-01-22T11:37:10Z</time>
      </trkpt>
      <trkpt lat="47.2901" lon="4.94085">
        <ele>471</ele>
        <time>2012-01-22T11:37:14Z</time>
      </trkpt>
      <trkpt lat="47.29033" lon="4.94085">
        <ele>471</ele>
        <time>2012-01-22T11:37:18Z</time>
      </trkpt>
      <trkpt lat="47.29057" lon="4.94087">
        <ele>470</ele>
        <time>2012-01-22T11:37:22Z</time>
      </trkpt>
      <trkpt lat="47.29083" lon="4.94087">
        <ele>469</ele>
        <time>2012-01-22T11:37:26Z</time>
      </trkpt>
      <trkpt lat="47.29115" lon="4.94082">
        <ele>467</ele>
        <time>2012-01-22T11:37:30Z</time>
      </trkpt>
      <trkpt lat="47.29138" lon="4.94072">
        <ele>467</ele>
        <time>2012-01-22T11:37:35Z</time>
      </trkpt>
      <trkpt lat="47.29172" lon="4.94055">
        <ele>467</ele>
        <time>2012-01-22T11:37:41Z</time>
      </trkpt>
      <trkpt lat="47.29195" lon="4.94042">
        <ele>466</ele>
        <time>2012-01-22T11:37:45Z</time>
      </trkpt>
      <trkpt lat="47.29222" lon="4.94023">
        <ele>465</ele>
        <time>2012-01-22T11:37:49Z</time>
      </trkpt>
      <trkpt lat="47.29253" lon="4.94">
        <ele>465</ele>
        <time>2012-01-22T11:37:56Z</time>
      </trkpt>
      <trkpt lat="47.29275" lon="4.93992">
        <ele>465</ele>
        <time>2012-01-22T11:38:00Z</time>
      </trkpt>
      <trkpt lat="47.29292" lon="4.93993">
        <ele>464</ele>
        <time>2012-01-22T11:38:04Z</time>
      </trkpt>
      <trkpt lat="47.29317" lon="4.94002">
        <ele>465</ele>
        <time>2012-01-22T11:38:13Z</time>
      </trkpt>
      <trkpt lat="47.29337" lon="4.94003">
        <ele>467</ele>
        <time>2012-01-22T11:38:19Z</time>
      </trkpt>
      <trkpt lat="47.29352" lon="4.94012">
        <ele>468</ele>
        <time>2012-01-22T11:38:23Z</time>
      </trkpt>
      <trkpt lat="47.2937" lon="4.94018">
        <ele>470</ele>
        <time>2012-01-22T11:38:27Z</time>
      </trkpt>
      <trkpt lat="47.29392" lon="4.94027">
        <ele>471</ele>
        <time>2012-01-22T11:38:31Z</time>
      </trkpt>
      <trkpt lat="47.29405" lon="4.94032">
        <ele>473</ele>
        <time>2012-01-22T11:38:36Z</time>
      </trkpt>
      <trkpt lat="47.29422" lon="4.94037">
        <ele>476</ele>
        <time>2012-01-22T11:38:42Z</time>
      </trkpt>
      <trkpt lat="47.29437" lon="4.94038">
        <ele>476</ele>
        <time>2012-01-22T11:38:48Z</time>
      </trkpt>
      <trkpt lat="47.29462" lon="4.94042">
        <ele>477</ele>
        <time>2012-01-22T11:38:57Z</time>
      </trkpt>
      <trkpt lat="47.29478" lon="4.94047">
        <ele>477</ele>
        <time>2012-01-22T11:39:03Z</time>
      </trkpt>
      <trkpt lat="47.29498" lon="4.94057">
        <ele>474</ele>
        <time>2012-01-22T11:39:09Z</time>
      </trkpt>
      <trkpt lat="47.29507" lon="4.94083">
        <ele>473</ele>
        <time>2012-01-22T11:39:15Z</time>
      </trkpt>
      <trkpt lat="47.29502" lon="4.94113">
        <ele>472</ele>
        <time>2012-01-22T11:39:20Z</time>
      </trkpt>
      <trkpt lat="47.29497" lon="4.94143">
        <ele>473</ele>
        <time>2012-01-22T11:39:24Z</time>
      </trkpt>
      <trkpt lat="47.29497" lon="4.94178">
        <ele>472</ele>
        <time>2012-01-22T11:39:28Z</time>
      </trkpt>
      <trkpt lat="47.29503" lon="4.94215">
        <ele>469</ele>
        <time>2012-01-22T11:39:32Z</time>
      </trkpt>
      <trkpt lat="47.29515" lon="4.9426">
        <ele>466</ele>
        <time>2012-01-22T11:39:36Z</time>
      </trkpt>
      <trkpt lat="47.2952" lon="4.94293">
        <ele>467</ele>
        <time>2012-01-22T11:39:41Z</time>
      </trkpt>
      <trkpt lat="47.29527" lon="4.94325">
        <ele>469</ele>
        <time>2012-01-22T11:39:45Z</time>
      </trkpt>
      <trkpt lat="47.29537" lon="4.9436">
        <ele>468</ele>
        <time>2012-01-22T11:39:49Z</time>
      </trkpt>
      <trkpt lat="47.2955" lon="4.9441">
        <ele>465</ele>
        <time>2012-01-22T11:39:55Z</time>
      </trkpt>
      <trkpt lat="47.29552" lon="4.94465">
        <ele>463</ele>
        <time>2012-01-22T11:39:59Z</time>
      </trkpt>
      <trkpt lat="47.29552" lon="4.94488">
        <ele>463</ele>
        <time>2012-01-22T11:40:02Z</time>
      </trkpt>
      <trkpt lat="47.2955" lon="4.94533">
        <ele>462</ele>
        <time>2012-01-22T11:40:06Z</time>
      </trkpt>
      <trkpt lat="47.29535" lon="4.94568">
        <ele>461</ele>
        <time>2012-01-22T11:40:10Z</time>
      </trkpt>
      <trkpt lat="47.2953" lon="4.94608">
        <ele>457</ele>
        <time>2012-01-22T11:40:14Z</time>
      </trkpt>
      <trkpt lat="47.29538" lon="4.94627">
        <ele>456</ele>
        <time>2012-01-22T11:40:16Z</time>
      </trkpt>
      <trkpt lat="47.29558" lon="4.94643">
        <ele>455</ele>
        <time>2012-01-22T11:40:18Z</time>
      </trkpt>
      <trkpt lat="47.2957" lon="4.94662">
        <ele>454</ele>
        <time>2012-01-22T11:40:21Z</time>
      </trkpt>
      <trkpt lat="47.29577" lon="4.94683">
        <ele>453</ele>
        <time>2012-01-22T11:40:23Z</time>
      </trkpt>
      <trkpt lat="47.29582" lon="4.94707">
        <ele>453</ele>
        <time>2012-01-22T11:40:25Z</time>
      </trkpt>
      <trkpt lat="47.29587" lon="4.94727">
        <ele>452</ele>
        <time>2012-01-22T11:40:27Z</time>
      </trkpt>
      <trkpt lat="47.29597" lon="4.94767">
        <ele>452</ele>
        <time>2012-01-22T11:40:31Z</time>
      </trkpt>
      <trkpt lat="47.29608" lon="4.94805">
        <ele>451</ele>
        <time>2012-01-22T11:40:35Z</time>
      </trkpt>
      <trkpt lat="47.29708" lon="4.95108">
        <ele>446</ele>
        <time>2012-01-22T11:41:07Z</time>
      </trkpt>
      <trkpt lat="47.29723" lon="4.95147">
        <ele>445</ele>
        <time>2012-01-22T11:41:11Z</time>
      </trkpt>
      <trkpt lat="47.29805" lon="4.95367">
        <ele>442</ele>
        <time>2012-01-22T11:41:34Z</time>
      </trkpt>
      <trkpt lat="47.29813" lon="4.95387">
        <ele>441</ele>
        <time>2012-01-22T11:41:36Z</time>
      </trkpt>
      <trkpt lat="47.30043" lon="4.95943">
        <ele>430</ele>
        <time>2012-01-22T11:42:39Z</time>
      </trkpt>
      <trkpt lat="47.30037" lon="4.95975">
        <ele>431</ele>
        <time>2012-01-22T11:42:58Z</time>
      </trkpt>
      <trkpt lat="47.3003" lon="4.95997">
        <ele>431</ele>
        <time>2012-01-22T11:43:02Z</time>
      </trkpt>
      <trkpt lat="47.30013" lon="4.96058">
        <ele>429</ele>
        <time>2012-01-22T11:43:10Z</time>
      </trkpt>
      <trkpt lat="47.30012" lon="4.96078">
        <ele>429</ele>
        <time>2012-01-22T11:43:12Z</time>
      </trkpt>
      <trkpt lat="47.30012" lon="4.9611">
        <ele>427</ele>
        <time>2012-01-22T11:43:14Z</time>
      </trkpt>
      <trkpt lat="47.3001" lon="4.96133">
        <ele>426</ele>
        <time>2012-01-22T11:43:16Z</time>
      </trkpt>
      <trkpt lat="47.30007" lon="4.96172">
        <ele>424</ele>
        <time>2012-01-22T11:43:21Z</time>
      </trkpt>
      <trkpt lat="47.30015" lon="4.96197">
        <ele>423</ele>
        <time>2012-01-22T11:43:25Z</time>
      </trkpt>
      <trkpt lat="47.30027" lon="4.96223">
        <ele>423</ele>
        <time>2012-01-22T11:43:31Z</time>
      </trkpt>
      <trkpt lat="47.30035" lon="4.9624">
        <ele>424</ele>
        <time>2012-01-22T11:43:35Z</time>
      </trkpt>
      <trkpt lat="47.30027" lon="4.9626">
        <ele>423</ele>
        <time>2012-01-22T11:43:39Z</time>
      </trkpt>
      <trkpt lat="47.30015" lon="4.96275">
        <ele>422</ele>
        <time>2012-01-22T11:43:44Z</time>
      </trkpt>
      <trkpt lat="47.3002" lon="4.96298">
        <ele>421</ele>
        <time>2012-01-22T11:43:48Z</time>
      </trkpt>
      <trkpt lat="47.30027" lon="4.96318">
        <ele>421</ele>
        <time>2012-01-22T11:43:52Z</time>
      </trkpt>
      <trkpt lat="47.30033" lon="4.96345">
        <ele>423</ele>
        <time>2012-01-22T11:43:58Z</time>
      </trkpt>
      <trkpt lat="47.30045" lon="4.96387">
        <ele>424</ele>
        <time>2012-01-22T11:44:07Z</time>
      </trkpt>
      <trkpt lat="47.30052" lon="4.96405">
        <ele>424</ele>
        <time>2012-01-22T11:44:11Z</time>
      </trkpt>
      <trkpt lat="47.30057" lon="4.96425">
        <ele>425</ele>
        <time>2012-01-22T11:44:15Z</time>
      </trkpt>
      <trkpt lat="47.30067" lon="4.96452">
        <ele>427</ele>
        <time>2012-01-22T11:44:19Z</time>
      </trkpt>
      <trkpt lat="47.30072" lon="4.96473">
        <ele>427</ele>
        <time>2012-01-22T11:44:24Z</time>
      </trkpt>
      <trkpt lat="47.30082" lon="4.96508">
        <ele>426</ele>
        <time>2012-01-22T11:44:30Z</time>
      </trkpt>
      <trkpt lat="47.30087" lon="4.96528">
        <ele>426</ele>
        <time>2012-01-22T11:44:34Z</time>
      </trkpt>
      <trkpt lat="47.30072" lon="4.96547">
        <ele>425</ele>
        <time>2012-01-22T11:45:06Z</time>
      </trkpt>
      <trkpt lat="47.30055" lon="4.96552">
        <ele>424</ele>
        <time>2012-01-22T11:45:10Z</time>
      </trkpt>
      <trkpt lat="47.30033" lon="4.96557">
        <ele>422</ele>
        <time>2012-01-22T11:45:14Z</time>
      </trkpt>
      <trkpt lat="47.2999" lon="4.96572">
        <ele>410</ele>
        <time>2012-01-22T11:45:22Z</time>
      </trkpt>
      <trkpt lat="47.29973" lon="4.96593">
        <ele>407</ele>
        <time>2012-01-22T11:45:27Z</time>
      </trkpt>
      <trkpt lat="47.29965" lon="4.9663">
        <ele>408</ele>
        <time>2012-01-22T11:45:31Z</time>
      </trkpt>
      <trkpt lat="47.29952" lon="4.96672">
        <ele>405</ele>
        <time>2012-01-22T11:45:35Z</time>
      </trkpt>
      <trkpt lat="47.29928" lon="4.96708">
        <ele>400</ele>
        <time>2012-01-22T11:45:39Z</time>
      </trkpt>
      <trkpt lat="47.29907" lon="4.96757">
        <ele>397</ele>
        <time>2012-01-22T11:45:43Z</time>
      </trkpt>
      <trkpt lat="47.2987" lon="4.96852">
        <ele>393</ele>
        <time>2012-01-22T11:45:54Z</time>
      </trkpt>
      <trkpt lat="47.29852" lon="4.96905">
        <ele>393</ele>
        <time>2012-01-22T11:46:00Z</time>
      </trkpt>
      <trkpt lat="47.29845" lon="4.9693">
        <ele>392</ele>
        <time>2012-01-22T11:46:02Z</time>
      </trkpt>
      <trkpt lat="47.29833" lon="4.96995">
        <ele>391</ele>
        <time>2012-01-22T11:46:06Z</time>
      </trkpt>
      <trkpt lat="47.29827" lon="4.97045">
        <ele>389</ele>
        <time>2012-01-22T11:46:11Z</time>
      </trkpt>
      <trkpt lat="47.29835" lon="4.97095">
        <ele>387</ele>
        <time>2012-01-22T11:46:15Z</time>
      </trkpt>
      <trkpt lat="47.29837" lon="4.97118">
        <ele>387</ele>
        <time>2012-01-22T11:46:17Z</time>
      </trkpt>
      <trkpt lat="47.29842" lon="4.97172">
        <ele>388</ele>
        <time>2012-01-22T11:46:23Z</time>
      </trkpt>
      <trkpt lat="47.29828" lon="4.9718">
        <ele>391</ele>
        <time>2012-01-22T11:46:36Z</time>
      </trkpt>
      <trkpt lat="47.29813" lon="4.97188">
        <ele>392</ele>
        <time>2012-01-22T11:46:44Z</time>
      </trkpt>
      <trkpt lat="47.29795" lon="4.97192">
        <ele>392</ele>
        <time>2012-01-22T11:46:50Z</time>
      </trkpt>
      <trkpt lat="47.2978" lon="4.97193">
        <ele>393</ele>
        <time>2012-01-22T11:46:57Z</time>
      </trkpt>
      <trkpt lat="47.29763" lon="4.97185">
        <ele>393</ele>
        <time>2012-01-22T11:47:03Z</time>
      </trkpt>
      <trkpt lat="47.29738" lon="4.97177">
        <ele>393</ele>
        <time>2012-01-22T11:47:12Z</time>
      </trkpt>
      <trkpt lat="47.29722" lon="4.9718">
        <ele>393</ele>
        <time>2012-01-22T11:47:18Z</time>
      </trkpt>
      <trkpt lat="47.29708" lon="4.97183">
        <ele>392</ele>
        <time>2012-01-22T11:47:24Z</time>
      </trkpt>
      <trkpt lat="47.29693" lon="4.97173">
        <ele>392</ele>
        <time>2012-01-22T11:47:33Z</time>
      </trkpt>
      <trkpt lat="47.29687" lon="4.97195">
        <ele>393</ele>
        <time>2012-01-22T11:47:39Z</time>
      </trkpt>
      <trkpt lat="47.29675" lon="4.97205">
        <ele>393</ele>
        <time>2012-01-22T11:47:45Z</time>
      </trkpt>
      <trkpt lat="47.29663" lon="4.9719">
        <ele>393</ele>
        <time>2012-01-22T11:47:51Z</time>
      </trkpt>
      <trkpt lat="47.2965" lon="4.9718">
        <ele>393</ele>
        <time>2012-01-22T11:48:00Z</time>
      </trkpt>
      <trkpt lat="47.29638" lon="4.97167">
        <ele>393</ele>
        <time>2012-01-22T11:48:04Z</time>
      </trkpt>
      <trkpt lat="47.29628" lon="4.97148">
        <ele>393</ele>
        <time>2012-01-22T11:48:08Z</time>
      </trkpt>
      <trkpt lat="47.29618" lon="4.97132">
        <ele>393</ele>
        <time>2012-01-22T11:48:12Z</time>
      </trkpt>
      <trkpt lat="47.2961" lon="4.97115">
        <ele>394</ele>
        <time>2012-01-22T11:48:19Z</time>
      </trkpt>
      <trkpt lat="47.29595" lon="4.97113">
        <ele>393</ele>
        <time>2012-01-22T11:48:27Z</time>
      </trkpt>
      <trkpt lat="47.29587" lon="4.9709">
        <ele>393</ele>
        <time>2012-01-22T11:48:35Z</time>
      </trkpt>
      <trkpt lat="47.29575" lon="4.9708">
        <ele>388</ele>
        <time>2012-01-22T11:48:46Z</time>
      </trkpt>
      <trkpt lat="47.2956" lon="4.97087">
        <ele>386</ele>
        <time>2012-01-22T11:48:52Z</time>
      </trkpt>
      <trkpt lat="47.2954" lon="4.97093">
        <ele>386</ele>
        <time>2012-01-22T11:50:10Z</time>
      </trkpt>
      <trkpt lat="47.29527" lon="4.97105">
        <ele>386</ele>
        <time>2012-01-22T11:50:16Z</time>
      </trkpt>
      <trkpt lat="47.29515" lon="4.97122">
        <ele>386</ele>
        <time>2012-01-22T11:50:20Z</time>
      </trkpt>
      <trkpt lat="47.295" lon="4.97142">
        <ele>388</ele>
        <time>2012-01-22T11:50:27Z</time>
      </trkpt>
      <trkpt lat="47.29493" lon="4.97167">
        <ele>389</ele>
        <time>2012-01-22T11:50:35Z</time>
      </trkpt>
      <trkpt lat="47.29482" lon="4.97183">
        <ele>388</ele>
        <time>2012-01-22T11:50:44Z</time>
      </trkpt>
      <trkpt lat="47.29468" lon="4.97202">
        <ele>388</ele>
        <time>2012-01-22T11:50:52Z</time>
      </trkpt>
      <trkpt lat="47.29453" lon="4.9722">
        <ele>388</ele>
        <time>2012-01-22T11:51:00Z</time>
      </trkpt>
      <trkpt lat="47.2944" lon="4.97238">
        <ele>391</ele>
        <time>2012-01-22T11:51:09Z</time>
      </trkpt>
      <trkpt lat="47.2942" lon="4.97255">
        <ele>390</ele>
        <time>2012-01-22T11:51:17Z</time>
      </trkpt>
      <trkpt lat="47.29407" lon="4.97267">
        <ele>390</ele>
        <time>2012-01-22T11:51:21Z</time>
      </trkpt>
      <trkpt lat="47.29388" lon="4.9729">
        <ele>390</ele>
        <time>2012-01-22T11:51:30Z</time>
      </trkpt>
      <trkpt lat="47.29373" lon="4.97303">
        <ele>388</ele>
        <time>2012-01-22T11:51:34Z</time>
      </trkpt>
      <trkpt lat="47.29362" lon="4.97322">
        <ele>388</ele>
        <time>2012-01-22T11:51:38Z</time>
      </trkpt>
      <trkpt lat="47.29343" lon="4.97353">
        <ele>387</ele>
        <time>2012-01-22T11:51:44Z</time>
      </trkpt>
      <trkpt lat="47.29333" lon="4.97372">
        <ele>388</ele>
        <time>2012-01-22T11:51:49Z</time>
      </trkpt>
      <trkpt lat="47.29312" lon="4.9741">
        <ele>392</ele>
        <time>2012-01-22T11:51:59Z</time>
      </trkpt>
      <trkpt lat="47.29302" lon="4.97428">
        <ele>391</ele>
        <time>2012-01-22T11:52:03Z</time>
      </trkpt>
      <trkpt lat="47.29292" lon="4.97442">
        <ele>390</ele>
        <time>2012-01-22T11:52:05Z</time>
      </trkpt>
      <trkpt lat="47.2928" lon="4.9746">
        <ele>388</ele>
        <time>2012-01-22T11:52:10Z</time>
      </trkpt>
      <trkpt lat="47.2927" lon="4.97478">
        <ele>387</ele>
        <time>2012-01-22T11:52:14Z</time>
      </trkpt>
      <trkpt lat="47.29258" lon="4.97497">
        <ele>387</ele>
        <time>2012-01-22T11:52:18Z</time>
      </trkpt>
      <trkpt lat="47.2925" lon="4.97517">
        <ele>386</ele>
        <time>2012-01-22T11:52:22Z</time>
      </trkpt>
      <trkpt lat="47.29243" lon="4.97537">
        <ele>386</ele>
        <time>2012-01-22T11:52:26Z</time>
      </trkpt>
      <trkpt lat="47.2924" lon="4.97565">
        <ele>386</ele>
        <time>2012-01-22T11:52:31Z</time>
      </trkpt>
      <trkpt lat="47.29242" lon="4.97593">
        <ele>385</ele>
        <time>2012-01-22T11:52:35Z</time>
      </trkpt>
      <trkpt lat="47.29248" lon="4.97625">
        <ele>384</ele>
        <time>2012-01-22T11:52:39Z</time>
      </trkpt>
      <trkpt lat="47.29257" lon="4.97658">
        <ele>383</ele>
        <time>2012-01-22T11:52:43Z</time>
      </trkpt>
      <trkpt lat="47.29267" lon="4.97683">
        <ele>381</ele>
        <time>2012-01-22T11:52:47Z</time>
      </trkpt>
      <trkpt lat="47.29277" lon="4.97708">
        <ele>381</ele>
        <time>2012-01-22T11:52:51Z</time>
      </trkpt>
      <trkpt lat="47.2929" lon="4.97725">
        <ele>381</ele>
        <time>2012-01-22T11:52:56Z</time>
      </trkpt>
      <trkpt lat="47.29302" lon="4.9774">
        <ele>381</ele>
        <time>2012-01-22T11:53:00Z</time>
      </trkpt>
      <trkpt lat="47.29312" lon="4.97758">
        <ele>380</ele>
        <time>2012-01-22T11:53:08Z</time>
      </trkpt>
      <trkpt lat="47.29322" lon="4.97773">
        <ele>382</ele>
        <time>2012-01-22T11:53:21Z</time>
      </trkpt>
      <trkpt lat="47.29335" lon="4.97782">
        <ele>387</ele>
        <time>2012-01-22T11:53:44Z</time>
      </trkpt>
      <trkpt lat="47.29348" lon="4.97788">
        <ele>388</ele>
        <time>2012-01-22T11:54:01Z</time>
      </trkpt>
      <trkpt lat="47.29362" lon="4.97795">
        <ele>387</ele>
        <time>2012-01-22T11:54:26Z</time>
      </trkpt>
      <trkpt lat="47.29365" lon="4.97822">
        <ele>386</ele>
        <time>2012-01-22T11:54:34Z</time>
      </trkpt>
      <trkpt lat="47.2936" lon="4.9785">
        <ele>386</ele>
        <time>2012-01-22T11:54:38Z</time>
      </trkpt>
      <trkpt lat="47.29347" lon="4.97863">
        <ele>388</ele>
        <time>2012-01-22T11:54:47Z</time>
      </trkpt>
      <trkpt lat="47.2933" lon="4.97865">
        <ele>388</ele>
        <time>2012-01-22T11:54:53Z</time>
      </trkpt>
      <trkpt lat="47.29308" lon="4.97862">
        <ele>388</ele>
        <time>2012-01-22T11:54:59Z</time>
      </trkpt>
      <trkpt lat="47.29293" lon="4.97865">
        <ele>387</ele>
        <time>2012-01-22T11:55:06Z</time>
      </trkpt>
      <trkpt lat="47.29278" lon="4.97872">
        <ele>390</ele>
        <time>2012-01-22T11:55:16Z</time>
      </trkpt>
      <trkpt lat="47.29263" lon="4.9788">
        <ele>391</ele>
        <time>2012-01-22T11:55:24Z</time>
      </trkpt>
      <trkpt lat="47.29253" lon="4.97893">
        <ele>392</ele>
        <time>2012-01-22T11:55:33Z</time>
      </trkpt>
      <trkpt lat="47.29243" lon="4.97908">
        <ele>392</ele>
        <time>2012-01-22T11:55:41Z</time>
      </trkpt>
      <trkpt lat="47.29237" lon="4.97927">
        <ele>387</ele>
        <time>2012-01-22T11:56:40Z</time>
      </trkpt>
      <trkpt lat="47.29243" lon="4.97952">
        <ele>387</ele>
        <time>2012-01-22T11:56:44Z</time>
      </trkpt>
      <trkpt lat="47.29253" lon="4.97977">
        <ele>386</ele>
        <time>2012-01-22T11:56:48Z</time>
      </trkpt>
      <trkpt lat="47.29265" lon="4.98003">
        <ele>386</ele>
        <time>2012-01-22T11:56:52Z</time>
      </trkpt>
      <trkpt lat="47.29282" lon="4.98037">
        <ele>387</ele>
        <time>2012-01-22T11:57:01Z</time>
      </trkpt>
      <trkpt lat="47.2929" lon="4.98058">
        <ele>386</ele>
        <time>2012-01-22T11:57:05Z</time>
      </trkpt>
      <trkpt lat="47.293" lon="4.98082">
        <ele>385</ele>
        <time>2012-01-22T11:57:09Z</time>
      </trkpt>
      <trkpt lat="47.29313" lon="4.98107">
        <ele>386</ele>
        <time>2012-01-22T11:57:13Z</time>
      </trkpt>
      <trkpt lat="47.29332" lon="4.98137">
        <ele>387</ele>
        <time>2012-01-22T11:57:20Z</time>
      </trkpt>
      <trkpt lat="47.29345" lon="4.98153">
        <ele>388</ele>
        <time>2012-01-22T11:57:24Z</time>
      </trkpt>
      <trkpt lat="47.29358" lon="4.98163">
        <ele>388</ele>
        <time>2012-01-22T11:57:28Z</time>
      </trkpt>
      <trkpt lat="47.29365" lon="4.98182">
        <ele>387</ele>
        <time>2012-01-22T11:57:38Z</time>
      </trkpt>
      <trkpt lat="47.29372" lon="4.98203">
        <ele>386</ele>
        <time>2012-01-22T11:57:49Z</time>
      </trkpt>
      <trkpt lat="47.29382" lon="4.98217">
        <ele>387</ele>
        <time>2012-01-22T11:57:53Z</time>
      </trkpt>
      <trkpt lat="47.29393" lon="4.9823">
        <ele>387</ele>
        <time>2012-01-22T11:57:57Z</time>
      </trkpt>
      <trkpt lat="47.29412" lon="4.98258">
        <ele>387</ele>
        <time>2012-01-22T11:58:06Z</time>
      </trkpt>
      <trkpt lat="47.29403" lon="4.98277">
        <ele>386</ele>
        <time>2012-01-22T11:58:12Z</time>
      </trkpt>
      <trkpt lat="47.29403" lon="4.98297">
        <ele>387</ele>
        <time>2012-01-22T11:58:18Z</time>
      </trkpt>
      <trkpt lat="47.29395" lon="4.98315">
        <ele>388</ele>
        <time>2012-01-22T11:58:22Z</time>
      </trkpt>
      <trkpt lat="47.29382" lon="4.98312">
        <ele>386</ele>
        <time>2012-01-22T11:58:39Z</time>
      </trkpt>
      <trkpt lat="47.29368" lon="4.98302">
        <ele>386</ele>
        <time>2012-01-22T11:58:45Z</time>
      </trkpt>
      <trkpt lat="47.29353" lon="4.98287">
        <ele>386</ele>
        <time>2012-01-22T11:58:52Z</time>
      </trkpt>
      <trkpt lat="47.29337" lon="4.98278">
        <ele>385</ele>
        <time>2012-01-22T11:58:58Z</time>
      </trkpt>
      <trkpt lat="47.29325" lon="4.98268">
        <ele>384</ele>
        <time>2012-01-22T11:59:02Z</time>
      </trkpt>
      <trkpt lat="47.29312" lon="4.98262">
        <ele>383</ele>
        <time>2012-01-22T11:59:04Z</time>
      </trkpt>
      <trkpt lat="47.29295" lon="4.98257">
        <ele>382</ele>
        <time>2012-01-22T11:59:09Z</time>
      </trkpt>
      <trkpt lat="47.29252" lon="4.98247">
        <ele>381</ele>
        <time>2012-01-22T11:59:19Z</time>
      </trkpt>
      <trkpt lat="47.29237" lon="4.98248">
        <ele>380</ele>
        <time>2012-01-22T11:59:23Z</time>
      </trkpt>
      <trkpt lat="47.29213" lon="4.98253">
        <ele>381</ele>
        <time>2012-01-22T11:59:30Z</time>
      </trkpt>
      <trkpt lat="47.29202" lon="4.98263">
        <ele>382</ele>
        <time>2012-01-22T11:59:34Z</time>
      </trkpt>
      <trkpt lat="47.29188" lon="4.98267">
        <ele>384</ele>
        <time>2012-01-22T11:59:38Z</time>
      </trkpt>
      <trkpt lat="47.29172" lon="4.98262">
        <ele>385</ele>
        <time>2012-01-22T11:59:44Z</time>
      </trkpt>
      <trkpt lat="47.29153" lon="4.98255">
        <ele>386</ele>
        <time>2012-01-22T11:59:51Z</time>
      </trkpt>
      <trkpt lat="47.29137" lon="4.98253">
        <ele>387</ele>
        <time>2012-01-22T11:59:57Z</time>
      </trkpt>
      <trkpt lat="47.29118" lon="4.98248">
        <ele>388</ele>
        <time>2012-01-22T12:00:05Z</time>
      </trkpt>
      <trkpt lat="47.29095" lon="4.98233">
        <ele>388</ele>
        <time>2012-01-22T12:00:14Z</time>
      </trkpt>
      <trkpt lat="47.2908" lon="4.98225">
        <ele>389</ele>
        <time>2012-01-22T12:00:20Z</time>
      </trkpt>
      <trkpt lat="47.29067" lon="4.98218">
        <ele>390</ele>
        <time>2012-01-22T12:00:26Z</time>
      </trkpt>
      <trkpt lat="47.2906" lon="4.98193">
        <ele>390</ele>
        <time>2012-01-22T12:01:44Z</time>
      </trkpt>
      <trkpt lat="47.29047" lon="4.98178">
        <ele>390</ele>
        <time>2012-01-22T12:01:52Z</time>
      </trkpt>
      <trkpt lat="47.29033" lon="4.98173">
        <ele>391</ele>
        <time>2012-01-22T12:01:56Z</time>
      </trkpt>
      <trkpt lat="47.29017" lon="4.98173">
        <ele>391</ele>
        <time>2012-01-22T12:02:03Z</time>
      </trkpt>
      <trkpt lat="47.29003" lon="4.98188">
        <ele>392</ele>
        <time>2012-01-22T12:02:09Z</time>
      </trkpt>
      <trkpt lat="47.2899" lon="4.9821">
        <ele>392</ele>
        <time>2012-01-22T12:02:15Z</time>
      </trkpt>
      <trkpt lat="47.28977" lon="4.98232">
        <ele>389</ele>
        <time>2012-01-22T12:02:20Z</time>
      </trkpt>
      <trkpt lat="47.28967" lon="4.9825">
        <ele>387</ele>
        <time>2012-01-22T12:02:24Z</time>
      </trkpt>
      <trkpt lat="47.28955" lon="4.98272">
        <ele>385</ele>
        <time>2012-01-22T12:02:30Z</time>
      </trkpt>
      <trkpt lat="47.28943" lon="4.98293">
        <ele>383</ele>
        <time>2012-01-22T12:02:36Z</time>
      </trkpt>
      <trkpt lat="47.28932" lon="4.98308">
        <ele>384</ele>
        <time>2012-01-22T12:02:43Z</time>
      </trkpt>
      <trkpt lat="47.28932" lon="4.98333">
        <ele>383</ele>
        <time>2012-01-22T12:02:49Z</time>
      </trkpt>
      <trkpt lat="47.28918" lon="4.98353">
        <ele>381</ele>
        <time>2012-01-22T12:03:06Z</time>
      </trkpt>
      <trkpt lat="47.2891" lon="4.98375">
        <ele>379</ele>
        <time>2012-01-22T12:03:10Z</time>
      </trkpt>
      <trkpt lat="47.28878" lon="4.98423">
        <ele>374</ele>
        <time>2012-01-22T12:03:18Z</time>
      </trkpt>
      <trkpt lat="47.28872" lon="4.98443">
        <ele>373</ele>
        <time>2012-01-22T12:03:23Z</time>
      </trkpt>
      <trkpt lat="47.28875" lon="4.98472">
        <ele>373</ele>
        <time>2012-01-22T12:03:27Z</time>
      </trkpt>
      <trkpt lat="47.28883" lon="4.985">
        <ele>373</ele>
        <time>2012-01-22T12:03:31Z</time>
      </trkpt>
      <trkpt lat="47.28888" lon="4.9853">
        <ele>372</ele>
        <time>2012-01-22T12:03:35Z</time>
      </trkpt>
      <trkpt lat="47.28893" lon="4.98565">
        <ele>371</ele>
        <time>2012-01-22T12:03:39Z</time>
      </trkpt>
      <trkpt lat="47.2889" lon="4.98592">
        <ele>371</ele>
        <time>2012-01-22T12:03:44Z</time>
      </trkpt>
      <trkpt lat="47.2888" lon="4.98618">
        <ele>370</ele>
        <time>2012-01-22T12:03:48Z</time>
      </trkpt>
      <trkpt lat="47.2887" lon="4.98645">
        <ele>368</ele>
        <time>2012-01-22T12:03:52Z</time>
      </trkpt>
      <trkpt lat="47.28862" lon="4.98667">
        <ele>366</ele>
        <time>2012-01-22T12:03:56Z</time>
      </trkpt>
      <trkpt lat="47.28852" lon="4.98682">
        <ele>364</ele>
        <time>2012-01-22T12:04:00Z</time>
      </trkpt>
      <trkpt lat="47.28838" lon="4.98702">
        <ele>362</ele>
        <time>2012-01-22T12:04:07Z</time>
      </trkpt>
      <trkpt lat="47.28828" lon="4.98718">
        <ele>362</ele>
        <time>2012-01-22T12:04:13Z</time>
      </trkpt>
      <trkpt lat="47.28813" lon="4.98725">
        <ele>362</ele>
        <time>2012-01-22T12:04:17Z</time>
      </trkpt>
      <trkpt lat="47.288" lon="4.98742">
        <ele>362</ele>
        <time>2012-01-22T12:04:23Z</time>
      </trkpt>
      <trkpt lat="47.28805" lon="4.98772">
        <ele>358</ele>
        <time>2012-01-22T12:04:28Z</time>
      </trkpt>
      <trkpt lat="47.28805" lon="4.98798">
        <ele>357</ele>
        <time>2012-01-22T12:04:32Z</time>
      </trkpt>
      <trkpt lat="47.28803" lon="4.98825">
        <ele>357</ele>
        <time>2012-01-22T12:04:36Z</time>
      </trkpt>
      <trkpt lat="47.288" lon="4.98847">
        <ele>355</ele>
        <time>2012-01-22T12:04:40Z</time>
      </trkpt>
      <trkpt lat="47.28793" lon="4.98865">
        <ele>355</ele>
        <time>2012-01-22T12:04:44Z</time>
      </trkpt>
      <trkpt lat="47.28798" lon="4.98892">
        <ele>356</ele>
        <time>2012-01-22T12:04:49Z</time>
      </trkpt>
      <trkpt lat="47.28792" lon="4.98913">
        <ele>357</ele>
        <time>2012-01-22T12:04:53Z</time>
      </trkpt>
      <trkpt lat="47.28788" lon="4.98937">
        <ele>355</ele>
        <time>2012-01-22T12:04:57Z</time>
      </trkpt>
      <trkpt lat="47.28782" lon="4.9896">
        <ele>354</ele>
        <time>2012-01-22T12:05:01Z</time>
      </trkpt>
      <trkpt lat="47.2877" lon="4.98985">
        <ele>351</ele>
        <time>2012-01-22T12:05:05Z</time>
      </trkpt>
      <trkpt lat="47.28742" lon="4.99037">
        <ele>346</ele>
        <time>2012-01-22T12:05:14Z</time>
      </trkpt>
      <trkpt lat="47.28735" lon="4.99063">
        <ele>345</ele>
        <time>2012-01-22T12:05:18Z</time>
      </trkpt>
      <trkpt lat="47.28727" lon="4.99092">
        <ele>344</ele>
        <time>2012-01-22T12:05:22Z</time>
      </trkpt>
      <trkpt lat="47.28712" lon="4.9912">
        <ele>342</ele>
        <time>2012-01-22T12:05:26Z</time>
      </trkpt>
      <trkpt lat="47.28702" lon="4.99133">
        <ele>351</ele>
        <time>2012-01-22T12:05:58Z</time>
      </trkpt>
      <trkpt lat="47.28688" lon="4.99145">
        <ele>347</ele>
        <time>2012-01-22T12:06:21Z</time>
      </trkpt>
      <trkpt lat="47.28697" lon="4.99168">
        <ele>349</ele>
        <time>2012-01-22T12:06:25Z</time>
      </trkpt>
      <trkpt lat="47.28698" lon="4.99197">
        <ele>349</ele>
        <time>2012-01-22T12:06:30Z</time>
      </trkpt>
      <trkpt lat="47.287" lon="4.99217">
        <ele>346</ele>
        <time>2012-01-22T12:06:34Z</time>
      </trkpt>
      <trkpt lat="47.28718" lon="4.99232">
        <ele>343</ele>
        <time>2012-01-22T12:06:46Z</time>
      </trkpt>
      <trkpt lat="47.28737" lon="4.99245">
        <ele>342</ele>
        <time>2012-01-22T12:06:51Z</time>
      </trkpt>
      <trkpt lat="47.28758" lon="4.9925">
        <ele>340</ele>
        <time>2012-01-22T12:06:55Z</time>
      </trkpt>
      <trkpt lat="47.28777" lon="4.99262">
        <ele>339</ele>
        <time>2012-01-22T12:06:59Z</time>
      </trkpt>
      <trkpt lat="47.28843" lon="4.99298">
        <ele>337</ele>
        <time>2012-01-22T12:07:12Z</time>
      </trkpt>
      <trkpt lat="47.28863" lon="4.9931">
        <ele>338</ele>
        <time>2012-01-22T12:07:16Z</time>
      </trkpt>
      <trkpt lat="47.28902" lon="4.99335">
        <ele>339</ele>
        <time>2012-01-22T12:07:24Z</time>
      </trkpt>
      <trkpt lat="47.28928" lon="4.99345">
        <ele>340</ele>
        <time>2012-01-22T12:07:28Z</time>
      </trkpt>
      <trkpt lat="47.28947" lon="4.99338">
        <ele>341</ele>
        <time>2012-01-22T12:07:33Z</time>
      </trkpt>
      <trkpt lat="47.28967" lon="4.99338">
        <ele>341</ele>
        <time>2012-01-22T12:07:37Z</time>
      </trkpt>
      <trkpt lat="47.28987" lon="4.99342">
        <ele>342</ele>
        <time>2012-01-22T12:07:41Z</time>
      </trkpt>
      <trkpt lat="47.29012" lon="4.9935">
        <ele>340</ele>
        <time>2012-01-22T12:07:45Z</time>
      </trkpt>
      <trkpt lat="47.2903" lon="4.99363">
        <ele>339</ele>
        <time>2012-01-22T12:07:50Z</time>
      </trkpt>
      <trkpt lat="47.29048" lon="4.99373">
        <ele>339</ele>
        <time>2012-01-22T12:07:54Z</time>
      </trkpt>
      <trkpt lat="47.29062" lon="4.99377">
        <ele>340</ele>
        <time>2012-01-22T12:07:58Z</time>
      </trkpt>
      <trkpt lat="47.29075" lon="4.99387">
        <ele>338</ele>
        <time>2012-01-22T12:08:04Z</time>
      </trkpt>
      <trkpt lat="47.29067" lon="4.99403">
        <ele>333</ele>
        <time>2012-01-22T12:09:07Z</time>
      </trkpt>
      <trkpt lat="47.29065" lon="4.99433">
        <ele>330</ele>
        <time>2012-01-22T12:09:11Z</time>
      </trkpt>
      <trkpt lat="47.29067" lon="4.99453">
        <ele>328</ele>
        <time>2012-01-22T12:09:14Z</time>
      </trkpt>
      <trkpt lat="47.29073" lon="4.99498">
        <ele>323</ele>
        <time>2012-01-22T12:09:18Z</time>
      </trkpt>
      <trkpt lat="47.29083" lon="4.9952">
        <ele>321</ele>
        <time>2012-01-22T12:09:20Z</time>
      </trkpt>
      <trkpt lat="47.29095" lon="4.99538">
        <ele>319</ele>
        <time>2012-01-22T12:09:22Z</time>
      </trkpt>
      <trkpt lat="47.29138" lon="4.99603">
        <ele>310</ele>
        <time>2012-01-22T12:09:30Z</time>
      </trkpt>
      <trkpt lat="47.29152" lon="4.9962">
        <ele>308</ele>
        <time>2012-01-22T12:09:32Z</time>
      </trkpt>
      <trkpt lat="47.29205" lon="4.9968">
        <ele>301</ele>
        <time>2012-01-22T12:09:39Z</time>
      </trkpt>
      <trkpt lat="47.29223" lon="4.99688">
        <ele>300</ele>
        <time>2012-01-22T12:09:41Z</time>
      </trkpt>
      <trkpt lat="47.2926" lon="4.99705">
        <ele>298</ele>
        <time>2012-01-22T12:09:45Z</time>
      </trkpt>
      <trkpt lat="47.29273" lon="4.99717">
        <ele>297</ele>
        <time>2012-01-22T12:09:47Z</time>
      </trkpt>
      <trkpt lat="47.2928" lon="4.99737">
        <ele>297</ele>
        <time>2012-01-22T12:09:49Z</time>
      </trkpt>
      <trkpt lat="47.2928" lon="4.99765">
        <ele>295</ele>
        <time>2012-01-22T12:09:51Z</time>
      </trkpt>
      <trkpt lat="47.29268" lon="4.9984">
        <ele>291</ele>
        <time>2012-01-22T12:09:55Z</time>
      </trkpt>
      <trkpt lat="47.2926" lon="4.99868">
        <ele>290</ele>
        <time>2012-01-22T12:09:57Z</time>
      </trkpt>
      <trkpt lat="47.29242" lon="4.9993">
        <ele>288</ele>
        <time>2012-01-22T12:10:06Z</time>
      </trkpt>
      <trkpt lat="47.29253" lon="4.99942">
        <ele>290</ele>
        <time>2012-01-22T12:10:14Z</time>
      </trkpt>
      <trkpt lat="47.29267" lon="4.99948">
        <ele>290</ele>
        <time>2012-01-22T12:10:18Z</time>
      </trkpt>
      <trkpt lat="47.2928" lon="4.99952">
        <ele>289</ele>
        <time>2012-01-22T12:10:27Z</time>
      </trkpt>
      <trkpt lat="47.29315" lon="4.9996">
        <ele>285</ele>
        <time>2012-01-22T12:10:39Z</time>
      </trkpt>
      <trkpt lat="47.29315" lon="4.99987">
        <ele>287</ele>
        <time>2012-01-22T12:10:46Z</time>
      </trkpt>
      <trkpt lat="47.29313" lon="5.00013">
        <ele>288</ele>
        <time>2012-01-22T12:10:52Z</time>
      </trkpt>
      <trkpt lat="47.29328" lon="5.00018">
        <ele>287</ele>
        <time>2012-01-22T12:10:56Z</time>
      </trkpt>
      <trkpt lat="47.29347" lon="5.0002">
        <ele>286</ele>
        <time>2012-01-22T12:11:00Z</time>
      </trkpt>
      <trkpt lat="47.29372" lon="5.00025">
        <ele>285</ele>
        <time>2012-01-22T12:11:04Z</time>
      </trkpt>
      <trkpt lat="47.2939" lon="5.00027">
        <ele>284</ele>
        <time>2012-01-22T12:11:09Z</time>
      </trkpt>
      <trkpt lat="47.29422" lon="5.00032">
        <ele>283</ele>
        <time>2012-01-22T12:11:15Z</time>
      </trkpt>
      <trkpt lat="47.29443" lon="5.00033">
        <ele>282</ele>
        <time>2012-01-22T12:11:19Z</time>
      </trkpt>
      <trkpt lat="47.29463" lon="5.0003">
        <ele>283</ele>
        <time>2012-01-22T12:11:23Z</time>
      </trkpt>
      <trkpt lat="47.2948" lon="5.00032">
        <ele>283</ele>
        <time>2012-01-22T12:11:25Z</time>
      </trkpt>
      <trkpt lat="47.29502" lon="5.00042">
        <ele>283</ele>
        <time>2012-01-22T12:11:30Z</time>
      </trkpt>
      <trkpt lat="47.29523" lon="5.0005">
        <ele>281</ele>
        <time>2012-01-22T12:11:34Z</time>
      </trkpt>
      <trkpt lat="47.29545" lon="5.00055">
        <ele>282</ele>
        <time>2012-01-22T12:11:38Z</time>
      </trkpt>
      <trkpt lat="47.29565" lon="5.00057">
        <ele>282</ele>
        <time>2012-01-22T12:11:42Z</time>
      </trkpt>
      <trkpt lat="47.29598" lon="5.00057">
        <ele>284</ele>
        <time>2012-01-22T12:11:51Z</time>
      </trkpt>
      <trkpt lat="47.29633" lon="5.00062">
        <ele>283</ele>
        <time>2012-01-22T12:12:10Z</time>
      </trkpt>
      <trkpt lat="47.29657" lon="5.00068">
        <ele>282</ele>
        <time>2012-01-22T12:12:14Z</time>
      </trkpt>
      <trkpt lat="47.29683" lon="5.00078">
        <ele>282</ele>
        <time>2012-01-22T12:12:18Z</time>
      </trkpt>
      <trkpt lat="47.29712" lon="5.00088">
        <ele>281</ele>
        <time>2012-01-22T12:12:22Z</time>
      </trkpt>
      <trkpt lat="47.29725" lon="5.00092">
        <ele>281</ele>
        <time>2012-01-22T12:12:24Z</time>
      </trkpt>
      <trkpt lat="47.29768" lon="5.00102">
        <ele>283</ele>
        <time>2012-01-22T12:12:31Z</time>
      </trkpt>
      <trkpt lat="47.2982" lon="5.00115">
        <ele>286</ele>
        <time>2012-01-22T12:12:41Z</time>
      </trkpt>
      <trkpt lat="47.29855" lon="5.00125">
        <ele>288</ele>
        <time>2012-01-22T12:12:49Z</time>
      </trkpt>
      <trkpt lat="47.29875" lon="5.00132">
        <ele>290</ele>
        <time>2012-01-22T12:12:56Z</time>
      </trkpt>
      <trkpt lat="47.29892" lon="5.00132">
        <ele>293</ele>
        <time>2012-01-22T12:13:02Z</time>
      </trkpt>
      <trkpt lat="47.29907" lon="5.0013">
        <ele>297</ele>
        <time>2012-01-22T12:13:08Z</time>
      </trkpt>
      <trkpt lat="47.29935" lon="5.00127">
        <ele>299</ele>
        <time>2012-01-22T12:13:17Z</time>
      </trkpt>
      <trkpt lat="47.29958" lon="5.00127">
        <ele>297</ele>
        <time>2012-01-22T12:13:23Z</time>
      </trkpt>
      <trkpt lat="47.29977" lon="5.00127">
        <ele>296</ele>
        <time>2012-01-22T12:13:27Z</time>
      </trkpt>
      <trkpt lat="47.29998" lon="5.00128">
        <ele>295</ele>
        <time>2012-01-22T12:13:31Z</time>
      </trkpt>
      <trkpt lat="47.30015" lon="5.00138">
        <ele>294</ele>
        <time>2012-01-22T12:13:36Z</time>
      </trkpt>
      <trkpt lat="47.3001" lon="5.00172">
        <ele>292</ele>
        <time>2012-01-22T12:13:40Z</time>
      </trkpt>
      <trkpt lat="47.30022" lon="5.00205">
        <ele>290</ele>
        <time>2012-01-22T12:13:44Z</time>
      </trkpt>
      <trkpt lat="47.30033" lon="5.00217">
        <ele>289</ele>
        <time>2012-01-22T12:13:46Z</time>
      </trkpt>
      <trkpt lat="47.30075" lon="5.00255">
        <ele>288</ele>
        <time>2012-01-22T12:13:52Z</time>
      </trkpt>
      <trkpt lat="47.30098" lon="5.00273">
        <ele>288</ele>
        <time>2012-01-22T12:13:57Z</time>
      </trkpt>
      <trkpt lat="47.30122" lon="5.00287">
        <ele>291</ele>
        <time>2012-01-22T12:14:01Z</time>
      </trkpt>
      <trkpt lat="47.30143" lon="5.00298">
        <ele>291</ele>
        <time>2012-01-22T12:14:05Z</time>
      </trkpt>
      <trkpt lat="47.30163" lon="5.0032">
        <ele>290</ele>
        <time>2012-01-22T12:14:09Z</time>
      </trkpt>
      <trkpt lat="47.30183" lon="5.00335">
        <ele>289</ele>
        <time>2012-01-22T12:14:11Z</time>
      </trkpt>
      <trkpt lat="47.30198" lon="5.00343">
        <ele>289</ele>
        <time>2012-01-22T12:14:14Z</time>
      </trkpt>
      <trkpt lat="47.30213" lon="5.00353">
        <ele>288</ele>
        <time>2012-01-22T12:14:16Z</time>
      </trkpt>
      <trkpt lat="47.30238" lon="5.00367">
        <ele>288</ele>
        <time>2012-01-22T12:14:20Z</time>
      </trkpt>
      <trkpt lat="47.3029" lon="5.00398">
        <ele>288</ele>
        <time>2012-01-22T12:14:30Z</time>
      </trkpt>
      <trkpt lat="47.30295" lon="5.00437">
        <ele>284</ele>
        <time>2012-01-22T12:14:34Z</time>
      </trkpt>
      <trkpt lat="47.30305" lon="5.00462">
        <ele>280</ele>
        <time>2012-01-22T12:14:39Z</time>
      </trkpt>
      <trkpt lat="47.30327" lon="5.00475">
        <ele>278</ele>
        <time>2012-01-22T12:14:43Z</time>
      </trkpt>
      <trkpt lat="47.3035" lon="5.00483">
        <ele>278</ele>
        <time>2012-01-22T12:14:47Z</time>
      </trkpt>
      <trkpt lat="47.30378" lon="5.00493">
        <ele>276</ele>
        <time>2012-01-22T12:14:51Z</time>
      </trkpt>
      <trkpt lat="47.30412" lon="5.00487">
        <ele>276</ele>
        <time>2012-01-22T12:14:55Z</time>
      </trkpt>
      <trkpt lat="47.30435" lon="5.0049">
        <ele>275</ele>
        <time>2012-01-22T12:15:00Z</time>
      </trkpt>
      <trkpt lat="47.30458" lon="5.00492">
        <ele>274</ele>
        <time>2012-01-22T12:15:04Z</time>
      </trkpt>
      <trkpt lat="47.30475" lon="5.005">
        <ele>274</ele>
        <time>2012-01-22T12:15:08Z</time>
      </trkpt>
      <trkpt lat="47.30477" lon="5.0053">
        <ele>272</ele>
        <time>2012-01-22T12:15:12Z</time>
      </trkpt>
      <trkpt lat="47.30477" lon="5.00552">
        <ele>270</ele>
        <time>2012-01-22T12:15:14Z</time>
      </trkpt>
      <trkpt lat="47.30488" lon="5.00562">
        <ele>269</ele>
        <time>2012-01-22T12:15:19Z</time>
      </trkpt>
      <trkpt lat="47.30508" lon="5.00555">
        <ele>269</ele>
        <time>2012-01-22T12:15:23Z</time>
      </trkpt>
      <trkpt lat="47.3053" lon="5.00552">
        <ele>268</ele>
        <time>2012-01-22T12:15:27Z</time>
      </trkpt>
      <trkpt lat="47.30532" lon="5.00575">
        <ele>268</ele>
        <time>2012-01-22T12:15:31Z</time>
      </trkpt>
      <trkpt lat="47.30532" lon="5.00598">
        <ele>267</ele>
        <time>2012-01-22T12:15:33Z</time>
      </trkpt>
      <trkpt lat="47.30535" lon="5.00673">
        <ele>263</ele>
        <time>2012-01-22T12:15:44Z</time>
      </trkpt>
      <trkpt lat="47.30547" lon="5.00688">
        <ele>262</ele>
        <time>2012-01-22T12:15:50Z</time>
      </trkpt>
      <trkpt lat="47.30563" lon="5.00687">
        <ele>264</ele>
        <time>2012-01-22T12:15:54Z</time>
      </trkpt>
      <trkpt lat="47.3062" lon="5.00702">
        <ele>265</ele>
        <time>2012-01-22T12:16:11Z</time>
      </trkpt>
      <trkpt lat="47.3062" lon="5.00733">
        <ele>263</ele>
        <time>2012-01-22T12:16:15Z</time>
      </trkpt>
      <trkpt lat="47.3062" lon="5.00763">
        <ele>261</ele>
        <time>2012-01-22T12:16:20Z</time>
      </trkpt>
      <trkpt lat="47.30618" lon="5.00827">
        <ele>260</ele>
        <time>2012-01-22T12:16:28Z</time>
      </trkpt>
      <trkpt lat="47.30613" lon="5.00907">
        <ele>260</ele>
        <time>2012-01-22T12:16:39Z</time>
      </trkpt>
      <trkpt lat="47.30615" lon="5.00928">
        <ele>258</ele>
        <time>2012-01-22T12:16:43Z</time>
      </trkpt>
      <trkpt lat="47.3063" lon="5.00937">
        <ele>257</ele>
        <time>2012-01-22T12:16:47Z</time>
      </trkpt>
      <trkpt lat="47.30652" lon="5.0094">
        <ele>258</ele>
        <time>2012-01-22T12:16:51Z</time>
      </trkpt>
      <trkpt lat="47.30677" lon="5.00947">
        <ele>258</ele>
        <time>2012-01-22T12:16:55Z</time>
      </trkpt>
      <trkpt lat="47.30698" lon="5.0096">
        <ele>258</ele>
        <time>2012-01-22T12:17:00Z</time>
      </trkpt>
      <trkpt lat="47.30715" lon="5.00982">
        <ele>258</ele>
        <time>2012-01-22T12:17:04Z</time>
      </trkpt>
      <trkpt lat="47.3073" lon="5.01005">
        <ele>260</ele>
        <time>2012-01-22T12:17:08Z</time>
      </trkpt>
      <trkpt lat="47.30745" lon="5.01032">
        <ele>260</ele>
        <time>2012-01-22T12:17:12Z</time>
      </trkpt>
      <trkpt lat="47.30765" lon="5.01063">
        <ele>258</ele>
        <time>2012-01-22T12:17:16Z</time>
      </trkpt>
      <trkpt lat="47.30783" lon="5.01087">
        <ele>258</ele>
        <time>2012-01-22T12:17:21Z</time>
      </trkpt>
      <trkpt lat="47.308" lon="5.0111">
        <ele>258</ele>
        <time>2012-01-22T12:17:25Z</time>
      </trkpt>
      <trkpt lat="47.3083" lon="5.01155">
        <ele>262</ele>
        <time>2012-01-22T12:17:33Z</time>
      </trkpt>
      <trkpt lat="47.30835" lon="5.01177">
        <ele>263</ele>
        <time>2012-01-22T12:17:35Z</time>
      </trkpt>
      <trkpt lat="47.30853" lon="5.01195">
        <ele>262</ele>
        <time>2012-01-22T12:17:40Z</time>
      </trkpt>
      <trkpt lat="47.3087" lon="5.01217">
        <ele>264</ele>
        <time>2012-01-22T12:17:44Z</time>
      </trkpt>
      <trkpt lat="47.30887" lon="5.01243">
        <ele>265</ele>
        <time>2012-01-22T12:17:48Z</time>
      </trkpt>
      <trkpt lat="47.30903" lon="5.01272">
        <ele>264</ele>
        <time>2012-01-22T12:17:52Z</time>
      </trkpt>
      <trkpt lat="47.30938" lon="5.01335">
        <ele>260</ele>
        <time>2012-01-22T12:18:01Z</time>
      </trkpt>
      <trkpt lat="47.30933" lon="5.01362">
        <ele>263</ele>
        <time>2012-01-22T12:18:05Z</time>
      </trkpt>
      <trkpt lat="47.30913" lon="5.01388">
        <ele>264</ele>
        <time>2012-01-22T12:18:09Z</time>
      </trkpt>
      <trkpt lat="47.30868" lon="5.0145">
        <ele>259</ele>
        <time>2012-01-22T12:18:18Z</time>
      </trkpt>
      <trkpt lat="47.30865" lon="5.01487">
        <ele>256</ele>
        <time>2012-01-22T12:18:22Z</time>
      </trkpt>
      <trkpt lat="47.3088" lon="5.01518">
        <ele>254</ele>
        <time>2012-01-22T12:18:26Z</time>
      </trkpt>
      <trkpt lat="47.30925" lon="5.0161">
        <ele>251</ele>
        <time>2012-01-22T12:18:38Z</time>
      </trkpt>
      <trkpt lat="47.30938" lon="5.01635">
        <ele>253</ele>
        <time>2012-01-22T12:18:45Z</time>
      </trkpt>
      <trkpt lat="47.30953" lon="5.01663">
        <ele>252</ele>
        <time>2012-01-22T12:18:53Z</time>
      </trkpt>
      <trkpt lat="47.30968" lon="5.01688">
        <ele>251</ele>
        <time>2012-01-22T12:18:57Z</time>
      </trkpt>
      <trkpt lat="47.3102" lon="5.0178">
        <ele>251</ele>
        <time>2012-01-22T12:19:08Z</time>
      </trkpt>
      <trkpt lat="47.31042" lon="5.0182">
        <ele>253</ele>
        <time>2012-01-22T12:19:12Z</time>
      </trkpt>
      <trkpt lat="47.31082" lon="5.01883">
        <ele>251</ele>
        <time>2012-01-22T12:19:18Z</time>
      </trkpt>
      <trkpt lat="47.3116" lon="5.01997">
        <ele>248</ele>
        <time>2012-01-22T12:19:31Z</time>
      </trkpt>
      <trkpt lat="47.31185" lon="5.01987">
        <ele>247</ele>
        <time>2012-01-22T12:19:35Z</time>
      </trkpt>
      <trkpt lat="47.31203" lon="5.02008">
        <ele>245</ele>
        <time>2012-01-22T12:19:39Z</time>
      </trkpt>
      <trkpt lat="47.31212" lon="5.02025">
        <ele>244</ele>
        <time>2012-01-22T12:19:41Z</time>
      </trkpt>
      <trkpt lat="47.31242" lon="5.02073">
        <ele>242</ele>
        <time>2012-01-22T12:19:47Z</time>
      </trkpt>
      <trkpt lat="47.31263" lon="5.02113">
        <ele>243</ele>
        <time>2012-01-22T12:19:51Z</time>
      </trkpt>
      <trkpt lat="47.31305" lon="5.02193">
        <ele>243</ele>
        <time>2012-01-22T12:20:02Z</time>
      </trkpt>
      <trkpt lat="47.31357" lon="5.02288">
        <ele>243</ele>
        <time>2012-01-22T12:20:15Z</time>
      </trkpt>
      <trkpt lat="47.3137" lon="5.02313">
        <ele>245</ele>
        <time>2012-01-22T12:20:19Z</time>
      </trkpt>
      <trkpt lat="47.31377" lon="5.02335">
        <ele>245</ele>
        <time>2012-01-22T12:20:23Z</time>
      </trkpt>
      <trkpt lat="47.31385" lon="5.02368">
        <ele>248</ele>
        <time>2012-01-22T12:20:29Z</time>
      </trkpt>
      <trkpt lat="47.31392" lon="5.02398">
        <ele>255</ele>
        <time>2012-01-22T12:20:33Z</time>
      </trkpt>
      <trkpt lat="47.31403" lon="5.02417">
        <ele>261</ele>
        <time>2012-01-22T12:20:38Z</time>
      </trkpt>
      <trkpt lat="47.31417" lon="5.0244">
        <ele>257</ele>
        <time>2012-01-22T12:20:42Z</time>
      </trkpt>
      <trkpt lat="47.31425" lon="5.02462">
        <ele>258</ele>
        <time>2012-01-22T12:20:46Z</time>
      </trkpt>
      <trkpt lat="47.31427" lon="5.02487">
        <ele>261</ele>
        <time>2012-01-22T12:20:50Z</time>
      </trkpt>
      <trkpt lat="47.3143" lon="5.02533">
        <ele>260</ele>
        <time>2012-01-22T12:20:56Z</time>
      </trkpt>
      <trkpt lat="47.31433" lon="5.02558">
        <ele>260</ele>
        <time>2012-01-22T12:21:01Z</time>
      </trkpt>
      <trkpt lat="47.31432" lon="5.02587">
        <ele>259</ele>
        <time>2012-01-22T12:21:05Z</time>
      </trkpt>
      <trkpt lat="47.31418" lon="5.02602">
        <ele>260</ele>
        <time>2012-01-22T12:21:09Z</time>
      </trkpt>
      <trkpt lat="47.31403" lon="5.02613">
        <ele>262</ele>
        <time>2012-01-22T12:21:13Z</time>
      </trkpt>
      <trkpt lat="47.3139" lon="5.0262">
        <ele>265</ele>
        <time>2012-01-22T12:21:15Z</time>
      </trkpt>
      <trkpt lat="47.31372" lon="5.02632">
        <ele>262</ele>
        <time>2012-01-22T12:21:20Z</time>
      </trkpt>
      <trkpt lat="47.31245" lon="5.02702">
        <ele>250</ele>
        <time>2012-01-22T12:21:47Z</time>
      </trkpt>
      <trkpt lat="47.31228" lon="5.02713">
        <ele>249</ele>
        <time>2012-01-22T12:21:51Z</time>
      </trkpt>
      <trkpt lat="47.31215" lon="5.02725">
        <ele>250</ele>
        <time>2012-01-22T12:21:55Z</time>
      </trkpt>
      <trkpt lat="47.31223" lon="5.0275">
        <ele>246</ele>
        <time>2012-01-22T12:22:04Z</time>
      </trkpt>
      <trkpt lat="47.31208" lon="5.02765">
        <ele>244</ele>
        <time>2012-01-22T12:22:08Z</time>
      </trkpt>
      <trkpt lat="47.31187" lon="5.02777">
        <ele>242</ele>
        <time>2012-01-22T12:22:12Z</time>
      </trkpt>
      <trkpt lat="47.31162" lon="5.02787">
        <ele>241</ele>
        <time>2012-01-22T12:22:16Z</time>
      </trkpt>
      <trkpt lat="47.31142" lon="5.028">
        <ele>239</ele>
        <time>2012-01-22T12:22:21Z</time>
      </trkpt>
      <trkpt lat="47.311" lon="5.02823">
        <ele>241</ele>
        <time>2012-01-22T12:22:29Z</time>
      </trkpt>
      <trkpt lat="47.31078" lon="5.02833">
        <ele>242</ele>
        <time>2012-01-22T12:22:33Z</time>
      </trkpt>
      <trkpt lat="47.31053" lon="5.0285">
        <ele>240</ele>
        <time>2012-01-22T12:22:37Z</time>
      </trkpt>
      <trkpt lat="47.31033" lon="5.02862">
        <ele>240</ele>
        <time>2012-01-22T12:22:42Z</time>
      </trkpt>
      <trkpt lat="47.30798" lon="5.02997">
        <ele>240</ele>
        <time>2012-01-22T12:23:26Z</time>
      </trkpt>
      <trkpt lat="47.30753" lon="5.03018">
        <ele>243</ele>
        <time>2012-01-22T12:23:34Z</time>
      </trkpt>
      <trkpt lat="47.30732" lon="5.03027">
        <ele>242</ele>
        <time>2012-01-22T12:23:38Z</time>
      </trkpt>
      <trkpt lat="47.30713" lon="5.0303">
        <ele>242</ele>
        <time>2012-01-22T12:23:42Z</time>
      </trkpt>
      <trkpt lat="47.3069" lon="5.03047">
        <ele>239</ele>
        <time>2012-01-22T12:23:46Z</time>
      </trkpt>
      <trkpt lat="47.30677" lon="5.03053">
        <ele>239</ele>
        <time>2012-01-22T12:23:49Z</time>
      </trkpt>
      <trkpt lat="47.3066" lon="5.03053">
        <ele>241</ele>
        <time>2012-01-22T12:23:53Z</time>
      </trkpt>
      <trkpt lat="47.30638" lon="5.0307">
        <ele>263</ele>
        <time>2012-01-22T12:24:05Z</time>
      </trkpt>
      <trkpt lat="47.30615" lon="5.03087">
        <ele>270</ele>
        <time>2012-01-22T12:24:07Z</time>
      </trkpt>
      <trkpt lat="47.30598" lon="5.03098">
        <ele>267</ele>
        <time>2012-01-22T12:24:09Z</time>
      </trkpt>
      <trkpt lat="47.3057" lon="5.03118">
        <ele>261</ele>
        <time>2012-01-22T12:24:14Z</time>
      </trkpt>
      <trkpt lat="47.30542" lon="5.03137">
        <ele>255</ele>
        <time>2012-01-22T12:24:18Z</time>
      </trkpt>
      <trkpt lat="47.30337" lon="5.03263">
        <ele>238</ele>
        <time>2012-01-22T12:24:56Z</time>
      </trkpt>
      <trkpt lat="47.30318" lon="5.03272">
        <ele>240</ele>
        <time>2012-01-22T12:25:00Z</time>
      </trkpt>
      <trkpt lat="47.30302" lon="5.03282">
        <ele>242</ele>
        <time>2012-01-22T12:25:04Z</time>
      </trkpt>
      <trkpt lat="47.3021" lon="5.03338">
        <ele>241</ele>
        <time>2012-01-22T12:25:23Z</time>
      </trkpt>
      <trkpt lat="47.3018" lon="5.03357">
        <ele>242</ele>
        <time>2012-01-22T12:25:29Z</time>
      </trkpt>
      <trkpt lat="47.29888" lon="5.03527">
        <ele>241</ele>
        <time>2012-01-22T12:26:27Z</time>
      </trkpt>
      <trkpt lat="47.29833" lon="5.0356">
        <ele>243</ele>
        <time>2012-01-22T12:26:40Z</time>
      </trkpt>
      <trkpt lat="47.29815" lon="5.03573">
        <ele>244</ele>
        <time>2012-01-22T12:26:44Z</time>
      </trkpt>
      <trkpt lat="47.29783" lon="5.036">
        <ele>243</ele>
        <time>2012-01-22T12:26:51Z</time>
      </trkpt>
      <trkpt lat="47.29765" lon="5.0362">
        <ele>241</ele>
        <time>2012-01-22T12:26:55Z</time>
      </trkpt>
      <trkpt lat="47.29747" lon="5.03642">
        <ele>240</ele>
        <time>2012-01-22T12:26:59Z</time>
      </trkpt>
      <trkpt lat="47.2969" lon="5.03712">
        <ele>239</ele>
        <time>2012-01-22T12:27:12Z</time>
      </trkpt>
      <trkpt lat="47.29562" lon="5.0387">
        <ele>239</ele>
        <time>2012-01-22T12:27:43Z</time>
      </trkpt>
      <trkpt lat="47.29538" lon="5.039">
        <ele>238</ele>
        <time>2012-01-22T12:27:49Z</time>
      </trkpt>
      <trkpt lat="47.2951" lon="5.03933">
        <ele>238</ele>
        <time>2012-01-22T12:27:56Z</time>
      </trkpt>
      <trkpt lat="47.29483" lon="5.03965">
        <ele>236</ele>
        <time>2012-01-22T12:28:02Z</time>
      </trkpt>
      <trkpt lat="47.29467" lon="5.03988">
        <ele>238</ele>
        <time>2012-01-22T12:28:06Z</time>
      </trkpt>
      <trkpt lat="47.29442" lon="5.04023">
        <ele>236</ele>
        <time>2012-01-22T12:28:12Z</time>
      </trkpt>
      <trkpt lat="47.2943" lon="5.04038">
        <ele>236</ele>
        <time>2012-01-22T12:28:14Z</time>
      </trkpt>
      <trkpt lat="47.2941" lon="5.04055">
        <ele>236</ele>
        <time>2012-01-22T12:28:23Z</time>
      </trkpt>
      <trkpt lat="47.29397" lon="5.0406">
        <ele>235</ele>
        <time>2012-01-22T12:28:27Z</time>
      </trkpt>
      <trkpt lat="47.2938" lon="5.04077">
        <ele>237</ele>
        <time>2012-01-22T12:28:31Z</time>
      </trkpt>
      <trkpt lat="47.2936" lon="5.0411">
        <ele>236</ele>
        <time>2012-01-22T12:28:35Z</time>
      </trkpt>
      <trkpt lat="47.29347" lon="5.04133">
        <ele>235</ele>
        <time>2012-01-22T12:28:40Z</time>
      </trkpt>
      <trkpt lat="47.29332" lon="5.04153">
        <ele>234</ele>
        <time>2012-01-22T12:28:44Z</time>
      </trkpt>
      <trkpt lat="47.29283" lon="5.04217">
        <ele>233</ele>
        <time>2012-01-22T12:28:56Z</time>
      </trkpt>
      <trkpt lat="47.2925" lon="5.04258">
        <ele>233</ele>
        <time>2012-01-22T12:29:05Z</time>
      </trkpt>
      <trkpt lat="47.29237" lon="5.04278">
        <ele>233</ele>
        <time>2012-01-22T12:29:09Z</time>
      </trkpt>
      <trkpt lat="47.29237" lon="5.04307">
        <ele>232</ele>
        <time>2012-01-22T12:29:13Z</time>
      </trkpt>
      <trkpt lat="47.29233" lon="5.04345">
        <ele>231</ele>
        <time>2012-01-22T12:29:17Z</time>
      </trkpt>
      <trkpt lat="47.2923" lon="5.04373">
        <ele>231</ele>
        <time>2012-01-22T12:29:19Z</time>
      </trkpt>
      <trkpt lat="47.29228" lon="5.04393">
        <ele>231</ele>
        <time>2012-01-22T12:29:21Z</time>
      </trkpt>
      <trkpt lat="47.29227" lon="5.0443">
        <ele>231</ele>
        <time>2012-01-22T12:29:26Z</time>
      </trkpt>
      <trkpt lat="47.29225" lon="5.04462">
        <ele>232</ele>
        <time>2012-01-22T12:29:30Z</time>
      </trkpt>
      <trkpt lat="47.29222" lon="5.04488">
        <ele>233</ele>
        <time>2012-01-22T12:29:34Z</time>
      </trkpt>
      <trkpt lat="47.29207" lon="5.04507">
        <ele>233</ele>
        <time>2012-01-22T12:29:38Z</time>
      </trkpt>
      <trkpt lat="47.29195" lon="5.04528">
        <ele>233</ele>
        <time>2012-01-22T12:29:42Z</time>
      </trkpt>
      <trkpt lat="47.2919" lon="5.0455">
        <ele>233</ele>
        <time>2012-01-22T12:29:44Z</time>
      </trkpt>
      <trkpt lat="47.29187" lon="5.04582">
        <ele>234</ele>
        <time>2012-01-22T12:29:49Z</time>
      </trkpt>
      <trkpt lat="47.2918" lon="5.04657">
        <ele>233</ele>
        <time>2012-01-22T12:29:57Z</time>
      </trkpt>
      <trkpt lat="47.2917" lon="5.04735">
        <ele>237</ele>
        <time>2012-01-22T12:30:05Z</time>
      </trkpt>
      <trkpt lat="47.29168" lon="5.04772">
        <ele>238</ele>
        <time>2012-01-22T12:30:10Z</time>
      </trkpt>
      <trkpt lat="47.2916" lon="5.0486">
        <ele>238</ele>
        <time>2012-01-22T12:30:20Z</time>
      </trkpt>
      <trkpt lat="47.29155" lon="5.04895">
        <ele>237</ele>
        <time>2012-01-22T12:30:24Z</time>
      </trkpt>
      <trkpt lat="47.2915" lon="5.0492">
        <ele>236</ele>
        <time>2012-01-22T12:30:26Z</time>
      </trkpt>
      <trkpt lat="47.2914" lon="5.04952">
        <ele>235</ele>
        <time>2012-01-22T12:30:31Z</time>
      </trkpt>
      <trkpt lat="47.29128" lon="5.04983">
        <ele>234</ele>
        <time>2012-01-22T12:30:35Z</time>
      </trkpt>
      <trkpt lat="47.29115" lon="5.05015">
        <ele>233</ele>
        <time>2012-01-22T12:30:39Z</time>
      </trkpt>
      <trkpt lat="47.29088" lon="5.05075">
        <ele>232</ele>
        <time>2012-01-22T12:30:47Z</time>
      </trkpt>
      <trkpt lat="47.29077" lon="5.05097">
        <ele>231</ele>
        <time>2012-01-22T12:30:49Z</time>
      </trkpt>
      <trkpt lat="47.29062" lon="5.05123">
        <ele>230</ele>
        <time>2012-01-22T12:30:54Z</time>
      </trkpt>
      <trkpt lat="47.29035" lon="5.05175">
        <ele>231</ele>
        <time>2012-01-22T12:31:02Z</time>
      </trkpt>
      <trkpt lat="47.29007" lon="5.05225">
        <ele>232</ele>
        <time>2012-01-22T12:31:10Z</time>
      </trkpt>
      <trkpt lat="47.2899" lon="5.05243">
        <ele>233</ele>
        <time>2012-01-22T12:31:15Z</time>
      </trkpt>
      <trkpt lat="47.2897" lon="5.05255">
        <ele>234</ele>
        <time>2012-01-22T12:31:19Z</time>
      </trkpt>
      <trkpt lat="47.28967" lon="5.0528">
        <ele>236</ele>
        <time>2012-01-22T12:31:25Z</time>
      </trkpt>
      <trkpt lat="47.2898" lon="5.05285">
        <ele>236</ele>
        <time>2012-01-22T12:31:29Z</time>
      </trkpt>
      <trkpt lat="47.28988" lon="5.05305">
        <ele>235</ele>
        <time>2012-01-22T12:31:36Z</time>
      </trkpt>
      <trkpt lat="47.28978" lon="5.05327">
        <ele>235</ele>
        <time>2012-01-22T12:31:40Z</time>
      </trkpt>
      <trkpt lat="47.28965" lon="5.0535">
        <ele>235</ele>
        <time>2012-01-22T12:31:44Z</time>
      </trkpt>
      <trkpt lat="47.2895" lon="5.05372">
        <ele>235</ele>
        <time>2012-01-22T12:31:48Z</time>
      </trkpt>
      <trkpt lat="47.28925" lon="5.05408">
        <ele>234</ele>
        <time>2012-01-22T12:31:54Z</time>
      </trkpt>
      <trkpt lat="47.28888" lon="5.05462">
        <ele>233</ele>
        <time>2012-01-22T12:32:05Z</time>
      </trkpt>
      <trkpt lat="47.28878" lon="5.05482">
        <ele>232</ele>
        <time>2012-01-22T12:32:09Z</time>
      </trkpt>
      <trkpt lat="47.2889" lon="5.05502">
        <ele>232</ele>
        <time>2012-01-22T12:32:13Z</time>
      </trkpt>
      <trkpt lat="47.28902" lon="5.0552">
        <ele>231</ele>
        <time>2012-01-22T12:32:18Z</time>
      </trkpt>
      <trkpt lat="47.28892" lon="5.05538">
        <ele>232</ele>
        <time>2012-01-22T12:32:22Z</time>
      </trkpt>
      <trkpt lat="47.28872" lon="5.05573">
        <ele>231</ele>
        <time>2012-01-22T12:32:28Z</time>
      </trkpt>
      <trkpt lat="47.28855" lon="5.05602">
        <ele>232</ele>
        <time>2012-01-22T12:32:32Z</time>
      </trkpt>
      <trkpt lat="47.2884" lon="5.05627">
        <ele>234</ele>
        <time>2012-01-22T12:32:37Z</time>
      </trkpt>
      <trkpt lat="47.28832" lon="5.05655">
        <ele>235</ele>
        <time>2012-01-22T12:32:41Z</time>
      </trkpt>
      <trkpt lat="47.2881" lon="5.05662">
        <ele>237</ele>
        <time>2012-01-22T12:32:49Z</time>
      </trkpt>
      <trkpt lat="47.28802" lon="5.05688">
        <ele>236</ele>
        <time>2012-01-22T12:32:51Z</time>
      </trkpt>
      <trkpt lat="47.28792" lon="5.05718">
        <ele>235</ele>
        <time>2012-01-22T12:32:53Z</time>
      </trkpt>
      <trkpt lat="47.28785" lon="5.05737">
        <ele>235</ele>
        <time>2012-01-22T12:32:56Z</time>
      </trkpt>
      <trkpt lat="47.28773" lon="5.0577">
        <ele>232</ele>
        <time>2012-01-22T12:33:00Z</time>
      </trkpt>
      <trkpt lat="47.28762" lon="5.058">
        <ele>230</ele>
        <time>2012-01-22T12:33:04Z</time>
      </trkpt>
      <trkpt lat="47.28745" lon="5.05838">
        <ele>229</ele>
        <time>2012-01-22T12:33:10Z</time>
      </trkpt>
      <trkpt lat="47.28732" lon="5.05868">
        <ele>229</ele>
        <time>2012-01-22T12:33:14Z</time>
      </trkpt>
      <trkpt lat="47.2872" lon="5.05893">
        <ele>228</ele>
        <time>2012-01-22T12:33:19Z</time>
      </trkpt>
      <trkpt lat="47.28703" lon="5.0593">
        <ele>228</ele>
        <time>2012-01-22T12:33:25Z</time>
      </trkpt>
      <trkpt lat="47.28693" lon="5.05953">
        <ele>228</ele>
        <time>2012-01-22T12:33:29Z</time>
      </trkpt>
      <trkpt lat="47.287" lon="5.05978">
        <ele>228</ele>
        <time>2012-01-22T12:33:33Z</time>
      </trkpt>
      <trkpt lat="47.28712" lon="5.05992">
        <ele>227</ele>
        <time>2012-01-22T12:33:35Z</time>
      </trkpt>
      <trkpt lat="47.28727" lon="5.06003">
        <ele>229</ele>
        <time>2012-01-22T12:33:40Z</time>
      </trkpt>
      <trkpt lat="47.28742" lon="5.06017">
        <ele>231</ele>
        <time>2012-01-22T12:33:44Z</time>
      </trkpt>
      <trkpt lat="47.28802" lon="5.0607">
        <ele>234</ele>
        <time>2012-01-22T12:34:01Z</time>
      </trkpt>
      <trkpt lat="47.28793" lon="5.061">
        <ele>234</ele>
        <time>2012-01-22T12:34:07Z</time>
      </trkpt>
      <trkpt lat="47.28783" lon="5.06125">
        <ele>234</ele>
        <time>2012-01-22T12:34:11Z</time>
      </trkpt>
      <trkpt lat="47.28757" lon="5.06198">
        <ele>235</ele>
        <time>2012-01-22T12:34:22Z</time>
      </trkpt>
      <trkpt lat="47.28755" lon="5.06222">
        <ele>235</ele>
        <time>2012-01-22T12:34:26Z</time>
      </trkpt>
      <trkpt lat="47.28773" lon="5.06237">
        <ele>236</ele>
        <time>2012-01-22T12:34:30Z</time>
      </trkpt>
      <trkpt lat="47.28832" lon="5.06295">
        <ele>239</ele>
        <time>2012-01-22T12:34:43Z</time>
      </trkpt>
      <trkpt lat="47.28825" lon="5.0632">
        <ele>242</ele>
        <time>2012-01-22T12:34:47Z</time>
      </trkpt>
      <trkpt lat="47.28815" lon="5.06343">
        <ele>245</ele>
        <time>2012-01-22T12:34:51Z</time>
      </trkpt>
      <trkpt lat="47.28785" lon="5.06423">
        <ele>241</ele>
        <time>2012-01-22T12:35:04Z</time>
      </trkpt>
      <trkpt lat="47.28798" lon="5.06445">
        <ele>239</ele>
        <time>2012-01-22T12:35:08Z</time>
      </trkpt>
      <trkpt lat="47.28815" lon="5.06463">
        <ele>239</ele>
        <time>2012-01-22T12:35:12Z</time>
      </trkpt>
      <trkpt lat="47.28835" lon="5.06487">
        <ele>239</ele>
        <time>2012-01-22T12:35:16Z</time>
      </trkpt>
      <trkpt lat="47.28853" lon="5.06505">
        <ele>238</ele>
        <time>2012-01-22T12:35:21Z</time>
      </trkpt>
      <trkpt lat="47.28907" lon="5.06567">
        <ele>236</ele>
        <time>2012-01-22T12:35:33Z</time>
      </trkpt>
      <trkpt lat="47.28902" lon="5.0659">
        <ele>237</ele>
        <time>2012-01-22T12:35:38Z</time>
      </trkpt>
      <trkpt lat="47.28902" lon="5.06613">
        <ele>237</ele>
        <time>2012-01-22T12:35:42Z</time>
      </trkpt>
      <trkpt lat="47.28917" lon="5.06628">
        <ele>240</ele>
        <time>2012-01-22T12:35:46Z</time>
      </trkpt>
      <trkpt lat="47.28935" lon="5.06648">
        <ele>241</ele>
        <time>2012-01-22T12:35:50Z</time>
      </trkpt>
      <trkpt lat="47.28958" lon="5.06673">
        <ele>239</ele>
        <time>2012-01-22T12:35:55Z</time>
      </trkpt>
      <trkpt lat="47.28997" lon="5.0671">
        <ele>236</ele>
        <time>2012-01-22T12:36:03Z</time>
      </trkpt>
      <trkpt lat="47.29005" lon="5.0673">
        <ele>236</ele>
        <time>2012-01-22T12:36:07Z</time>
      </trkpt>
      <trkpt lat="47.2902" lon="5.06742">
        <ele>231</ele>
        <time>2012-01-22T12:36:24Z</time>
      </trkpt>
      <trkpt lat="47.29033" lon="5.06747">
        <ele>233</ele>
        <time>2012-01-22T12:36:36Z</time>
      </trkpt>
    </trkseg>
  </trk>
</gpx>